[[{"header":{"parameterUnit":"m.s-1","parameterCategory":1,"la1":30.6,"la2":29.2853,"lo1":-89.7004,"lo2":-87.6739,"dy":0.0162,"dx":0.0183,"nx":112,"ny":82,"refTime":"2026-05-24T00:00:00:Z","depth":0,"parameterNumber":2,"parameterNumberName":"U-component_of_WINDS"},"data":[0.0,0.0,0.0,0.0,0.0,0.0,0.0,0.0,0.0,0.0,0.0,0.0,0.0,0.0,0.0,0.0,0.0,0.0,0.0,0.0,0.0,0.0,0.0,0.0,0.0,0.0,0.0,0.0,0.0,0.0,0.0,0.0,0.0,0.0,0.0,0.0,0.0,0.0,0.0,0.0,0.0,0.0,0.0,0.0,0.0,0.0,0.0,0.0,0.0,0.0,0.0,0.0,0.0,0.0,0.0,0.0,0.0,0.0,0.0,0.0,0.0,0.0,0.0,0.0,0.0,0.0,0.0,0.0,0.0,0.0,0.0,0.0,0.0,0.0,0.0,0.0,0.0,0.0,0.0,0.0,0.0,0.0,0.0,0.0,0.0,0.0,0.0,0.0,0.0,0.0,-0.8192,-0.9206,-0.9222,-0.9204,-0.9332,-0.9087,-0.8946,-0.8986,0.0,0.0,0.0,0.0,0.0,0.0,0.0,0.0,0.0,0.0,0.0,0.0,0.0,0.0,0.0,0.0,0.0,0.0,0.0,0.0,0.0,0.0,0.0,0.0,0.0,0.0,0.0,0.0,0.0,0.0,0.0,0.0,0.0,0.0,0.0,0.0,0.0,0.0,0.0,0.0,0.0,0.0,0.0,0.0,0.0,0.0,0.0,0.0,0.0,0.0,0.0,0.0,0.0,0.0,0.0,0.0,0.0,0.0,0.0,0.0,0.0,0.0,0.0,0.0,0.0,0.0,0.0,0.0,0.0,0.0,0.0,0.0,0.0,0.0,0.0,0.0,0.0,0.0,0.0,0.0,0.0,0.0,0.0,0.0,0.0,0.0,0.0,0.0,0.0,0.0,0.0,0.0,0.0,0.0,0.0,0.0,0.0,0.0,0.0,0.0,0.0,0.0,0.0,0.0,-0.904,-0.9653,-0.9787,-0.976,-0.9492,-0.9428,-0.929,-0.9004,0.0,0.0,0.0,0.0,0.0,0.0,0.0,0.0,0.0,0.0,0.0,0.0,0.0,0.0,0.0,0.0,0.0,0.0,0.0,0.0,0.0,0.0,0.0,0.0,0.0,0.0,0.0,0.0,0.0,0.0,0.0,0.0,0.0,0.0,0.0,0.0,0.0,0.0,0.0,0.0,0.0,0.0,0.0,0.0,0.0,0.0,0.0,0.0,0.0,0.0,0.0,0.0,0.0,0.0,0.0,0.0,0.0,0.0,0.0,0.0,0.0,0.0,0.0,0.0,0.0,0.0,0.0,0.0,0.0,0.0,0.0,0.0,0.0,0.0,0.0,0.0,0.0,0.0,0.0,0.0,0.0,0.0,0.0,0.0,0.0,0.0,0.0,0.0,0.0,0.0,0.0,0.0,0.0,0.0,0.0,0.0,0.0,0.0,0.0,0.0,0.0,0.0,0.0,-0.9101,-0.9514,-1.0206,-1.035,-1.0209,-0.9807,-0.9762,-0.9177,-0.7782,-0.8489,0.0,0.0,0.0,0.0,0.0,0.0,0.0,0.0,0.0,0.0,0.0,0.0,0.0,0.0,0.0,0.0,0.0,0.0,0.0,0.0,0.0,0.0,0.0,0.0,0.0,0.0,0.0,0.0,0.0,0.0,0.0,0.0,0.0,0.0,0.0,0.0,0.0,0.0,0.0,0.0,0.0,0.0,0.0,0.0,0.0,0.0,0.0,0.0,0.0,0.0,0.0,0.0,0.0,0.0,0.0,0.0,0.0,0.0,0.0,0.0,0.0,0.0,0.0,0.0,0.0,0.0,0.0,0.0,0.0,0.0,0.0,0.0,0.0,0.0,0.0,0.0,0.0,0.0,0.0,0.0,0.0,0.0,0.0,0.0,0.0,0.0,0.0,0.0,0.0,0.0,0.0,0.0,0.0,0.0,0.0,0.0,0.0,0.0,0.0,0.0,0.0,0.0,-0.9357,-0.9787,-1.0568,-1.0823,-1.0763,-1.03,-1.0296,-0.9486,-0.7558,-0.862,0.0,0.0,0.0,0.0,0.0,0.0,0.0,0.0,0.0,0.0,0.0,0.0,0.0,0.0,0.0,0.0,0.0,0.0,0.0,0.0,0.0,0.0,0.0,0.0,0.0,0.0,0.0,0.0,0.0,0.0,0.0,0.0,0.0,0.0,0.0,0.0,0.0,0.0,0.0,0.0,0.0,0.0,0.0,0.0,0.0,0.0,0.0,0.0,0.0,0.0,0.0,0.0,0.0,0.0,0.0,0.0,0.0,0.0,0.0,0.0,0.0,0.0,0.0,0.0,0.0,0.0,0.0,0.0,0.0,0.0,0.0,0.0,0.0,0.0,0.0,0.0,0.0,0.0,0.0,0.0,0.0,0.0,0.0,0.0,0.0,0.0,0.0,0.0,0.0,0.0,0.0,0.0,0.0,0.0,0.0,0.0,0.0,0.0,0.0,0.0,0.0,0.0,-0.9097,-0.9675,-1.0436,-1.1182,-1.1491,-1.1157,-1.1149,-1.0818,-0.9908,-0.9566,0.0,0.0,0.0,0.0,0.0,0.0,0.0,0.0,0.0,0.0,0.0,0.0,0.0,0.0,0.0,0.0,0.0,0.0,0.0,0.0,0.0,0.0,0.0,0.0,0.0,0.0,0.0,0.0,0.0,0.0,0.0,0.0,0.0,0.0,0.0,0.0,0.0,0.0,0.0,0.0,0.0,0.0,0.0,0.0,0.0,0.0,0.0,0.0,0.0,0.0,0.0,0.0,0.0,0.0,0.0,0.0,0.0,0.0,0.0,0.0,0.0,0.0,0.0,0.0,0.0,0.0,0.0,0.0,0.0,0.0,0.0,0.0,0.0,0.0,0.0,0.0,0.0,0.0,0.0,0.0,0.0,0.0,0.0,0.0,0.0,0.0,0.0,0.0,0.0,0.0,0.0,0.0,0.0,0.0,0.0,0.0,0.0,0.0,0.0,0.0,0.0,0.0,-0.953,-1.0292,0.0,-1.1795,-1.2118,-1.173,-1.1648,-1.0807,-0.8923,0.0,0.0,0.0,0.0,0.0,0.0,0.0,0.0,0.0,0.0,0.0,0.0,0.0,0.0,0.0,0.0,0.0,0.0,0.0,0.0,0.0,0.0,0.0,0.0,0.0,0.0,0.0,0.0,0.0,0.0,0.0,0.0,0.0,0.0,0.0,0.0,0.0,0.0,0.0,0.0,0.0,0.0,0.0,0.0,0.0,0.0,0.0,0.0,0.0,0.0,0.0,0.0,0.0,0.0,0.0,0.0,0.0,0.0,0.0,0.0,0.0,0.0,0.0,0.0,0.0,0.0,0.0,0.0,0.0,0.0,0.0,0.0,0.0,0.0,0.0,0.0,0.0,0.0,0.0,0.0,0.0,0.0,0.0,0.0,0.0,0.0,0.0,0.0,0.0,0.0,0.0,0.0,0.0,0.0,0.0,0.0,0.0,0.0,0.0,0.0,0.0,0.0,-0.8842,-0.9631,-1.0545,0.0,-1.2126,-1.2458,-1.2384,-1.2054,-1.1017,-0.9023,0.0,0.0,0.0,0.0,0.0,0.0,0.0,0.0,0.0,0.0,0.0,0.0,0.0,0.0,0.0,0.0,0.0,0.0,0.0,0.0,0.0,0.0,0.0,0.0,0.0,0.0,0.0,0.0,0.0,0.0,0.0,0.0,0.0,0.0,0.0,0.0,0.0,0.0,0.0,0.0,0.0,0.0,0.0,0.0,0.0,0.0,0.0,0.0,0.0,0.0,0.0,0.0,0.0,0.0,0.0,0.0,0.0,0.0,0.0,0.0,0.0,0.0,0.0,0.0,0.0,0.0,0.0,0.0,0.0,0.0,0.0,0.0,0.0,0.0,0.0,0.0,0.0,0.0,0.0,0.0,0.0,0.0,0.0,0.0,0.0,0.0,0.0,0.0,0.0,0.0,0.0,0.0,0.0,0.0,0.0,0.0,0.0,0.0,0.0,0.0,0.0,0.0,-0.8789,-0.9376,-1.0266,-1.1649,-1.2054,-1.2499,-1.3135,-1.2463,-1.165,0.0,0.0,0.0,0.0,0.0,0.0,0.0,0.0,0.0,0.0,0.0,0.0,0.0,0.0,0.0,0.0,0.0,0.0,0.0,0.0,0.0,0.0,0.0,0.0,0.0,0.0,0.0,0.0,0.0,0.0,0.0,0.0,0.0,0.0,0.0,0.0,0.0,0.0,0.0,0.0,0.0,0.0,0.0,0.0,0.0,0.0,0.0,0.0,0.0,0.0,0.0,0.0,0.0,0.0,0.0,0.0,0.0,0.0,0.0,0.0,0.0,0.0,0.0,0.0,0.0,0.0,0.0,0.0,0.0,0.0,0.0,0.0,0.0,0.0,0.0,0.0,0.0,0.0,0.0,0.0,0.0,0.0,0.0,0.0,0.0,0.0,0.0,0.0,0.0,0.0,0.0,0.0,0.0,0.0,0.0,0.0,0.0,0.0,0.0,0.0,0.0,0.0,0.0,-0.8961,-1.0137,-1.1227,-1.1867,-1.2671,-1.3107,-1.3048,-1.2687,-1.197,-1.0871,0.0,0.0,0.0,0.0,0.0,0.0,0.0,0.0,0.0,0.0,0.0,0.0,0.0,0.0,0.0,0.0,0.0,0.0,0.0,0.0,0.0,0.0,0.0,0.0,0.0,0.0,0.0,0.0,0.0,0.0,0.0,0.0,0.0,0.0,0.0,0.0,0.0,0.0,0.0,0.0,0.0,0.0,0.0,0.0,0.0,0.0,0.0,0.0,0.0,0.0,0.0,0.0,0.0,0.0,0.0,0.0,0.0,0.0,0.0,0.0,0.0,0.0,0.0,0.0,0.0,0.0,0.0,0.0,0.0,0.0,0.0,0.0,0.0,0.0,0.0,0.0,0.0,0.0,0.0,0.0,0.0,0.0,0.0,0.0,0.0,0.0,0.0,0.0,0.0,0.0,0.0,0.0,0.0,0.0,0.0,0.0,0.0,0.0,0.0,0.0,0.0,0.0,-0.9119,-1.0448,-1.1607,-1.2071,-1.2909,-1.3436,-1.3448,-1.2927,-1.2175,-1.1158,0.0,0.0,0.0,0.0,0.0,0.0,0.0,0.0,0.0,0.0,0.0,0.0,0.0,0.0,0.0,0.0,0.0,0.0,0.0,0.0,0.0,0.0,0.0,0.0,0.0,0.0,0.0,0.0,0.0,0.0,0.0,0.0,0.0,0.0,0.0,0.0,0.0,0.0,0.0,0.0,0.0,0.0,0.0,0.0,0.0,0.0,0.0,0.0,0.0,0.0,0.0,0.0,0.0,0.0,0.0,0.0,0.0,0.0,0.0,0.0,0.0,0.0,0.0,0.0,0.0,0.0,0.0,0.0,0.0,0.0,0.0,0.0,0.0,0.0,0.0,0.0,0.0,0.0,0.0,0.0,0.0,0.0,0.0,0.0,0.0,0.0,0.0,0.0,0.0,0.0,0.0,0.0,0.0,0.0,0.0,0.0,0.0,0.0,0.0,0.0,0.0,0.0,-0.9313,-1.0509,-1.1614,-1.226,-1.2977,-1.357,-1.4017,-1.3254,-1.2439,-1.1679,0.0,0.0,0.0,0.0,0.0,0.0,0.0,0.0,0.0,0.0,0.0,0.0,0.0,0.0,0.0,0.0,0.0,0.0,0.0,0.0,0.0,0.0,0.0,0.0,0.0,0.0,0.0,0.0,0.0,0.0,0.0,0.0,0.0,0.0,0.0,0.0,0.0,0.0,0.0,0.0,0.0,0.0,0.0,0.0,0.0,0.0,0.0,0.0,0.0,0.0,0.0,0.0,0.0,0.0,0.0,0.0,0.0,0.0,0.0,0.0,-0.3835,0.0,0.0,0.0,0.0,0.0,0.0,0.0,0.0,0.0,0.0,0.0,0.0,0.0,0.0,0.0,0.0,0.0,0.0,0.0,0.0,0.0,0.0,0.0,0.0,0.0,0.0,0.0,0.0,0.0,0.0,0.0,0.0,0.0,0.0,0.0,0.0,0.0,0.0,0.0,0.0,0.0,-0.9655,-1.0869,-1.193,-1.2631,-1.3424,-1.3863,-1.3711,-1.3797,-1.3273,-1.1855,-1.1146,0.0,0.0,0.0,0.0,0.0,0.0,0.0,0.0,0.0,0.0,0.0,0.0,0.0,0.0,0.0,0.0,0.0,0.0,0.0,0.0,0.0,0.0,0.0,0.0,0.0,0.0,0.0,0.0,0.0,0.0,0.0,0.0,0.0,0.0,0.0,0.0,0.0,0.0,0.0,0.0,0.0,0.0,0.0,0.0,0.0,0.0,0.0,0.0,0.0,0.0,0.0,0.0,0.0,0.0,0.0,0.0,0.0,0.0,0.0,0.0,-0.3835,0.0,0.0,0.0,0.0,0.0,0.0,0.0,0.0,0.0,0.0,0.0,0.0,0.0,0.0,0.0,0.0,0.0,0.0,0.0,0.0,0.0,0.0,0.0,0.0,0.0,0.0,0.0,0.0,0.0,0.0,0.0,0.0,0.0,0.0,0.0,0.0,0.0,0.0,0.0,0.0,-0.9614,-1.1059,-1.2202,-1.2646,-1.3646,-1.4187,-1.4096,-1.408,-1.3657,-1.2714,-1.1897,0.0,0.0,0.0,0.0,0.0,0.0,0.0,0.0,0.0,0.0,0.0,0.0,0.0,0.0,0.0,0.0,0.0,0.0,0.0,0.0,0.0,0.0,0.0,0.0,0.0,0.0,0.0,0.0,0.0,0.0,0.0,0.0,0.0,0.0,0.0,0.0,0.0,0.0,0.0,0.0,0.0,0.0,0.0,0.0,0.0,0.0,0.0,0.0,0.0,0.0,0.0,0.0,0.0,-0.5494,-0.5456,-0.5079,-0.4855,-0.4665,-0.446,-0.3832,-0.3857,-0.4345,-0.3905,0.0,0.0,0.0,0.0,0.0,0.0,0.0,0.0,0.0,0.0,0.0,0.0,0.0,0.0,0.0,0.0,0.0,0.0,0.0,0.0,0.0,0.0,0.0,0.0,-0.1684,-0.1966,0.0,0.0,0.0,0.0,0.0,0.0,0.0,0.0,0.0,0.0,0.0,0.0,-0.9516,-1.1067,-1.227,-1.2587,-1.3619,-1.4339,-1.4431,-1.419,-1.3878,-1.3477,-1.2557,-1.155,0.0,0.0,0.0,0.0,0.0,0.0,0.0,0.0,0.0,0.0,0.0,0.0,0.0,0.0,0.0,0.0,0.0,0.0,0.0,0.0,0.0,0.0,0.0,0.0,0.0,0.0,0.0,0.0,0.0,0.0,0.0,0.0,-0.2157,-0.2594,0.0,0.0,0.0,0.0,0.0,0.0,0.0,0.0,0.0,0.0,0.0,0.0,0.0,-0.5396,-0.6003,-0.5581,-0.5611,-0.6017,-0.5909,-0.5826,-0.576,-0.5555,-0.5548,-0.5625,-0.4918,0.0,-0.4586,-0.4022,0.0,0.0,0.0,0.0,0.0,0.0,0.0,0.0,0.0,0.0,0.0,0.0,0.0,0.0,0.0,0.0,0.0,0.0,0.0,0.0,0.0,0.0,-0.1634,-0.1591,-0.1777,-0.1995,0.0,-0.234,-0.2864,-0.3651,-0.3667,0.0,0.0,0.0,0.0,0.0,0.0,0.0,-0.9697,-1.0843,-1.1872,-1.254,-1.3353,-1.3894,-1.3894,-1.4269,-1.4069,-1.2969,-1.2916,-1.247,-1.1454,-1.0968,0.0,0.0,0.0,0.0,0.0,0.0,0.0,0.0,0.0,0.0,0.0,0.0,0.0,0.0,0.0,0.0,0.0,0.0,0.0,0.0,0.0,0.0,0.0,0.0,0.0,0.0,0.0,0.0,0.0,-0.2142,-0.2526,-0.3199,-0.3076,-0.3058,0.0,0.0,0.0,0.0,0.0,0.0,0.0,0.0,0.0,-0.5585,-0.5382,-0.5455,-0.5801,-0.572,-0.5855,-0.621,-0.6119,-0.6086,-0.6053,-0.5855,-0.5723,-0.5591,-0.5027,-0.5121,-0.5611,-0.5046,-0.4866,-0.4855,0.0,0.0,0.0,0.0,-0.0742,-0.0144,0.0074,0.0502,0.0,0.0895,0.0,0.0,0.0,0.0,0.0,0.0,0.0,0.0,0.0,0.0,-0.1934,-0.2256,-0.2416,-0.2669,-0.3216,-0.3382,-0.3426,0.0,-0.4058,-0.4687,-0.5562,0.0,0.0,0.0,0.0,-0.9241,-0.9629,-1.086,-1.1854,-1.2388,-1.3074,-1.368,-1.4112,-1.4084,-1.4024,-1.3979,-1.3599,-1.3121,-1.2575,-1.1862,-1.0998,0.0,0.0,0.0,0.0,0.0,0.0,0.0,0.0,0.0,0.0,0.0,0.0,0.0,0.0,0.0,0.0,0.0,0.0,0.0,0.0,0.0,0.0,0.0,0.0,0.0,0.0,0.0,0.0,-0.2484,-0.3028,-0.3637,-0.3616,-0.3655,0.0,0.0,0.0,0.0,0.0,0.0,-0.5224,-0.4836,-0.4885,-0.5535,-0.5478,-0.5535,-0.5683,-0.5892,-0.6099,-0.6251,-0.6258,-0.6291,-0.6309,-0.5987,-0.5756,-0.5624,-0.516,-0.5418,-0.6154,-0.5574,-0.5266,-0.504,-0.4221,-0.3237,-0.2178,-0.127,-0.0526,0.0053,0.0164,0.0477,0.0824,0.0682,0.0444,0.0216,0.0351,0.0,0.0,0.0,0.0,-0.1821,-0.1809,-0.209,-0.2485,-0.2922,-0.3087,-0.3311,-0.3992,-0.4161,-0.4148,0.0,-0.4549,-0.5151,-0.5401,0.0,0.0,0.0,0.0,-0.9162,-0.9502,-1.0752,-1.177,-1.2174,-1.2844,-1.35,-1.4134,-1.3936,-1.4114,-1.4809,-1.4279,-1.3868,-1.3668,-1.2837,-1.1905,-1.096,0.0,0.0,0.0,0.0,0.0,0.0,0.0,0.0,0.0,0.0,0.0,0.0,0.0,0.0,0.0,0.0,0.0,0.0,0.0,0.0,0.0,0.0,0.0,0.0,0.0,0.0,0.0,0.0,0.0,-0.353,-0.4066,0.0,0.0,0.0,0.0,-0.4382,-0.4703,-0.4958,-0.5114,-0.5094,-0.5173,-0.5418,-0.5543,-0.5675,-0.5888,-0.6214,-0.6384,-0.6383,-0.6384,-0.6477,-0.6638,-0.5947,-0.5881,-0.6317,-0.5657,-0.5491,-0.5602,-0.4932,-0.5071,-0.5615,-0.4171,-0.3042,-0.2104,-0.1359,-0.0701,-0.0117,0.0334,0.0572,0.0676,0.0559,0.0373,0.0168,-0.0084,-0.0273,0.0,0.0,-0.1696,-0.2244,-0.2575,-0.3019,-0.3402,-0.3371,-0.3554,-0.3712,-0.3503,-0.4137,-0.488,0.0,-0.4981,-0.4917,-0.5494,0.0,-0.6568,-0.6707,-0.7822,-0.8824,-0.9351,-1.0366,-1.1272,-1.196,-1.2628,-1.3164,-1.3529,-1.4037,-1.4458,-1.4709,-1.4848,-1.4833,-1.4625,-1.3784,-1.3044,-1.2487,-1.1539,0.0,0.0,0.0,0.0,0.0,0.0,0.0,0.0,0.0,0.0,0.0,0.0,0.0,0.0,0.0,0.0,0.0,0.0,0.0,0.0,0.0,0.0,0.0,0.0,0.0,0.0,0.0,0.0,-0.4387,-0.4363,0.0,-0.4862,-0.4933,-0.4917,-0.4874,-0.5094,-0.5239,-0.5286,-0.5153,-0.5219,-0.5517,-0.5824,-0.5984,-0.6018,-0.6808,-0.6904,-0.6417,-0.7027,-0.6992,-0.6375,-0.6342,-0.6145,-0.5848,-0.5385,-0.5425,-0.5716,-0.4937,-0.4691,-0.4753,-0.3966,-0.3034,-0.2062,-0.1461,-0.0833,-0.0214,0.0063,0.0405,0.0668,0.0547,0.0151,-0.0326,-0.0668,-0.1251,-0.1901,-0.2232,-0.2667,-0.3104,-0.344,-0.3631,-0.3768,-0.4153,-0.4301,-0.4451,-0.4753,-0.4932,-0.5258,-0.5914,-0.5741,-0.5549,-0.5755,-0.6474,-0.7049,-0.7207,-0.8175,-0.905,-0.9423,-1.029,-1.1094,-1.1605,-1.2337,-1.3031,-1.3693,-1.4064,-1.4258,-1.4229,-1.4362,-1.4091,-1.339,-1.2915,-1.2398,-1.1783,-1.1661,-1.1088,0.0,0.0,0.0,0.0,0.0,0.0,0.0,0.0,0.0,0.0,0.0,0.0,0.0,0.0,0.0,0.0,0.0,0.0,0.0,0.0,0.0,0.0,0.0,0.0,0.0,0.0,-0.4468,-0.5013,-0.4971,-0.5029,-0.5404,-0.5442,-0.5403,-0.5267,-0.5396,-0.5458,-0.5392,-0.5259,-0.5319,-0.5583,-0.5925,-0.6184,-0.6409,-0.7179,-0.7364,-0.689,-0.75,-0.7324,-0.6449,-0.6474,-0.6145,-0.5517,-0.512,-0.5054,-0.5193,-0.4528,-0.4128,-0.3908,-0.3668,-0.29,-0.1909,-0.1376,-0.0772,-0.0214,0.0126,0.0411,0.0626,0.0589,0.0092,-0.0551,-0.1021,-0.1786,-0.2577,-0.3002,-0.3418,-0.3815,-0.4151,-0.4241,-0.4388,-0.4964,-0.5113,-0.5223,-0.5629,-0.5632,-0.5643,-0.6051,-0.5923,-0.5788,-0.5949,-0.6678,-0.731,-0.7368,-0.8306,-0.9107,-0.944,-1.0199,-1.0921,-1.1442,-1.2202,-1.2953,-1.3645,-1.3862,-1.4049,-1.4113,-1.4039,-1.3672,-1.2995,-1.2658,-1.2195,-1.1524,-1.1696,-1.1437,-1.0667,0.0,0.0,0.0,0.0,0.0,0.0,0.0,0.0,0.0,0.0,0.0,0.0,0.0,0.0,0.0,0.0,0.0,0.0,0.0,0.0,0.0,0.0,0.0,-0.3888,-0.4764,-0.5379,-0.5248,-0.5784,-0.6119,-0.5921,-0.5888,-0.5822,-0.5617,-0.5617,-0.5557,-0.5399,-0.5399,-0.5458,-0.5624,-0.583,-0.6279,-0.7018,-0.7443,-0.7689,-0.7796,-0.782,-0.7527,-0.6876,-0.6375,-0.5848,-0.5359,-0.4827,-0.4395,-0.3995,-0.3665,-0.3397,-0.3209,-0.3286,-0.2639,-0.1653,-0.1123,-0.0621,-0.0148,0.046,0.0568,0.0483,0.0594,0.0154,-0.0586,-0.1172,-0.1819,-0.2526,-0.3298,-0.3872,-0.4313,-0.462,-0.4912,-0.5246,-0.5782,-0.5921,-0.5917,-0.591,-0.6068,-0.6098,-0.5704,-0.5516,-0.557,-0.6025,-0.6687,-0.7175,-0.7209,-0.8117,0.0,-0.9428,-1.0142,-1.0835,-1.1446,-1.2302,-1.2931,-1.3266,-1.35,-1.3835,-1.4296,-1.395,-1.3703,-1.3662,-1.3177,-1.2589,-1.1984,-1.1751,-1.1577,-1.1471,0.0,0.0,0.0,0.0,0.0,0.0,0.0,0.0,0.0,0.0,0.0,0.0,0.0,0.0,0.0,0.0,0.0,0.0,0.0,0.0,0.0,-0.4429,-0.489,-0.471,-0.5288,-0.5832,-0.6059,-0.6023,-0.602,-0.6119,-0.5987,-0.5822,-0.5617,-0.5617,-0.5573,-0.5556,-0.5554,-0.5673,-0.5965,-0.6594,-0.6997,-0.7223,-0.8281,-0.8473,-0.7794,-0.8473,-0.8137,-0.6885,-0.6736,-0.6268,-0.5517,-0.4888,-0.4528,-0.4395,-0.3928,-0.3694,-0.3585,-0.3234,-0.2712,-0.2144,-0.1755,-0.13,-0.078,-0.023,-0.0298,-0.0631,-0.0461,-0.1148,-0.2123,-0.233,-0.3123,-0.396,-0.3985,-0.4341,-0.4766,-0.4937,-0.5143,-0.5453,-0.5933,-0.6091,-0.6137,-0.6253,-0.6212,-0.6195,-0.6188,-0.6038,-0.5951,-0.6138,-0.6408,-0.6815,-0.7349,-0.7944,0.0,-0.9384,-1.0015,-1.0739,-1.1609,-1.2402,-1.2946,-1.315,-1.4009,-1.4082,-1.3006,-1.3595,-1.3616,-1.2721,-1.2877,-1.3024,-1.3119,-1.2737,-1.26,0.0,0.0,0.0,0.0,0.0,0.0,0.0,0.0,0.0,0.0,0.0,0.0,0.0,0.0,0.0,0.0,0.0,0.0,0.0,0.0,0.0,0.0,-0.4699,-0.5158,-0.5287,-0.5708,-0.6125,-0.6367,-0.6218,-0.6152,-0.6284,-0.6119,-0.5954,-0.5749,-0.5714,-0.5663,-0.5589,-0.5663,-0.5899,-0.6334,-0.6879,-0.7399,-0.7868,-0.8668,-0.8778,-0.8301,-0.8925,-0.8514,-0.7228,-0.699,-0.6465,-0.5675,-0.4827,-0.4428,-0.4328,-0.3861,-0.3627,0.0,0.0,0.0,0.0,0.0,-0.1764,-0.1353,-0.0827,-0.0998,-0.141,-0.1309,-0.208,-0.3076,-0.325,-0.4,-0.4791,-0.4798,-0.5034,-0.5338,-0.5525,-0.5704,-0.5908,-0.6326,-0.6432,-0.6424,-0.6513,-0.6457,-0.6392,-0.6319,-0.6342,0.0,-0.6392,-0.6579,-0.6942,-0.7609,-0.8172,-0.8786,-0.9524,-1.0264,-1.1035,-1.1833,-1.2369,-1.2751,-1.295,-1.3475,0.0,0.0,0.0,-1.3245,-1.2543,-1.2676,0.0,0.0,0.0,0.0,0.0,0.0,0.0,0.0,-1.2172,-1.2167,0.0,0.0,0.0,0.0,0.0,0.0,0.0,0.0,0.0,0.0,0.0,0.0,0.0,0.0,0.0,0.0,-0.4683,-0.5225,-0.562,-0.5943,-0.6237,-0.6367,-0.6383,-0.6383,-0.6383,-0.6251,-0.6086,-0.5888,-0.5834,-0.576,-0.5619,0.0,0.0,0.0,0.0,-0.7658,-0.8695,-0.8798,-0.8907,-0.9048,-0.9157,-0.873,-0.7779,-0.726,-0.6662,-0.5972,-0.4927,-0.4361,-0.4061,-0.3794,-0.3627,-0.3551,-0.3684,-0.3554,-0.3223,-0.2572,-0.2211,-0.1974,-0.1457,0.0,0.0,-0.2144,-0.2817,-0.3718,-0.4084,-0.4683,-0.5279,-0.5595,-0.5826,-0.6023,-0.6196,-0.6335,-0.6547,-0.6883,-0.6859,-0.6759,-0.6786,-0.6754,-0.6628,-0.63,-0.6496,-0.6704,-0.6736,-0.6994,-0.7385,-0.7924,-0.8571,-0.9172,-0.9748,-1.0711,-1.1521,-1.1978,0.0,0.0,-1.2657,-1.2507,-1.2487,-1.2668,-1.2885,-1.3002,-1.2997,-1.2859,-1.2863,-1.3001,-1.3595,-1.4062,-1.4393,-1.4849,-1.5127,-1.5196,-1.4008,-1.3711,0.0,0.0,0.0,0.0,0.0,0.0,0.0,0.0,0.0,0.0,0.0,0.0,0.0,0.0,0.0,-0.4626,-0.517,-0.5605,-0.5484,-0.5762,-0.6081,-0.635,-0.6383,-0.635,-0.6243,-0.6053,-0.5888,-0.5683,-0.58,-0.5844,-0.5775,-0.6352,-0.6836,-0.7189,-0.7969,-0.8482,-0.8699,-0.9511,-0.9696,-0.9254,0.0,0.0,-0.8418,-0.8002,-0.7391,-0.6662,-0.6046,-0.5319,-0.4649,-0.4882,-0.518,-0.5444,-0.4356,-0.3888,-0.3817,-0.3694,-0.3341,-0.2902,-0.2533,-0.2839,-0.3456,-0.3551,-0.4018,-0.4661,-0.5326,-0.5749,0.0,-0.6077,-0.6229,-0.6377,-0.6349,-0.6613,-0.6958,-0.7305,-0.7246,-0.7162,-0.7312,-0.7005,-0.6695,-0.6628,-0.6645,-0.6769,-0.7073,-0.7167,-0.7386,-0.7912,-0.8474,-0.9119,-0.9856,-1.0873,-1.1586,-1.1699,-1.235,-1.2543,-1.1876,-1.2613,-1.2931,-1.2564,-1.3588,-1.4212,-1.433,-1.4432,-1.4628,-1.4869,-1.5003,-1.5235,-1.5572,-1.5584,-1.5488,-1.5352,-1.4782,-1.4505,0.0,0.0,0.0,0.0,0.0,0.0,0.0,0.0,0.0,0.0,0.0,-0.4815,-0.5173,0.0,-0.5113,-0.5178,-0.5414,-0.5577,-0.5496,-0.5738,-0.5954,-0.6119,-0.6152,-0.6119,-0.6053,-0.5855,-0.5716,-0.5617,-0.5766,-0.5893,-0.5996,-0.6696,-0.7276,-0.769,-0.8434,-0.8913,-0.8988,-0.9585,-0.9649,-0.9134,-0.9086,-0.8984,-0.8817,-0.8045,-0.7619,-0.7414,-0.6695,-0.6104,-0.5569,-0.5378,-0.551,-0.5782,-0.4882,-0.4716,-0.4921,-0.4522,-0.4189,-0.3861,-0.3489,-0.3661,-0.4095,-0.4456,-0.4921,-0.5392,-0.5657,-0.6178,-0.6654,-0.6367,-0.6696,-0.7117,-0.7173,-0.7356,-0.7528,-0.772,-0.7584,-0.74,-0.7237,-0.6975,-0.6778,-0.6704,-0.6745,-0.6909,-0.7302,-0.7554,-0.7847,-0.8344,-0.8829,-0.946,-1.0301,-1.0938,-1.1423,-1.1815,-1.176,-1.1689,-1.1699,-1.2569,-1.3238,-1.3484,-1.4309,-1.4784,-1.4843,-1.5079,-1.5313,-1.5546,-1.5546,-1.5662,-1.5885,-1.5827,-1.5691,-1.5546,-1.5416,-1.5146,0.0,0.0,0.0,0.0,0.0,0.0,0.0,0.0,-0.4329,-0.4603,-0.4714,-0.49,-0.5258,-0.5207,-0.5247,-0.5723,-0.564,-0.5546,-0.5635,-0.5822,-0.5921,-0.5822,-0.5855,-0.5888,-0.5855,-0.5716,-0.5631,-0.5593,-0.585,-0.6082,-0.6325,-0.708,-0.7718,-0.8217,-0.8778,-0.9098,-0.9144,-0.9472,-0.9404,-0.8917,-0.8877,-0.888,-0.8907,-0.8144,-0.7772,-0.7707,-0.6817,-0.64,-0.6301,-0.5576,-0.5444,-0.565,-0.5286,-0.5425,-0.5756,-0.516,-0.4794,-0.4561,-0.4295,-0.4345,-0.4602,-0.5132,-0.5633,-0.6007,-0.6033,-0.6531,-0.704,-0.6811,-0.7204,-0.7759,-0.8019,-0.8117,-0.8149,-0.8052,-0.7889,-0.7629,-0.7138,-0.7007,-0.6909,-0.6811,-0.6909,-0.7138,-0.7521,-0.8009,-0.8463,-0.8797,-0.9204,-0.9779,-1.0618,-1.0873,-1.1198,-1.1632,-1.1067,-1.0969,-1.1761,-1.2508,-1.3329,-1.4327,-1.4743,-1.4961,-1.5009,-1.5254,-1.5517,-1.574,-1.574,-1.5827,-1.6,-1.6,-1.5914,-1.574,-1.5885,-1.5662,-0.4769,-0.4579,-0.4428,-0.4592,-0.4406,-0.431,0.0,0.0,-0.4621,-0.5112,-0.55,-0.5746,-0.58,-0.5787,-0.5872,-0.6108,-0.5963,-0.5833,-0.5855,-0.6053,-0.5987,-0.5524,-0.5723,-0.5822,-0.565,-0.5789,-0.5788,-0.5624,-0.6233,-0.6679,-0.6892,-0.778,-0.84,-0.8619,-0.9051,-0.9035,-0.8511,-0.9398,-0.9432,-0.8649,-0.9333,-0.9226,-0.8402,-0.8864,-0.8269,-0.6802,-0.5921,-0.5782,-0.6079,-0.5418,-0.5484,-0.6013,-0.5557,-0.5491,-0.5617,-0.555,-0.512,-0.4628,-0.4888,-0.511,-0.5349,-0.5892,-0.6207,-0.6481,-0.7299,-0.7174,-0.6933,-0.7749,-0.7837,-0.7814,-0.8312,-0.8582,-0.8603,-0.8269,-0.8074,-0.7889,-0.7661,-0.7368,-0.7171,-0.7138,-0.7293,-0.7554,-0.7889,-0.8463,-0.8926,-0.899,-0.9268,-0.9716,-1.0269,-1.0789,-1.0869,-1.0315,-1.0803,-1.1409,-1.1947,-1.2321,-1.2995,-1.398,-1.4488,-1.4813,-1.5009,-1.5254,-1.5546,-1.5885,-1.5885,-1.6029,-1.6345,-1.6345,-1.6173,-1.5885,-1.6009,-1.596,-0.486,-0.4475,-0.4199,-0.4481,-0.4619,-0.4674,-0.4727,-0.482,-0.4934,-0.5042,-0.5199,-0.5401,-0.5726,-0.5797,-0.5903,0.0,-0.6073,-0.5954,-0.6053,-0.5947,-0.5848,-0.5855,-0.5987,-0.5921,-0.5524,-0.5617,-0.5822,-0.6092,-0.6576,-0.7126,-0.7671,-0.8244,-0.867,-0.8861,-0.902,-0.8993,-0.874,-0.9384,-0.9532,-0.9134,-0.9069,-0.8869,-0.8594,-0.8439,-0.7977,-0.7218,-0.6243,-0.5881,-0.5939,-0.5352,-0.5153,-0.5186,-0.4894,-0.491,-0.5135,-0.5252,-0.5253,-0.5186,-0.5259,-0.5622,-0.6031,-0.5989,-0.623,-0.6573,-0.6547,-0.6823,-0.7195,-0.7381,-0.7782,-0.8279,-0.8668,-0.87,-0.8582,-0.8409,-0.8182,-0.7922,-0.7661,-0.74,-0.7237,-0.7358,-0.7423,-0.7619,-0.7954,-0.8409,-0.8732,-0.8861,-0.9408,-0.9919,-1.0269,-1.0322,-1.0219,-0.9913,-1.0373,-1.104,-1.1809,-1.2274,-1.292,-1.383,-1.4219,-1.4547,-1.4813,-1.5049,-1.54,-1.5885,-1.5885,-1.6058,-1.6402,-1.6402,-1.6288,-1.6009,-1.6066,-1.6124,-0.5218,-0.4655,-0.4196,-0.4531,-0.4798,-0.4962,-0.4755,-0.4982,-0.5192,-0.4962,-0.5156,-0.545,-0.5793,-0.5981,-0.6214,-0.6628,-0.6416,-0.6251,-0.6441,-0.6276,-0.6178,-0.6375,-0.6375,-0.6218,-0.5789,-0.5914,-0.6205,-0.6602,-0.7095,-0.7681,-0.8374,-0.8662,-0.8889,-0.9074,-0.9046,-0.8903,-0.8751,-0.9329,-0.9479,-0.9259,-0.8973,-0.8696,-0.8425,-0.7474,-0.7211,-0.7433,-0.6074,-0.5379,-0.5213,-0.4649,-0.4323,-0.4161,-0.4097,-0.4364,-0.485,-0.516,-0.544,-0.5677,-0.5786,-0.6203,-0.6585,-0.6233,-0.6476,-0.6749,-0.6201,-0.6662,-0.7326,-0.7284,-0.7814,-0.8506,-0.8894,-0.8797,-0.8549,-0.8441,-0.8214,-0.7932,-0.7762,-0.7536,-0.7419,-0.7663,-0.7625,-0.7652,-0.7987,-0.8247,-0.8474,-0.8668,-0.928,-0.9824,-1.0047,-0.9856,-0.974,-0.9804,-1.006,-1.0618,-1.1639,-1.2104,-1.275,-1.3739,-1.404,-1.4369,-1.4677,-1.4872,-1.5274,-1.5827,-1.5827,-1.6029,-1.6402,-1.6402,-1.6316,-1.6104,-1.6153,-1.621,-0.5891,-0.5198,-0.4478,-0.4805,-0.4939,-0.4962,-0.4755,-0.5067,-0.5314,-0.4962,-0.5791,-0.6471,-0.6237,-0.6674,-0.7147,-0.7418,-0.7138,-0.6942,-0.7138,-0.7326,-0.7293,-0.6924,-0.6868,-0.6811,-0.6679,-0.6975,-0.71,-0.6991,-0.7778,-0.8457,-0.8969,-0.8988,-0.9074,-0.9284,-0.9094,-0.8732,-0.8125,-0.9098,-0.9284,-0.8629,-0.9392,-0.8984,-0.7487,-0.6016,-0.5982,-0.6899,-0.4867,-0.3808,-0.3518,-0.2987,-0.2887,-0.3066,-0.3316,-0.3978,-0.4874,-0.5525,-0.5786,-0.5893,-0.6686,-0.6977,-0.6982,-0.6982,-0.7118,-0.7256,-0.7185,-0.7027,-0.7088,-0.7934,-0.8172,-0.8333,-0.885,-0.8894,-0.87,-0.8301,-0.8107,-0.8038,-0.825,-0.7973,-0.7785,-0.8193,-0.7963,-0.7792,-0.8139,-0.8204,-0.8269,-0.8484,-0.8797,-0.9139,-0.9492,-0.9504,-0.958,-0.9772,-0.9919,-1.0428,-1.1421,-1.1825,-1.2536,-1.3739,-1.404,-1.4369,-1.4677,-1.4872,-1.5215,-1.5711,-1.5711,-1.5943,-1.6402,-1.6402,-1.6316,-1.6104,-1.6316,-1.6288,-0.5336,-0.492,-0.4485,-0.4614,-0.4946,-0.5228,-0.5005,-0.5265,-0.5535,-0.5495,-0.5816,-0.6061,-0.6075,-0.6536,-0.6889,-0.6777,-0.6951,-0.7171,-0.7358,-0.7456,-0.7489,-0.7433,-0.7433,0.0,-0.7073,-0.6933,0.0,-0.7371,-0.8109,-0.874,-0.9179,-0.9456,-0.9501,-0.9322,-0.898,-0.8713,-0.8487,-0.8969,-0.9052,-0.8785,-0.8544,-0.8096,-0.7453,-0.6015,-0.5494,-0.5688,-0.47,-0.3894,-0.3208,-0.3105,-0.314,-0.337,-0.3574,-0.442,-0.5553,-0.6478,-0.7011,-0.7306,-0.7214,-0.7247,-0.7257,-0.6849,-0.6774,-0.6778,-0.6367,-0.6669,-0.7167,-0.7559,-0.8107,-0.8668,-0.8926,-0.8894,-0.8743,-0.8474,-0.8395,-0.843,-0.8469,-0.8552,-0.8521,-0.8349,-0.8293,-0.8209,-0.7898,-0.7979,-0.8107,-0.8279,-0.8635,-0.899,-0.9332,-0.9376,-0.9472,-0.9772,-0.9919,-1.0364,-1.131,-1.1763,-1.2413,-1.342,-1.3769,-1.416,-1.4677,-1.4754,-1.5079,-1.5682,-1.5711,-1.5827,-1.6058,-1.6153,-1.6181,-1.6104,-1.6316,-1.6374,-0.5133,-0.4892,-0.4696,-0.4804,-0.5178,-0.5494,-0.5369,-0.5559,-0.582,-0.5908,-0.5982,-0.6064,-0.624,-0.6629,-0.6906,-0.6872,-0.7154,-0.7466,-0.7652,-0.7684,-0.7717,-0.7792,-0.7792,-0.7727,0.0,0.0,0.0,-0.7657,-0.828,-0.8805,-0.9176,-0.9453,-0.9456,-0.9208,-0.9018,-0.8856,-0.8703,-0.9046,-0.9167,-0.9015,-0.8049,-0.757,-0.7562,-0.6045,-0.5231,-0.499,-0.4362,-0.353,-0.2592,-0.2554,-0.2666,-0.2914,-0.353,-0.4535,-0.5837,-0.7053,-0.7836,-0.8248,-0.7664,-0.7471,-0.7393,-0.6791,-0.6522,-0.6331,-0.5942,-0.6499,-0.7333,-0.7498,-0.8197,-0.8963,-0.9083,-0.8852,-0.8538,-0.8279,-0.8391,-0.8555,-0.8353,-0.8588,-0.8725,-0.8301,-0.8161,-0.7986,-0.7673,-0.7782,-0.7922,-0.8009,-0.8312,-0.8668,-0.9151,-0.9268,-0.9408,-0.9676,-0.9888,-1.0364,-1.1247,-1.1732,-1.2413,-1.342,-1.3739,-1.413,-1.4677,-1.4706,-1.4971,-1.5575,-1.5662,-1.5798,-1.5972,-1.6124,-1.621,-1.621,-1.6381,-1.6488,-0.5344,-0.5193,-0.5093,-0.5368,-0.5573,-0.5733,-0.5814,-0.5966,-0.6133,-0.6238,-0.6346,-0.6536,-0.6777,0.0,-0.7238,-0.7616,-0.7694,-0.7792,-0.7954,-0.8019,-0.8019,0.0,0.0,0.0,0.0,0.0,0.0,-0.783,0.0,-0.8717,-0.8994,-0.9024,-0.9015,-0.8998,-0.9208,-0.9084,-0.8685,-0.9226,-0.9425,-0.9228,-0.7906,-0.7442,-0.769,-0.6034,-0.5098,-0.4769,-0.3844,-0.2767,-0.1687,-0.1544,-0.1606,-0.1907,-0.325,-0.4485,-0.5744,-0.7255,-0.8208,-0.8627,-0.8008,-0.7672,-0.7403,-0.6819,-0.638,-0.6058,-0.59,-0.6596,-0.7521,-0.7749,-0.8425,-0.9108,-0.9298,-0.8766,-0.8107,-0.7759,-0.8136,-0.8436,-0.7901,-0.824,-0.8508,-0.817,-0.7607,-0.7263,-0.7461,-0.7596,-0.7661,-0.7694,-0.7857,-0.8247,-0.8894,-0.9151,-0.9344,-0.9484,-0.9792,-1.0333,-1.1202,-1.1701,-1.2505,-1.3709,-1.392,-1.4219,-1.4677,-1.4706,-1.4942,-1.541,-1.5604,-1.5836,-1.6095,-1.6288,-1.6374,-1.6374,-1.6524,-1.6581,-0.6023,-0.5808,-0.5624,-0.5753,-0.578,-0.5856,-0.6176,-0.6285,-0.6454,-0.6849,-0.7065,-0.7138,-0.7106,-0.731,0.0,-0.7125,-0.7651,0.0,-0.7792,-0.8247,0.0,-0.8453,0.0,-0.8223,-0.83,-0.8429,0.0,0.0,-0.8512,-0.883,-0.9187,-0.9363,-0.9367,-0.9216,-0.9268,-0.9052,-0.8477,-0.8486,-0.8459,-0.8401,-0.7462,-0.7059,-0.7166,-0.561,-0.4536,-0.3866,-0.3895,-0.3099,-0.1806,-0.2377,-0.2737,-0.3074,-0.4044,-0.5205,-0.6492,-0.7761,-0.8437,-0.8627,-0.8169,-0.7902,-0.7647,-0.725,-0.6626,-0.6038,-0.6198,-0.6717,-0.7358,-0.7811,-0.8298,-0.8668,-0.8734,-0.8289,-0.7772,-0.7587,-0.7773,-0.7953,-0.7823,-0.8362,-0.8681,-0.8015,-0.739,-0.7035,-0.724,-0.7302,-0.7368,-0.7531,-0.7824,-0.8214,-0.8765,-0.8894,-0.9087,-0.9452,-0.9708,-1.0174,-1.1014,-1.1545,-1.2351,-1.3511,-1.386,-1.4279,-1.4902,-1.5039,-1.5254,-1.5604,-1.5769,-1.5885,-1.5943,-1.6095,-1.6181,-1.6181,-1.6374,-1.6495,-0.5999,-0.5994,-0.5951,-0.6087,-0.6074,-0.6136,-0.6526,-0.6568,-0.6697,-0.7306,-0.7375,-0.7314,-0.7254,-0.737,-0.745,0.0,0.0,0.0,-0.8074,-0.8409,-0.8592,0.0,-0.8388,0.0,-0.8529,-0.8888,-0.9021,0.0,-0.8826,-0.8913,-0.915,-0.9358,-0.9332,-0.9051,-0.9099,-0.8775,-0.7996,-0.7704,-0.7534,-0.7433,-0.653,-0.6114,-0.6079,-0.4909,-0.3874,-0.3025,0.0,-0.2889,-0.1714,-0.233,-0.2775,-0.3249,-0.4193,-0.5319,-0.6588,-0.7825,-0.8513,-0.8818,-0.856,-0.823,-0.7831,-0.7207,-0.6832,-0.6607,-0.6348,-0.6787,-0.7478,-0.7936,-0.8228,-0.8426,-0.8469,-0.7959,-0.741,-0.7072,-0.7431,-0.7726,-0.7339,-0.8031,-0.8458,-0.7623,-0.7163,-0.694,-0.7058,-0.7204,-0.7391,-0.7563,-0.7759,-0.8084,-0.87,-0.8861,-0.9055,-0.9452,-0.974,-1.0174,-1.0919,-1.1545,-1.2351,-1.342,-1.3812,-1.4309,-1.498,-1.5068,-1.5274,-1.5546,-1.574,-1.5885,-1.598,-1.6066,-1.6161,-1.6324,-1.6495,-1.6581,-0.5734,-0.5957,-0.6182,-0.6348,-0.6368,-0.6463,-0.6855,-0.6883,-0.6973,-0.7605,0.0,-0.7291,-0.7349,-0.739,-0.7552,-0.7913,0.0,-0.8447,-0.8484,-0.8495,-0.8418,-0.8155,-0.8388,-0.8593,-0.871,-0.9201,-0.9411,-0.9149,-0.9073,-0.9042,-0.9081,-0.9128,-0.8971,-0.8621,-0.8685,-0.8299,-0.729,-0.6958,-0.6657,-0.6398,-0.5418,-0.4933,-0.4882,-0.4065,-0.3267,-0.2498,-0.2838,-0.2463,-0.1631,-0.1966,-0.2438,-0.2966,-0.4068,-0.5196,-0.6395,-0.7595,-0.8437,-0.8922,-0.8912,-0.8646,-0.8125,-0.7109,-0.7038,-0.7258,-0.6525,-0.6873,-0.7629,-0.7967,-0.8135,-0.8236,-0.8203,-0.765,-0.6988,-0.6473,-0.7049,-0.7538,-0.6781,-0.743,-0.7955,-0.7153,-0.6933,-0.6876,-0.6885,-0.7237,-0.7554,-0.7661,-0.7759,-0.8052,-0.8732,-0.8926,-0.9119,-0.9484,-0.9792,-1.0269,-1.0982,-1.1608,-1.2413,-1.348,-1.383,-1.4309,-1.498,-1.5039,-1.5167,-1.5439,-1.5633,-1.5836,-1.6104,-1.6124,-1.6296,-1.6609,-1.6722,-1.6722,-0.6332,-0.631,-0.6269,-0.6318,-0.6476,-0.674,-0.713,-0.726,0.0,0.0,-0.7811,-0.7766,-0.7708,-0.7891,-0.8132,-0.8356,-0.8602,-0.8677,-0.8517,-0.8506,-0.8559,0.0,-0.8524,-0.8482,-0.8841,-0.8994,0.0,0.0,-0.8892,-0.9333,-0.9487,-0.8732,-0.8242,-0.8033,-0.7692,-0.7102,-0.6172,-0.6105,-0.5867,-0.5425,-0.4663,-0.4299,-0.4306,-0.3515,-0.3056,-0.2878,-0.2847,0.0,-0.2118,-0.2563,-0.2965,-0.3389,-0.4462,-0.555,-0.6641,-0.7518,-0.8131,-0.8494,-0.8514,-0.8879,-0.9155,-0.8041,-0.7244,-0.6812,-0.7163,-0.7243,-0.7348,-0.7687,-0.7785,-0.772,-0.7259,-0.6949,-0.6601,-0.623,-0.6508,-0.6774,-0.6619,-0.6948,-0.7205,-0.704,-0.6865,-0.6778,-0.6876,-0.7237,-0.7554,-0.7661,-0.8095,-0.8506,-0.8926,-0.8894,-0.9055,-0.9676,-0.9804,-1.0269,-1.1327,-1.167,-1.2382,-1.3679,-1.392,-1.4309,-1.498,-1.5098,-1.5332,-1.5633,-1.5798,-1.5943,-1.6104,-1.6267,-1.641,-1.6609,-1.6637,-1.6694,-0.646,-0.6425,-0.6398,-0.6605,-0.6777,-0.6973,-0.7228,0.0,0.0,0.0,-0.7652,-0.7547,-0.7588,-0.7796,0.0,-0.8291,-0.8639,-0.8842,-0.8763,-0.87,0.0,-0.8963,-0.8901,-0.8834,0.0,-0.9051,-0.8871,-0.8197,-0.8094,-0.8364,-0.9084,-0.8571,-0.8095,-0.7701,-0.7027,-0.6279,-0.5439,-0.5029,-0.4704,-0.4466,-0.3969,-0.3866,-0.4077,-0.3725,-0.3411,-0.3112,-0.3112,0.0,-0.2248,-0.2669,-0.2993,-0.3298,-0.4303,-0.5312,-0.6356,-0.7288,-0.7825,-0.8114,-0.8328,-0.8504,-0.8599,-0.8282,-0.8005,-0.7806,-0.7557,-0.7559,-0.7661,-0.7824,-0.7857,-0.7694,-0.6975,-0.6781,-0.6631,-0.6211,-0.6514,-0.6942,-0.7056,-0.7037,-0.7023,-0.7086,-0.6933,-0.6843,-0.704,-0.7368,-0.7661,-0.7824,-0.8214,-0.8679,-0.9119,-0.9151,-0.9344,-0.9856,-1.0091,-1.0555,-1.1421,-1.1825,-1.2552,-1.3739,-1.392,-1.4309,-1.498,-1.5068,-1.5244,-1.5546,-1.5604,-1.5807,-1.6104,-1.6144,-1.6316,-1.6609,-1.6609,-1.6609,-0.664,-0.6644,-0.6693,-0.6959,-0.7142,-0.7311,-0.7459,-0.7507,0.0,0.0,-0.744,-0.7266,-0.7424,-0.7717,-0.8026,0.0,-0.8722,-0.8982,-0.8988,-0.8894,-0.8875,0.0,-0.9161,0.0,-0.8913,-0.902,0.0,-0.7987,-0.7175,-0.7143,-0.819,-0.8215,-0.793,-0.7294,-0.6462,-0.5588,-0.4752,-0.4092,-0.3713,-0.3693,-0.348,-0.3608,-0.4033,-0.4077,-0.3876,-0.3489,-0.3499,0.0,0.0,-0.278,-0.2941,-0.3197,-0.4028,-0.4885,-0.5848,-0.6903,-0.7502,-0.7787,-0.819,-0.8216,-0.8134,-0.8387,-0.8618,-0.8598,-0.7894,-0.7899,-0.8156,-0.8091,-0.8091,-0.7894,-0.7094,-0.6874,-0.6798,-0.644,-0.6798,-0.7296,-0.748,-0.7278,-0.713,-0.7193,-0.7103,-0.7073,-0.7237,-0.7563,-0.7889,-0.8084,-0.8376,-0.8797,-0.9344,-0.9556,-0.9811,-1.0142,-1.0428,-1.087,-1.1545,-1.2058,-1.2767,-1.3769,-1.398,-1.4339,-1.498,-1.5009,-1.5137,-1.5381,-1.541,-1.5613,-1.6066,-1.598,-1.6153,-1.6609,-1.6581,-1.6495,-0.7149,-0.7251,-0.7365,-0.7144,-0.7473,-0.7857,-0.7983,0.0,-0.7719,-0.7863,-0.7525,-0.7309,-0.7614,-0.8036,-0.8457,-0.88,0.0,-0.9212,-0.9011,-0.8894,-0.884,-0.8981,0.0,0.0,-0.882,-0.8614,-0.8107,-0.7183,-0.6477,-0.628,-0.678,-0.728,-0.7269,-0.6515,-0.5778,-0.4925,-0.3908,-0.3675,-0.3449,-0.3336,-0.3372,-0.3636,-0.4089,-0.4142,-0.4241,-0.4343,-0.3953,0.0,0.0,-0.3257,-0.3172,-0.3483,-0.3968,-0.4501,-0.5196,-0.6286,-0.7041,-0.759,-0.7933,-0.8488,-0.902,-0.8819,-0.8361,-0.7975,-0.8231,-0.8483,-0.8583,-0.8348,-0.8314,-0.8213,-0.7604,-0.7164,-0.6937,-0.7056,-0.7272,-0.748,-0.748,-0.7462,-0.7415,-0.7229,-0.7333,-0.7456,-0.7456,-0.7847,-0.8204,-0.842,-0.8732,-0.9151,-0.9676,-1.0015,-1.0364,-1.0681,-1.0649,-1.0965,-1.1888,-1.2274,-1.292,-1.392,-1.4178,-1.4476,-1.498,-1.5009,-1.5137,-1.5381,-1.541,-1.5575,-1.5914,-1.6038,-1.6267,-1.6609,-1.6488,-1.6402,-0.7573,-0.7756,-0.7877,-0.7889,-0.809,-0.8352,-0.849,0.0,-0.8123,-0.8086,-0.7639,-0.7362,-0.7644,-0.7973,-0.8267,-0.8357,-0.8572,-0.8743,-0.8648,-0.8428,-0.8503,-0.9212,-0.9074,0.0,0.0,0.0,-0.7807,-0.655,-0.605,-0.5756,-0.5656,-0.6457,-0.6765,-0.6356,-0.6021,-0.5458,-0.4715,-0.4375,-0.4317,-0.4505,-0.4399,-0.4617,-0.5083,-0.5225,-0.5161,-0.4981,-0.4967,0.0,0.0,-0.3958,-0.3758,-0.354,-0.4119,-0.4713,-0.5354,-0.6414,-0.7101,-0.7574,-0.8036,-0.8523,-0.8939,-0.889,-0.8755,-0.8692,-0.8948,-0.9076,-0.9135,-0.8962,-0.9158,-0.9262,-0.8641,-0.8179,-0.7832,-0.7774,-0.7795,-0.7872,-0.7872,-0.7684,-0.7522,-0.7548,-0.7444,-0.74,-0.7596,-0.7944,-0.8269,-0.8484,-0.8958,-0.9428,-0.9772,-1.0219,-1.0555,-1.0776,-1.0933,-1.1341,-1.212,-1.249,-1.3072,-1.395,-1.4207,-1.4506,-1.498,-1.5009,-1.5137,-1.5381,-1.5517,-1.5691,-1.5885,-1.6038,-1.6239,-1.6488,-1.6431,-1.6345,-0.8024,-0.8393,-0.8624,-0.8664,-0.8775,-0.8856,0.0,-0.8608,-0.8296,-0.8142,-0.767,-0.7367,-0.7589,-0.785,-0.7981,-0.7932,-0.8229,-0.844,-0.8348,-0.8192,-0.8331,0.0,0.0,-0.8895,0.0,-0.8374,-0.7548,-0.6273,-0.5832,-0.5445,-0.502,-0.5595,-0.586,-0.567,-0.5504,-0.5199,-0.4784,-0.4518,-0.4627,-0.5083,-0.5128,-0.5404,-0.5874,-0.5949,-0.5858,-0.5583,-0.5606,0.0,0.0,-0.4397,-0.4101,-0.3606,-0.4249,-0.4806,-0.5334,-0.6418,-0.7066,-0.7495,-0.8167,-0.8593,-0.8888,-0.9104,-0.9285,-0.9478,-0.9662,-0.9695,-0.9703,-0.9703,-0.9985,-1.0114,-0.9338,-0.8897,-0.8589,-0.8333,-0.8217,-0.8178,-0.8102,-0.7868,-0.7699,-0.777,-0.7545,-0.7433,-0.7661,-0.7977,-0.8301,-0.8603,-0.9107,-0.9588,-0.9996,-1.0396,-1.0713,-1.0933,-1.1247,-1.1685,-1.2243,-1.2705,-1.3255,-1.395,-1.4249,-1.4595,-1.498,-1.5039,-1.5167,-1.541,-1.5546,-1.5711,-1.5885,-1.598,-1.6153,-1.6402,-1.6288,-1.6173,-0.8622,-0.9282,-0.9775,-0.9398,-0.9389,-0.9396,-0.9086,-0.858,-0.8135,-0.7946,-0.7588,-0.7338,-0.7473,-0.7682,-0.7779,-0.7722,-0.8207,-0.8491,-0.8244,-0.8317,-0.8436,0.0,0.0,-0.8828,-0.8625,-0.7932,-0.7202,-0.6452,-0.5795,0.0,-0.5015,-0.4577,-0.4291,-0.422,-0.3841,-0.3585,-0.3527,-0.364,-0.4003,-0.4617,-0.5149,-0.5732,-0.6284,-0.6105,-0.6098,-0.6247,0.0,0.0,0.0,-0.452,-0.4087,-0.3657,-0.4257,-0.4641,-0.4948,-0.6154,-0.6813,-0.7249,-0.8249,-0.8769,-0.9087,-0.9612,-0.9925,-1.0134,-1.0334,-1.0309,-1.0262,-1.0575,-1.0683,-1.0467,-0.955,-0.9129,-0.896,-0.8742,-0.8551,-0.8331,-0.814,-0.8088,-0.8044,-0.7841,-0.7749,-0.7694,-0.7694,-0.7977,-0.8398,-0.8914,-0.9172,-0.962,-1.046,-1.0713,-1.0933,-1.1279,-1.1591,-1.1934,-1.2274,-1.2903,-1.348,-1.398,-1.444,-1.4784,-1.5009,-1.5127,-1.5254,-1.541,-1.541,-1.5575,-1.5885,-1.5885,-1.6058,-1.6374,-1.6058,-1.5885,-0.9244,-0.9673,-0.9962,-0.9586,-0.9332,-0.9103,-0.8957,-0.8456,-0.7988,-0.7986,-0.7615,-0.7284,-0.7246,-0.7415,-0.7544,-0.7398,-0.7779,-0.8066,-0.7935,0.0,0.0,-0.9084,-0.9404,-0.9299,0.0,0.0,-0.7285,-0.6452,-0.5793,-0.5237,-0.4815,-0.4316,-0.4031,-0.4003,-0.4281,-0.439,-0.4318,-0.4787,-0.534,-0.5956,-0.5706,-0.5837,-0.6284,-0.6056,-0.5883,0.0,0.0,0.0,0.0,-0.4665,-0.4501,-0.4231,-0.4414,-0.505,-0.5895,-0.6401,-0.7138,-0.7923,-0.8534,-0.9094,-0.954,-0.9512,-0.9796,-1.0092,-1.0015,-1.0243,-1.0647,-1.123,-1.1463,-1.1389,-1.0541,-1.0189,-0.9841,-0.9094,-0.8751,-0.8589,-0.8513,-0.8421,-0.8259,-0.8037,-0.7862,-0.7803,-0.7887,-0.8074,-0.8398,-0.8914,-0.9376,-0.9824,-1.0333,-1.0744,-1.1122,-1.1466,-1.1685,-1.1965,-1.2398,-1.2858,-1.3346,-1.395,-1.4249,-1.4547,-1.4784,-1.4961,-1.5127,-1.5254,-1.5488,-1.5662,-1.5769,-1.5856,-1.6,-1.6181,-1.6095,-1.6038,-0.9402,-0.9707,-0.9875,-0.9557,-0.9219,-0.8882,-0.869,-0.8217,-0.7818,-0.7748,-0.7504,-0.7257,-0.7112,-0.7267,-0.7322,-0.7149,-0.7467,-0.7756,0.0,0.0,0.0,-0.9201,0.0,0.0,0.0,-0.8169,-0.7496,-0.6744,-0.6072,-0.5419,-0.4862,-0.4293,-0.3885,-0.3644,-0.3813,-0.3939,-0.3973,-0.4458,-0.5104,-0.5933,-0.5732,-0.5858,-0.6284,-0.6043,-0.5839,0.0,0.0,0.0,0.0,-0.4628,-0.4525,-0.4169,-0.4556,-0.5336,-0.6282,-0.6754,-0.7535,-0.8387,-0.8843,-0.9211,-0.952,-0.9639,-0.9995,-1.0331,-1.009,-1.0385,-1.0924,-1.1329,-1.1564,-1.1515,-1.0856,-1.0406,-0.9992,-0.9359,-0.897,-0.8703,-0.8703,-0.8543,-0.8363,-0.8231,-0.8112,-0.804,-0.8116,-0.8306,-0.8636,-0.9119,-0.9536,-0.9964,-1.0428,-1.0839,-1.1185,-1.1466,-1.1685,-1.2027,-1.2582,-1.2858,-1.3285,-1.395,-1.4249,-1.4458,-1.4617,-1.4902,-1.5127,-1.5215,-1.543,-1.5633,-1.5769,-1.6,-1.6087,-1.6104,-1.6104,-1.6104,0.0,-0.9417,-0.9599,-0.9295,-0.8963,-0.8621,-0.8229,-0.789,0.0,-0.7311,-0.7257,-0.7214,-0.7106,-0.7123,-0.7128,-0.7016,-0.7296,-0.7622,0.0,-0.7861,0.0,0.0,-0.8776,0.0,-0.8948,-0.8412,-0.7749,-0.7171,-0.6472,-0.5789,-0.5064,-0.4509,-0.3949,-0.328,-0.2691,-0.2581,-0.2896,-0.3097,-0.3779,-0.4821,-0.5276,-0.5735,-0.6247,-0.6074,-0.6,0.0,0.0,0.0,0.0,-0.4441,-0.4217,-0.3607,-0.4591,-0.5447,-0.6259,-0.7178,-0.7936,-0.8614,-0.9064,-0.9162,-0.9188,-0.9874,-1.0365,-1.0647,-1.0384,-1.0611,-1.0996,-1.1033,-1.1043,-1.0968,-1.0556,-1.003,-0.9587,-0.9549,-0.9122,-0.8703,-0.8703,-0.8552,-0.842,-0.8401,-0.843,-0.8393,-0.8351,-0.8648,-0.9042,-0.9432,-0.9664,-1.0047,-1.0713,-1.0965,-1.1153,-1.131,-1.1622,-1.2089,-1.2783,-1.292,-1.3285,-1.398,-1.4291,-1.4469,-1.4499,-1.4931,-1.5186,-1.5186,-1.5342,-1.5575,-1.5885,-1.623,-1.6288,-1.6104,-1.6104,-1.6153,-0.8577,0.0,-0.9195,-0.8669,-0.8247,-0.7892,0.0,-0.7395,-0.7192,-0.7041,-0.6906,-0.6839,-0.6875,-0.6889,-0.6922,-0.7072,-0.7491,-0.7755,-0.7539,0.0,0.0,-0.9241,-0.9378,-0.9287,-0.8964,-0.836,-0.7598,-0.6647,-0.6187,-0.5739,-0.5265,-0.4821,-0.4327,-0.3821,-0.2977,-0.2927,-0.3698,-0.3539,-0.4023,-0.5168,-0.5235,-0.5517,-0.5918,-0.5917,-0.5808,0.0,0.0,0.0,-0.3866,-0.4225,-0.4141,-0.3804,-0.4563,-0.5555,-0.663,-0.7279,-0.8102,-0.8873,-0.8733,-0.9139,-0.9653,-0.9422,-0.9465,-0.953,-0.9305,-0.9949,-1.0707,-1.0487,-1.0519,-1.0556,-1.0143,-0.9803,-0.9511,-0.9208,-0.8903,-0.8703,-0.8703,-0.8666,-0.8618,-0.8614,-0.8619,-0.8643,-0.8722,-0.8828,-0.9042,-0.9432,-0.9664,-1.0028,-1.0555,-1.0902,-1.1216,-1.1498,-1.1685,-1.212,-1.2889,-1.2905,-1.3224,-1.4178,-1.416,-1.4219,-1.4506,-1.4862,-1.5039,-1.5039,-1.543,-1.574,-1.5885,-1.6066,-1.6153,-1.6124,-1.6361,-1.6683,-0.8209,-0.8503,-0.8701,-0.8168,-0.7823,-0.7583,-0.7483,-0.7264,-0.7085,0.0,0.0,-0.6802,-0.6842,-0.6859,-0.6912,-0.6944,-0.73,0.0,0.0,0.0,-0.8451,-0.9041,-0.9175,-0.906,0.0,-0.8215,-0.7536,-0.6622,-0.6152,-0.5733,-0.5372,-0.4971,-0.4563,-0.4142,-0.3256,-0.292,-0.3185,-0.3154,-0.3643,-0.4656,-0.5045,-0.5512,-0.6018,-0.606,-0.5937,0.0,0.0,0.0,-0.4003,-0.4035,-0.399,-0.3966,-0.4772,-0.5795,-0.6876,-0.7479,-0.8248,-0.8876,-0.8712,-0.9064,-0.9502,-0.908,-0.9119,-0.9306,-0.8941,-0.9342,-0.9892,-0.9798,-0.9879,-0.9879,-0.9587,-0.9284,-0.9018,-0.8903,-0.8703,-0.8551,-0.8551,-0.8703,-0.8827,-0.8833,-0.8948,-0.9093,-0.9122,-0.9174,-0.9341,-0.9669,-0.9824,-1.0079,-1.0618,-1.0933,-1.1185,-1.1435,-1.1622,-1.2027,-1.2828,-1.2767,-1.3072,-1.4028,-1.395,-1.401,-1.4267,-1.4636,-1.502,-1.5332,-1.5691,-1.5923,-1.598,-1.6239,-1.6332,-1.6353,-1.6581,-1.6948,-0.7904,-0.809,-0.8235,-0.7702,-0.7461,-0.7381,-0.7381,0.0,0.0,0.0,0.0,0.0,-0.6998,-0.702,0.0,0.0,0.0,0.0,-0.7445,-0.7641,-0.7997,-0.8722,-0.8708,0.0,-0.8538,-0.8109,-0.749,-0.6721,-0.6218,-0.5756,-0.5359,-0.4994,-0.4634,-0.4267,-0.347,-0.2785,-0.2232,-0.2492,-0.304,-0.3898,-0.4709,-0.5396,-0.6034,-0.6131,-0.6002,-0.5708,0.0,0.0,-0.412,-0.39,-0.3923,-0.4128,-0.5086,-0.6036,-0.6966,-0.7658,-0.8261,-0.8719,-0.8788,-0.8872,-0.8932,-0.8656,-0.8898,-0.9198,-0.8627,-0.8665,-0.8884,-0.9112,-0.916,-0.9132,-0.8941,-0.8637,-0.8437,-0.8627,-0.8551,-0.8437,-0.8437,-0.8751,-0.9027,-0.9027,-0.9288,-0.9497,-0.9436,-0.9536,-0.9684,-0.9957,-0.9983,-1.0174,-1.0744,-1.0965,-1.1153,-1.1279,-1.1498,-1.1903,-1.2613,-1.2613,-1.2889,-1.3619,-1.3739,-1.389,-1.407,-1.4517,-1.5049,-1.5682,-1.5951,-1.6095,-1.6153,-1.6467,-1.6609,-1.6609,-1.6751,-1.7112,-0.7477,-0.7809,-0.7996,-0.7085,-0.6842,-0.6815,-0.6815,-0.6788,0.0,0.0,0.0,0.0,0.0,-0.737,-0.7151,0.0,0.0,-0.7087,0.0,0.0,-0.8123,-0.8819,0.0,-0.879,-0.8594,-0.8199,-0.7548,-0.6531,-0.6284,-0.5848,-0.5186,-0.4927,-0.4561,-0.4061,-0.3473,-0.2909,-0.2372,-0.2308,-0.2827,-0.3907,-0.3992,-0.4284,-0.4785,-0.5431,-0.5398,-0.4885,0.0,-0.471,-0.3871,-0.3943,-0.4095,-0.4334,-0.5216,-0.6034,-0.6786,-0.7362,-0.7869,-0.8341,-0.873,-0.8524,-0.8003,-0.7963,-0.799,-0.8016,-0.7565,-0.7795,-0.8293,-0.8475,-0.8551,-0.8513,-0.8522,-0.8437,-0.8399,-0.8437,-0.8551,-0.8665,-0.8665,-0.8827,-0.9056,-0.9208,-0.94,-0.9533,-0.9646,-0.9639,-0.9684,-0.9957,-0.9983,-1.0174,-1.0744,-1.0965,-1.1153,-1.1279,-1.1591,-1.1903,-1.2182,-1.2521,-1.2858,-1.3103,-1.3558,-1.401,-1.441,-1.4754,-1.5196,-1.5682,-1.5856,-1.6058,-1.6345,-1.6524,-1.6609,-1.6609,-1.6842,-1.7456,-0.6993,-0.7128,-0.7187,-0.6545,-0.6651,-0.6869,-0.6734,-0.6707,0.0,0.0,0.0,0.0,0.0,0.0,-0.6852,-0.6848,0.0,-0.6914,-0.7585,-0.7681,-0.7904,0.0,0.0,-0.8459,-0.8215,-0.801,-0.7464,-0.6473,-0.6185,0.0,-0.512,-0.4728,-0.4328,-0.3894,-0.336,-0.2924,-0.2555,-0.2109,-0.2379,-0.336,-0.388,-0.4347,-0.4715,-0.5222,-0.5334,-0.5114,0.0,-0.4656,-0.4178,-0.4053,-0.4228,-0.4634,-0.5265,-0.5914,-0.6606,-0.7128,-0.7368,-0.7447,-0.7894,-0.7548,-0.6952,-0.7033,-0.7104,-0.7183,-0.7116,-0.7483,-0.8016,-0.8322,-0.8399,-0.8399,-0.8399,-0.8255,-0.8102,-0.8217,-0.8331,-0.8399,-0.8513,-0.8789,-0.9065,-0.9246,-0.938,-0.9488,-0.9659,-0.9625,-0.9648,-0.9945,-0.9983,-1.0238,-1.087,-1.1028,-1.1185,-1.1435,-1.1591,-1.1809,-1.2089,-1.2428,-1.2828,-1.3238,-1.3679,-1.404,-1.4339,-1.4754,-1.5167,-1.5546,-1.5778,-1.6066,-1.6402,-1.6609,-1.6751,-1.6814,-1.732,-1.7846,-0.6588,-0.6561,-0.6584,-0.6164,-0.6452,-0.6764,-0.6646,-0.6571,0.0,0.0,0.0,0.0,0.0,-0.6732,0.0,-0.7022,-0.6886,-0.6926,-0.7387,-0.7593,-0.783,-0.8175,-0.8319,-0.8256,-0.7941,-0.7901,-0.746,-0.6505,0.0,0.0,-0.496,-0.4528,-0.4133,-0.3727,-0.3259,-0.2887,-0.2686,-0.215,-0.2214,-0.2872,-0.3568,-0.4126,-0.4524,-0.4844,-0.5011,-0.5004,-0.4726,-0.4545,-0.4425,-0.4165,-0.4428,-0.496,-0.5326,-0.5822,-0.6465,-0.6941,-0.6931,-0.6788,-0.7294,-0.6999,-0.6467,-0.6651,-0.6697,-0.676,-0.6953,-0.7272,-0.7673,-0.8083,-0.8223,-0.8268,-0.8389,-0.8178,-0.7987,-0.814,-0.8217,-0.8293,-0.8484,-0.8827,-0.9142,-0.9322,-0.9437,-0.9528,-0.9683,-0.9645,-0.9685,-0.9964,-1.0047,-1.0333,-1.0996,-1.109,-1.1216,-1.156,-1.1591,-1.1747,-1.2058,-1.2398,-1.2797,-1.3359,-1.383,-1.41,-1.416,-1.4636,-1.5106,-1.5478,-1.5702,-1.5992,-1.6424,-1.6615,-1.6751,-1.6864,-1.7449,-1.791,-0.6273,-0.6463,-0.6744,-0.6155,-0.5964,-0.5971,-0.6277,-0.6245,0.0,-0.6911,0.0,0.0,0.0,-0.7114,-0.7034,-0.7559,-0.7383,-0.7286,-0.7638,0.0,-0.8175,-0.804,-0.8411,-0.8551,-0.8301,-0.8151,-0.7636,0.0,0.0,0.0,-0.4439,-0.4334,-0.4066,-0.3531,-0.3192,-0.2887,-0.2686,-0.2653,-0.269,-0.2799,-0.2564,-0.2743,-0.3362,-0.3912,-0.397,-0.3591,-0.4112,-0.4322,-0.4311,-0.4306,-0.47,-0.5359,-0.5517,-0.5914,-0.6457,-0.6795,-0.6819,-0.6836,-0.7644,-0.7573,-0.7181,-0.7509,-0.7233,-0.6804,-0.6953,-0.7005,-0.7048,-0.751,-0.7725,-0.7939,-0.8315,-0.8369,-0.836,-0.8369,-0.8513,-0.8703,-0.8903,-0.9132,-0.9322,-0.9549,-0.9686,-0.9763,-0.9705,-0.9786,-0.9892,-0.9989,-1.0142,-1.0491,-1.1028,-1.109,-1.1216,-1.156,-1.1591,-1.1747,-1.2058,-1.2521,-1.2858,-1.3042,-1.3817,-1.4207,-1.401,-1.4488,-1.5042,-1.5742,-1.5566,-1.5782,-1.6487,-1.6465,-1.6431,-1.6459,-1.6736,-1.7134,-0.5727,-0.5767,-0.5973,-0.5942,-0.5862,0.0,0.0,-0.6221,-0.641,-0.6471,-0.6555,0.0,0.0,0.0,-0.7332,-0.7487,-0.735,-0.7365,-0.7812,-0.8024,-0.8181,-0.8411,-0.8587,-0.8546,-0.8225,-0.7915,0.0,0.0,0.0,0.0,-0.4334,-0.3861,-0.3493,-0.3192,-0.2824,-0.2589,-0.2522,-0.2421,-0.2523,-0.2802,-0.2956,-0.3149,-0.3347,-0.3784,-0.3935,-0.3923,-0.4266,-0.4438,-0.4495,-0.4567,-0.4861,-0.5233,-0.5494,-0.5709,-0.5944,-0.642,-0.623,-0.587,-0.695,-0.6569,-0.5757,-0.6736,-0.6581,-0.6092,-0.6493,-0.6752,-0.695,-0.7324,-0.7771,-0.8199,-0.8198,-0.8203,-0.8255,-0.8369,-0.8437,-0.8589,-0.8941,-0.9065,-0.9208,-0.9549,-0.9696,-0.983,-0.992,-1.0043,-1.0159,-1.0254,-1.0432,-1.069,-1.1055,-1.1185,-1.1382,-1.1806,-1.1853,-1.1981,-1.2299,-1.2617,-1.2956,-1.3355,-1.397,-1.4375,-1.4549,-1.4915,-1.5487,-1.6215,-1.6216,-1.6314,-1.6497,-1.6664,-1.6701,-1.6545,-1.7019,-1.7289,-0.5453,-0.5406,-0.5522,-0.5788,0.0,0.0,-0.5906,-0.6176,-0.6445,-0.6381,-0.6612,0.0,-0.6999,0.0,0.0,0.0,-0.7474,-0.7541,-0.803,-0.8108,-0.8214,-0.8573,-0.8606,-0.8458,0.0,0.0,0.0,0.0,0.0,0.0,0.0,-0.3493,-0.3125,-0.2921,-0.2589,-0.2458,-0.2589,-0.2488,-0.2659,-0.3078,-0.3457,-0.3528,-0.3404,-0.3668,-0.3893,-0.4077,-0.4277,-0.4501,-0.4755,-0.4794,-0.5019,-0.5366,-0.5549,-0.5692,-0.5892,-0.6311,-0.6236,-0.6011,-0.6941,-0.6779,-0.6308,-0.7018,-0.679,-0.6243,-0.6448,-0.6505,-0.6613,-0.6935,-0.7513,-0.8078,-0.8106,-0.8244,-0.8408,-0.856,-0.856,-0.8627,-0.9094,-0.9132,-0.9208,-0.9625,-0.9824,-0.9952,-1.0092,-1.0325,-1.0543,-1.0531,-1.0761,-1.0989,-1.1209,-1.1294,-1.1539,-1.1949,-1.2098,-1.2255,-1.2485,-1.2821,-1.3203,-1.3574,-1.4212,-1.4723,-1.5088,-1.5339,-1.5858,-1.6613,-1.6574,-1.6578,-1.6702,-1.6789,-1.6752,-1.656,-1.6958,-1.7101,-0.5457,-0.549,-0.5642,-0.578,0.0,0.0,-0.616,-0.6091,-0.6282,-0.6882,-0.7275,-0.7484,-0.7503,0.0,0.0,-0.8105,-0.7936,-0.7845,-0.8229,-0.8314,-0.8317,-0.8382,-0.8393,0.0,0.0,0.0,0.0,0.0,0.0,0.0,0.0,-0.3293,-0.3058,-0.272,-0.2488,-0.2589,-0.2991,-0.2991,-0.3233,-0.3704,-0.3848,-0.3709,-0.3399,-0.353,-0.3685,-0.3789,-0.3961,-0.4422,-0.5087,-0.4894,-0.5245,-0.5893,-0.5693,-0.5935,-0.6433,-0.6576,-0.7014,-0.7626,-0.7899,-0.8714,-0.946,-0.8653,-0.8142,-0.7637,-0.6936,-0.6289,-0.5892,-0.6299,-0.6848,-0.7413,-0.7953,-0.8538,-0.898,-0.8989,-0.8865,-0.8856,-0.9473,-0.9435,-0.9435,-0.9814,-1.0067,-1.0178,-1.0115,-1.0611,-1.0991,-1.0924,-1.1196,-1.1431,-1.1497,-1.1521,-1.1652,-1.1978,-1.2302,-1.2492,-1.2492,-1.3117,-1.3535,-1.3584,-1.4543,-1.5227,-1.5504,-1.5633,-1.6095,-1.6888,-1.647,-1.6497,-1.7081,-1.6691,-1.6518,-1.6497,-1.6407,-1.6423,-0.5103,-0.5342,-0.5675,-0.5731,0.0,0.0,0.0,-0.6481,0.0,0.0,-0.7126,-0.7347,-0.7597,0.0,0.0,-0.803,-0.7841,-0.7798,-0.8121,-0.8148,-0.8212,0.0,0.0,0.0,0.0,0.0,0.0,0.0,0.0,0.0,0.0,-0.3025,-0.2723,-0.2488,-0.2354,-0.2421,-0.2787,-0.2921,-0.3199,-0.3635,-0.3923,-0.3954,-0.3744,-0.3779,-0.3822,-0.3823,-0.4228,-0.4595,-0.4933,-0.5542,-0.5926,-0.6095,-0.6101,-0.6223,-0.6478,-0.7027,-0.7194,-0.7258,-0.8353,-0.8346,-0.7985,-0.8462,-0.7958,-0.7086,-0.6722,-0.6499,-0.6386,-0.6509,-0.7077,-0.779,-0.8383,-0.871,-0.8927,-0.8987,-0.9056,-0.9208,-0.9549,-0.9549,-0.9625,-1.003,-1.0255,-1.0496,-1.075,-1.107,-1.1302,-1.1394,-1.1554,-1.1763,-1.1972,-1.1997,-1.2164,-1.2667,-1.2565,-1.2614,-1.2848,-1.3168,-1.3494,-1.3797,-1.4816,-1.5521,-1.5906,-1.6186,-1.667,-1.7456,-1.7341,-1.7254,-1.7317,-1.7303,-1.7005,-1.6497,-1.6625,-1.6576,-0.5004,-0.5224,0.0,-0.5708,-0.6036,-0.6365,-0.6501,0.0,0.0,0.0,-0.7169,-0.7478,-0.7966,-0.8032,0.0,-0.8207,-0.7949,-0.7778,-0.8013,-0.7957,-0.7975,0.0,0.0,0.0,0.0,0.0,0.0,0.0,0.0,0.0,0.0,-0.3025,-0.2824,-0.2656,-0.2757,-0.2921,-0.3121,-0.3389,-0.3696,-0.4046,-0.4176,-0.4273,-0.4257,-0.4078,-0.4066,-0.4191,-0.4612,-0.4894,-0.51,-0.5697,-0.6082,-0.6268,-0.6245,-0.6353,-0.6612,-0.7363,-0.7694,-0.7938,-0.8984,-0.9254,-0.9094,-0.9083,-0.8522,-0.7753,-0.6996,-0.6709,-0.6625,-0.6654,-0.7204,-0.7908,-0.8423,-0.8723,-0.8979,-0.9183,-0.9261,-0.9408,-0.9755,-0.9841,-0.9916,-1.0255,-1.0556,-1.0807,-1.1068,-1.1403,-1.1686,-1.1738,-1.1859,-1.2009,-1.2248,-1.2358,-1.2547,-1.2959,-1.302,-1.3064,-1.3184,-1.3549,-1.3866,-1.4175,-1.5083,-1.579,-1.6167,-1.6541,-1.6992,-1.7613,-1.7613,-1.76,-1.7517,-1.7573,-1.738,-1.6925,-1.684,-1.6714,-0.5054,-0.5129,-0.5218,-0.5661,-0.5855,0.0,-0.6569,-0.6709,-0.6824,-0.7147,0.0,-0.7731,-0.8428,-0.8267,-0.8154,-0.8557,-0.8102,-0.7801,0.0,0.0,0.0,0.0,0.0,0.0,0.0,0.0,0.0,0.0,0.0,0.0,0.0,-0.3192,-0.3125,-0.2991,-0.3522,-0.3823,-0.3889,-0.4156,-0.4472,-0.4776,-0.4604,-0.461,-0.4795,-0.44,-0.4421,-0.4763,-0.4977,-0.5226,-0.5458,-0.5598,-0.5959,-0.639,-0.6214,-0.6389,-0.6869,-0.7604,-0.8411,-0.92,-0.9792,-1.0832,-1.1638,-1.0132,-0.9522,-0.9098,-0.752,-0.6944,-0.6814,-0.6797,-0.731,-0.7957,-0.8381,-0.8765,-0.9182,-0.9564,-0.949,-0.9458,-1.0032,-1.0211,-1.0297,-1.0484,-1.0832,-1.1155,-1.118,-1.1626,-1.2009,-1.2009,-1.2064,-1.2189,-1.2402,-1.26,-1.2763,-1.3017,-1.343,-1.368,-1.3528,-1.4036,-1.4433,-1.4597,-1.5346,-1.5912,-1.6281,-1.67,-1.7081,-1.7461,-1.7495,-1.7564,-1.7716,-1.7664,-1.7612,-1.7585,-1.7102,-1.69,-0.4716,-0.507,0.0,-0.5472,-0.5778,-0.6188,-0.6591,-0.6814,-0.6971,-0.7178,-0.7372,-0.7672,-0.8263,-0.8294,-0.8331,-0.8623,-0.8255,0.0,0.0,0.0,0.0,0.0,0.0,0.0,0.0,0.0,0.0,0.0,0.0,0.0,-0.3062,-0.3159,-0.3125,-0.2991,-0.3522,-0.4056,-0.4583,-0.4384,-0.4631,0.0,-0.4862,-0.4692,-0.479,-0.4637,-0.4746,-0.4998,-0.4906,-0.5226,-0.5804,-0.5989,-0.6302,-0.664,-0.6533,-0.6821,-0.7425,-0.8052,-0.8722,-0.9436,-1.0299,-1.0751,-1.0876,-1.0263,-0.9718,-0.9067,-0.7796,-0.7469,-0.7557,-0.7554,-0.799,-0.863,-0.9572,-0.9714,-0.968,-0.9935,-0.9716,-0.9526,-0.9747,-1.0085,-1.0404,-1.0622,-1.1009,-1.1453,-1.1737,-1.1898,-1.2046,-1.2231,-1.2251,-1.2394,-1.2758,-1.2585,-1.2707,-1.3324,-1.3264,-1.3321,-1.3695,-1.4,-1.4274,-1.4561,-1.5204,-1.5736,-1.614,-1.663,-1.7012,-1.727,-1.7426,-1.7564,-1.7716,-1.7842,-1.7829,-1.7605,-1.762,-1.7549,-0.45,0.0,0.0,-0.535,0.0,-0.6087,-0.6476,-0.6944,-0.7289,-0.7335,-0.7566,-0.7918,-0.8398,-0.8456,-0.8483,-0.8668,0.0,0.0,0.0,0.0,0.0,0.0,0.0,0.0,0.0,0.0,0.0,0.0,0.0,-0.358,-0.3493,-0.356,-0.3627,-0.3761,-0.4456,-0.4888,-0.5087,-0.5219,-0.546,-0.5776,-0.53,-0.5027,-0.4882,-0.4909,-0.4839,-0.4682,-0.4691,-0.506,-0.5664,-0.5675,-0.6015,-0.6545,-0.6514,-0.6927,-0.7626,-0.8305,-0.914,-1.0053,-1.1046,-1.1427,-1.1363,-1.0809,-1.0151,-0.9347,-0.8097,-0.7786,-0.7899,-0.7935,-0.8472,-0.9215,-0.9937,-1.0077,-1.003,-1.0184,-1.002,-0.9776,-0.9846,-1.0196,-1.0574,-1.0803,-1.1263,-1.173,-1.2094,-1.2231,-1.2378,-1.2562,-1.2526,-1.2599,-1.2966,-1.2898,-1.2978,-1.3441,-1.3417,-1.346,-1.3622,-1.4036,-1.431,-1.4489,-1.5026,-1.5541,-1.5929,-1.6386,-1.6804,-1.7201,-1.7392,-1.7564,-1.7716,-1.7906,-1.7924,-1.7789,-1.7571,-1.7595,-0.4291,0.0,-0.4802,-0.5291,-0.5622,0.0,-0.63,-0.7066,-0.7644,-0.7592,-0.7922,-0.8276,-0.8553,-0.8563,-0.8573,-0.8643,0.0,0.0,0.0,0.0,0.0,0.0,0.0,0.0,0.0,0.0,0.0,0.0,0.0,-0.346,-0.3961,-0.4095,-0.4323,-0.4722,-0.5591,-0.5954,-0.5756,-0.6218,-0.6405,-0.6325,-0.5804,-0.5395,-0.507,-0.5145,-0.4874,-0.4373,-0.454,-0.4927,-0.5392,-0.5226,-0.5624,-0.6333,-0.6443,-0.6992,-0.7781,-0.8541,-0.9543,-1.0671,-1.1611,-1.212,-1.2194,-1.1477,-1.0704,-0.9832,-0.8573,-0.8181,-0.8185,-0.8327,-0.8986,-0.9753,-1.0231,-1.042,-1.0479,-1.0536,-1.044,-1.0276,-1.0077,-1.0329,-1.0691,-1.0989,-1.1556,-1.2096,-1.2301,-1.2526,-1.2709,-1.2856,-1.2746,-1.2783,-1.3163,-1.32,-1.3273,-1.3492,-1.3652,-1.3688,-1.3564,-1.4036,-1.4361,-1.4433,-1.4919,-1.5382,-1.577,-1.6105,-1.6542,-1.7132,-1.7392,-1.7564,-1.7716,-1.7906,-1.8008,-1.7988,-1.7434,-1.7552,-0.3949,0.0,-0.4734,0.0,-0.5446,-0.5629,0.0,0.0,-0.7879,0.0,-0.8337,-0.8519,-0.8254,-0.825,-0.8346,0.0,0.0,0.0,0.0,0.0,0.0,0.0,0.0,0.0,0.0,0.0,0.0,0.0,-0.3628,-0.3632,-0.3995,-0.4456,-0.4848,-0.5213,-0.6112,-0.6802,-0.7228,-0.6835,-0.6864,-0.7214,-0.6163,-0.5592,-0.5438,-0.5152,-0.5021,-0.4986,-0.4834,-0.5027,-0.5392,-0.5359,-0.5591,-0.6028,-0.6614,-0.7316,-0.8147,-0.8908,-0.9888,-1.0827,-1.1501,-1.2009,-1.2268,-1.1972,-1.1339,-1.0527,-0.9634,-0.9044,-0.8792,-0.9271,-0.9811,-1.0476,-1.1289,-1.1476,-1.1439,-1.1234,-1.1171,-1.0962,-1.0328,-1.0451,-1.0761,-1.1127,-1.1904,-1.2522,-1.2549,-1.2709,-1.2856,-1.2893,-1.2856,-1.2943,-1.3163,-1.32,-1.3273,-1.3492,-1.3528,-1.3601,-1.3761,-1.4,-1.4274,-1.4561,-1.4955,-1.5382,-1.577,-1.6,-1.6386,-1.6943,-1.7323,-1.7564,-1.7716,-1.7906,-1.8008,-1.8008,-1.7849,-1.8112,-0.387,-0.4417,-0.4887,0.0,-0.5392,-0.5541,-0.6093,0.0,-0.7303,-0.7529,-0.8107,-0.8496,-0.8459,-0.8291,-0.8196,0.0,0.0,0.0,0.0,0.0,0.0,0.0,0.0,0.0,0.0,0.0,0.0,0.0,-0.3789,-0.3828,-0.4595,-0.4915,-0.5312,-0.5774,-0.6671,-0.726,-0.7489,-0.7456,-0.7372,-0.7298,-0.6777,-0.6184,-0.5548,-0.5617,-0.5331,-0.4821,-0.4728,-0.4894,-0.5259,-0.5359,-0.5789,-0.6424,-0.7056,-0.7894,-0.8845,-0.9561,-1.0455,-1.1364,-1.1883,-1.2231,-1.2415,-1.1972,-1.129,-1.0551,-1.0087,-0.9589,-0.934,-1.009,-1.0585,-1.1062,-1.1721,-1.1774,-1.1712,-1.1707,-1.1588,-1.1372,-1.1057,-1.0818,-1.0843,-1.1369,-1.2189,-1.2783,-1.2783,-1.282,-1.2943,-1.3053,-1.298,-1.3003,-1.3346,-1.3382,-1.3382,-1.3492,-1.3492,-1.3564,-1.3797,-1.4,-1.4201,-1.4469,-1.4828,-1.5221,-1.5611,-1.5823,-1.6175,-1.6716,-1.7151,-1.7442,-1.7716,-1.8022,-1.8178,-1.8158,-1.7715,-1.8112,-0.3773,-0.4357,-0.4722,-0.5159,-0.5272,-0.5393,0.0,0.0,-0.6832,0.0,-0.771,-0.8322,-0.8513,-0.8272,0.0,0.0,0.0,0.0,0.0,0.0,0.0,0.0,0.0,0.0,0.0,0.0,0.0,0.0,-0.391,-0.4028,-0.5054,-0.5319,-0.5741,-0.6441,-0.726,-0.7717,-0.7814,-0.8019,-0.7889,-0.74,-0.7316,-0.6873,-0.6079,-0.615,-0.5764,-0.506,-0.4894,-0.496,-0.5253,-0.5491,-0.6076,-0.6921,-0.7601,-0.8551,-0.9597,-1.0133,-1.0949,-1.1824,-1.212,-1.2415,-1.2562,-1.1898,-1.129,-1.0743,-1.037,-1.0006,-0.9892,-1.0611,-1.1042,-1.1393,-1.1821,-1.1811,-1.175,-1.1898,-1.1803,-1.168,-1.1571,-1.127,-1.1141,-1.1641,-1.2315,-1.282,-1.282,-1.2856,-1.298,-1.3163,-1.309,-1.309,-1.3382,-1.3455,-1.3492,-1.3419,-1.3455,-1.3564,-1.3797,-1.4,-1.4201,-1.4397,-1.4756,-1.5114,-1.5417,-1.5718,-1.6105,-1.6612,-1.6925,-1.7304,-1.7647,-1.809,-1.8254,-1.8114,-1.7584,-1.7997,-0.3614,-0.3826,-0.4035,-0.4734,-0.4932,0.0,0.0,0.0,0.0,-0.6912,-0.7403,-0.7902,-0.8102,-0.7978,0.0,0.0,0.0,0.0,0.0,0.0,0.0,0.0,0.0,0.0,0.0,0.0,0.0,0.0,-0.4,-0.4156,-0.5054,-0.5591,-0.6251,-0.7138,-0.7814,-0.8333,-0.8743,-0.8549,-0.8279,-0.7954,-0.7638,-0.7466,-0.7391,-0.6704,-0.635,-0.6284,-0.5624,-0.5425,-0.5617,-0.5914,-0.6539,-0.7367,-0.8223,-0.9189,-1.0215,-1.0611,-1.1289,-1.2009,-1.2009,-1.2415,-1.2746,-1.1972,-1.1668,-1.1485,-1.0731,-1.0408,-1.0428,-1.073,-1.1042,-1.1357,-1.1636,-1.1713,-1.17,-1.1713,-1.1848,-1.1863,-1.15,-1.165,-1.1859,-1.1886,-1.2272,-1.2636,-1.2636,-1.2783,-1.298,-1.3163,-1.32,-1.32,-1.32,-1.3382,-1.3419,-1.3236,-1.3382,-1.3564,-1.3797,-1.4,-1.4201,-1.4397,-1.4883,-1.5204,-1.5204,-1.5771,-1.6228,-1.6594,-1.6804,-1.7116,-1.7495,-1.8042,-1.8061,-1.7625,-1.7664,-1.7771,-0.2967,-0.3372,0.0,-0.4326,-0.4621,-0.493,-0.5534,-0.6004,-0.6384,-0.6641,-0.7102,-0.7488,-0.768,-0.7556,0.0,0.0,0.0,0.0,0.0,0.0,0.0,0.0,0.0,0.0,0.0,0.0,0.0,0.0,0.0,-0.454,-0.5683,-0.5914,-0.6375,-0.7171,-0.7987,-0.8506,-0.8808,-0.8797,-0.8603,-0.8139,-0.7912,-0.7717,-0.7489,-0.7228,-0.6933,-0.6581,-0.635,-0.6145,-0.602,-0.653,-0.7162,-0.7933,-0.9044,-0.9946,-1.0671,-1.1314,-1.1844,-1.2231,-1.2489,-1.2893,-1.3127,-1.2046,-1.1968,-1.2108,-1.1303,-1.1168,-1.1324,-1.1644,-1.1853,-1.1952,-1.2057,-1.2083,-1.2083,-1.2083,-1.2157,-1.2128,-1.2001,-1.1956,-1.1946,-1.1904,-1.2177,-1.2415,-1.2415,-1.2562,-1.2783,-1.2966,-1.3003,-1.309,-1.3346,-1.3455,-1.3455,-1.3382,-1.3455,-1.3564,-1.3797,-1.387,-1.4,-1.4201,-1.4597,-1.4883,-1.501,-1.5453,-1.5894,-1.6263,-1.6309,-1.6674,-1.7364,-1.7777,-1.782,-1.7538,-1.7552,-1.7844,-0.2527,-0.2978,0.0,0.0,0.0,-0.47,-0.5437,0.0,-0.59,-0.6259,-0.6626,-0.7025,-0.7382,-0.7367,0.0,0.0,0.0,0.0,0.0,0.0,0.0,0.0,0.0,0.0,0.0,0.0,0.0,0.0,0.0,0.0,-0.5836,-0.6043,-0.6507,-0.7433,-0.8247,-0.87,-0.8808,-0.8926,-0.8765,-0.8301,-0.8214,-0.8084,-0.7912,-0.7749,-0.7456,-0.7129,-0.6835,-0.6638,-0.6589,-0.7144,-0.7908,-0.8806,-0.9875,-1.0707,-1.1349,-1.1894,-1.2268,-1.2526,-1.282,-1.3127,-1.32,-1.2083,-1.212,-1.2452,-1.1564,-1.1527,-1.1848,-1.2046,-1.2157,-1.2194,-1.212,-1.212,-1.212,-1.2194,-1.2194,-1.2231,-1.2305,-1.2194,-1.2104,-1.2051,-1.2171,-1.2305,-1.2305,-1.2415,-1.2599,-1.2856,-1.2966,-1.309,-1.3346,-1.3564,-1.3637,-1.3492,-1.3637,-1.3783,-1.3964,-1.4,-1.4072,-1.4274,-1.4597,-1.4848,-1.501,-1.5453,-1.5755,-1.5913,-1.6082,-1.6425,-1.6934,-1.7342,-1.7391,-1.7185,-1.745,-1.7975,0.0,0.0,0.0,0.0,0.0,0.0,-0.5359,0.0,-0.5628,-0.5803,-0.6086,-0.6533,-0.7179,-0.74,0.0,0.0,0.0,0.0,0.0,0.0,0.0,0.0,0.0,0.0,0.0,0.0,0.0,0.0,-0.4569,-0.4889,-0.5507,-0.5903,-0.6704,-0.7987,-0.8657,-0.8926,-0.8808,-0.8926,-0.8829,-0.8517,-0.8517,-0.8614,-0.8776,-0.8247,-0.8019,-0.7954,-0.7064,-0.6909,-0.7255,-0.7726,-0.8717,-0.9962,-1.0599,-1.1398,-1.2305,-1.2305,-1.2562,-1.2893,-1.2929,-1.3053,-1.3053,-1.2046,-1.212,-1.2415,-1.1416,-1.1527,-1.1972,-1.1787,-1.1861,-1.1972,-1.1787,-1.17,-1.1787,-1.1959,-1.2009,-1.2046,-1.2268,-1.2305,-1.2305,-1.2305,-1.2305,-1.2305,-1.2305,-1.2305,-1.2415,-1.282,-1.3053,-1.32,-1.32,-1.3731,-1.3949,-1.3564,-1.384,-1.4165,-1.4361,-1.4397,-1.4433,-1.4561,-1.4955,-1.5169,-1.5169,-1.5771,-1.5896,-1.553,-1.6189,-1.6434,-1.6192,-1.675,-1.6846,-1.6528,-1.7341,-1.8194,-0.1541,0.0,0.0,0.0,0.0,0.0,0.0,0.0,0.0,-0.618,-0.6467,-0.6669,-0.7032,-0.7429,0.0,0.0,0.0,0.0,0.0,0.0,0.0,0.0,0.0,0.0,0.0,0.0,0.0,0.0,-0.5131,-0.5289,-0.6264,-0.6805,-0.7489,-0.8344,-0.8765,-0.8926,-0.8808,-0.8926,-0.8829,-0.8517,-0.8646,-0.8679,-0.8582,-0.842,-0.8214,-0.7954,-0.7171,-0.712,-0.7601,-0.8117,-0.8967,-0.9985,-1.0864,-1.1673,-1.2342,-1.2452,-1.2783,-1.3127,-1.3273,-1.3455,-1.3419,-1.212,-1.2305,-1.2783,-1.1477,-1.1639,-1.2231,-1.2157,-1.2157,-1.2194,-1.2157,-1.212,-1.212,-1.2009,-1.2009,-1.2009,-1.2083,-1.2083,-1.212,-1.2268,-1.2194,-1.212,-1.2268,-1.2305,-1.2378,-1.2636,-1.2856,-1.309,-1.3382,-1.3564,-1.3746,-1.3912,-1.3891,-1.3964,-1.4165,-1.4036,-1.4036,-1.4238,-1.4489,-1.4669,-1.474,-1.5363,-1.5737,-1.5948,-1.5663,-1.5754,-1.6179,-1.6529,-1.6764,-1.6887,-1.7226,-1.8025,-0.1323,0.0,0.0,0.0,0.0,0.0,-0.4588,-0.5,0.0,0.0,-0.6324,-0.6739,-0.6853,0.0,0.0,0.0,0.0,0.0,0.0,0.0,0.0,0.0,0.0,0.0,0.0,-0.5089,-0.5067,-0.5561,-0.537,-0.5684,-0.6671,-0.7259,-0.7792,-0.829,-0.87,-0.8829,-0.8679,-0.8829,-0.8829,-0.8614,-0.8743,-0.8776,-0.87,-0.8582,-0.8279,-0.7857,-0.7253,-0.7194,-0.7523,-0.8089,-0.899,-1.0136,-1.1242,-1.2009,-1.2562,-1.2783,-1.3053,-1.3346,-1.3455,-1.3346,-1.3039,-1.2231,-1.2231,-1.2415,-1.1589,-1.1787,-1.2305,-1.2305,-1.2305,-1.2305,-1.2305,-1.2231,-1.2157,-1.2046,-1.1935,-1.1848,-1.1848,-1.1848,-1.1972,-1.2231,-1.2231,-1.2157,-1.2268,-1.2305,-1.2378,-1.2562,-1.282,-1.3127,-1.3346,-1.3601,-1.3855,-1.4057,-1.4109,-1.4181,-1.431,-1.4289,-1.4253,-1.431,-1.4561,-1.4776,-1.4848,-1.5363,-1.572,-1.5826,-1.5507,-1.5544,-1.5965,-1.5992,-1.6327,-1.6921,-1.702,-1.7662,-0.1473,-0.1762,0.0,0.0,0.0,0.0,-0.4565,-0.4954,-0.5116,0.0,0.0,-0.6638,-0.6654,0.0,0.0,0.0,0.0,0.0,0.0,0.0,0.0,0.0,0.0,0.0,-0.5309,-0.5109,-0.5131,-0.5309,-0.5631,-0.615,-0.6983,-0.7466,-0.7824,-0.8052,-0.8538,-0.8722,-0.8549,-0.8722,-0.8819,-0.8841,-0.8819,-0.8861,-0.8926,-0.8603,-0.8182,-0.7684,-0.7286,-0.7146,-0.7285,-0.7807,-0.8901,-1.0334,-1.1488,-1.2342,-1.2929,-1.3127,-1.3346,-1.3492,-1.3492,-1.298,-1.2305,-1.2268,-1.2009,-1.17,-1.1639,-1.1922,-1.2305,-1.2305,-1.2268,-1.2268,-1.2305,-1.2157,-1.2009,-1.1972,-1.1811,-1.1663,-1.1663,-1.1663,-1.1774,-1.2157,-1.2231,-1.2231,-1.2268,-1.2268,-1.2342,-1.2526,-1.2893,-1.3163,-1.32,-1.3659,-1.4021,-1.4129,-1.4382,-1.4613,-1.4649,-1.4792,-1.4828,-1.4649,-1.4991,-1.5204,-1.5204,-1.5576,-1.5721,-1.5582,-1.5663,-1.5682,-1.5586,-1.5474,-1.5878,-1.6779,-1.6899,-1.7356,-0.119,-0.1486,-0.179,-0.2639,0.0,0.0,-0.4008,-0.4411,-0.4826,0.0,-0.5861,-0.6189,-0.6413,0.0,0.0,0.0,0.0,0.0,0.0,0.0,0.0,0.0,0.0,0.0,-0.5734,-0.5425,-0.548,-0.6029,-0.6746,-0.7301,-0.7779,-0.7889,-0.8084,-0.8387,-0.8679,-0.8799,-0.883,-0.893,-0.8995,-0.9053,-0.8864,-0.8743,-0.8571,-0.8247,-0.7954,-0.7661,-0.6878,-0.6907,-0.7469,-0.7611,-0.8698,-1.0298,-1.1193,-1.2083,-1.2929,-1.3127,-1.3346,-1.3492,-1.3492,-1.298,-1.2268,-1.1935,-1.175,-1.1589,-1.1105,-1.1589,-1.2305,-1.2305,-1.2194,-1.212,-1.2268,-1.2157,-1.1972,-1.1787,-1.1589,-1.144,-1.144,-1.144,-1.1527,-1.1787,-1.1824,-1.1848,-1.2046,-1.2083,-1.212,-1.2342,-1.2562,-1.282,-1.3163,-1.3309,-1.3637,-1.4289,-1.4397,-1.4541,-1.4828,-1.4864,-1.4864,-1.4828,-1.5062,-1.5204,-1.5204,-1.5576,-1.586,-1.5983,-1.5906,-1.5697,-1.534,-1.6328,-1.6758,-1.6666,-1.7363,-1.7827,-0.0864,-0.1269,-0.1658,-0.2365,0.0,0.0,0.0,-0.402,-0.4436,-0.5064,-0.5444,-0.5727,-0.5967,0.0,0.0,0.0,0.0,0.0,0.0,0.0,0.0,0.0,0.0,0.0,-0.6148,-0.5936,-0.6027,-0.6465,-0.7193,-0.7658,-0.7854,-0.8019,-0.8214,-0.8484,-0.8506,-0.856,-0.8689,-0.8625,-0.8657,-0.8821,-0.8701,-0.8506,-0.8247,-0.8247,-0.7851,-0.7149,-0.6973,-0.7095,-0.7409,-0.7726,-0.8891,-1.0557,-1.1279,-1.2157,-1.309,-1.3273,-1.3419,-1.3455,-1.3039,-1.2452,-1.1774,-1.1378,-1.118,-1.108,-1.0968,-1.1453,-1.2046,-1.2231,-1.2157,-1.2009,-1.212,-1.2083,-1.1935,-1.1639,-1.149,-1.1366,-1.1254,-1.1254,-1.1292,-1.1378,-1.1403,-1.149,-1.1787,-1.1922,-1.2009,-1.2009,-1.2342,-1.2599,-1.2599,-1.2856,-1.3165,-1.3508,-1.3813,-1.4061,-1.4379,-1.4641,-1.4711,-1.452,-1.5122,-1.5315,-1.4957,-1.558,-1.5913,-1.5791,-1.5647,-1.5433,-1.5186,-1.5868,-1.6156,-1.6173,-1.7209,-1.7658,0.0,0.0,0.0,0.0,0.0,-0.2692,0.0,0.0,0.0,-0.4483,0.0,0.0,0.0,0.0,0.0,0.0,0.0,0.0,0.0,0.0,0.0,0.0,0.0,0.0,-0.6604,-0.6737,-0.6899,-0.7001,-0.7589,-0.799,-0.8007,-0.8107,-0.8269,-0.8484,-0.8301,-0.8322,-0.8581,-0.8398,-0.8398,-0.8581,-0.8483,-0.832,-0.8048,-0.8263,-0.7822,-0.6873,-0.718,-0.7416,-0.7595,-0.7961,-0.9243,-1.0956,-1.1477,-1.2342,-1.3273,-1.3346,-1.3419,-1.3309,-1.2489,-1.1787,-1.1229,-1.0919,-1.0706,-1.0631,-1.108,-1.1403,-1.175,-1.212,-1.212,-1.1972,-1.2046,-1.2009,-1.1861,-1.1552,-1.144,-1.1329,-1.1155,-1.1105,-1.1105,-1.1105,-1.1105,-1.1229,-1.1626,-1.1787,-1.1848,-1.1824,-1.2157,-1.2342,-1.2083,-1.2526,-1.2845,-1.2806,-1.3234,-1.3673,-1.3995,-1.4449,-1.4571,-1.4308,-1.5196,-1.5459,-1.4761,-1.5514,-1.5809,-1.5549,-1.54,-1.5239,-1.5127,-1.5265,-1.5434,-1.5682,-1.68,-1.7167,0.0,0.0,0.0,0.0,-0.1706,0.0,0.0,0.0,-0.3522,-0.4065,0.0,0.0,0.0,0.0,0.0,0.0,0.0,0.0,0.0,0.0,0.0,0.0,0.0,0.0,0.0,-0.8002,-0.8387,-0.806,-0.8587,-0.9009,-0.913,-0.8441,-0.8182,-0.8484,-0.8301,-0.8406,-0.8852,-0.8777,-0.8777,-0.8863,-0.8493,-0.8314,-0.8246,-0.7998,-0.7859,-0.7802,-0.7266,-0.7598,-0.8437,-0.825,-0.9424,-1.1366,-1.1589,-1.2415,-1.3419,-1.309,-1.309,-1.309,-1.212,-1.1366,-1.0856,-1.0818,-1.0781,-1.0856,-1.144,-1.1552,-1.1515,-1.1935,-1.1898,-1.1824,-1.2157,-1.2009,-1.17,-1.1676,-1.1527,-1.1329,-1.1155,-1.1105,-1.1105,-1.1105,-1.1105,-1.1229,-1.1626,-1.1552,-1.1626,-1.2157,-1.2009,-1.1898,-1.2231,-1.2489,-1.2769,-1.3106,-1.3509,-1.3991,-1.4482,-1.463,-1.4825,-1.5051,-1.5365,-1.5337,-1.4916,-1.5155,-1.5463,-1.5772,-1.5703,-1.5484,-1.5192,-1.5689,-1.5749,-1.5459,-1.6307,-1.67,0.0,0.0,0.0,0.0,0.0,0.0,-0.1859,0.0,-0.3002,0.0,0.0,0.0,0.0,0.0,0.0,0.0,-0.6293,0.0,0.0,0.0,0.0,0.0,0.0,0.0,0.0,0.0,0.0,0.0,-0.9037,-0.9158,-0.885,-0.8603,-0.8376,-0.8214,-0.8019,-0.806,-0.8393,-0.8358,-0.8292,-0.8195,-0.8142,-0.7962,-0.7664,-0.7703,-0.7612,-0.7359,-0.7386,-0.7819,-0.8512,-0.873,-0.9907,-1.1639,-1.2046,-1.282,-1.3637,-1.3346,-1.309,-1.2709,-1.17,-1.1117,-1.0781,-1.0669,-1.0781,-1.1043,-1.1292,-1.1366,-1.1477,-1.1898,-1.1935,-1.1898,-1.2083,-1.2083,-1.1972,-1.1589,-1.1552,-1.1477,-1.1192,-1.1105,-1.1105,-1.1105,-1.1105,-1.118,-1.1477,-1.144,-1.1477,-1.175,-1.1824,-1.1898,-1.1972,-1.2231,-1.2458,-1.2533,-1.3047,-1.3509,-1.3979,-1.4429,-1.4708,-1.4716,-1.4812,-1.4985,-1.524,-1.5104,-1.512,-1.5273,-1.5257,-1.5239,-1.5217,-1.4992,-1.4917,-1.4976,-1.5886,-1.6287,0.0349,0.0,0.0,0.0,0.0,0.0,0.0,0.0,0.0,0.0,0.0,0.0,0.0,0.0,0.0,0.0,0.0,-0.6554,0.0,0.0,0.0,0.0,0.0,0.0,0.0,0.0,0.0,0.0,0.0,-0.9356,-0.8935,-0.8732,-0.8474,-0.8149,-0.7857,-0.7821,-0.8078,-0.7979,-0.7846,-0.7725,-0.775,-0.7594,-0.722,-0.7496,-0.7422,-0.7155,-0.755,-0.8152,-0.8841,-0.9317,-1.0492,-1.2009,-1.2599,-1.309,-1.3455,-1.32,-1.2783,-1.2194,-1.108,-1.0669,-1.0631,-1.0594,-1.0807,-1.1105,-1.1105,-1.1217,-1.144,-1.1737,-1.1898,-1.1922,-1.2009,-1.212,-1.212,-1.1663,-1.1626,-1.1589,-1.1267,-1.1155,-1.1105,-1.1105,-1.1105,-1.1143,-1.1304,-1.1366,-1.1453,-1.1552,-1.1811,-1.1972,-1.1898,-1.2231,-1.2444,-1.2334,-1.2806,-1.3299,-1.3706,-1.4292,-1.4573,-1.4539,-1.4446,-1.4609,-1.5086,-1.4832,-1.4681,-1.468,-1.4849,-1.4951,-1.5069,-1.4521,-1.434,-1.455,-1.524,-1.5633,0.0,0.0,0.0,0.0217,0.0,0.0,0.0,0.0,-0.2273,0.0,0.0,0.0,0.0,0.0,0.0,0.0,0.0,0.0,0.0,0.0,0.0,0.0,0.0,0.0,0.0,0.0,0.0,0.0,-0.991,0.0,-0.997,-0.885,-0.8301,-0.8484,-0.7954,-0.79,-0.8287,-0.791,-0.7745,-0.7802,-0.7403,-0.7266,-0.73,-0.7311,-0.7478,-0.7777,-0.7768,-0.8579,-0.9846,-1.0008,-1.1049,-1.2636,-1.3236,-1.3127,-1.2599,-1.2194,-1.1898,-1.1527,-1.0143,-0.9879,-1.0293,-1.0669,-1.0931,-1.1105,-1.1105,-1.1217,-1.1403,-1.1403,-1.1564,-1.1737,-1.1972,-1.2009,-1.2009,-1.2009,-1.1848,-1.1626,-1.1453,-1.1217,-1.1105,-1.1105,-1.1105,-1.1105,-1.1117,-1.1254,-1.1527,-1.1935,-1.2009,-1.2083,-1.2268,-1.2636,-1.2893,-1.2879,-1.322,-1.3656,-1.4047,-1.428,-1.4573,-1.4848,-1.4521,-1.4249,-1.4164,-1.4123,-1.4138,-1.4131,-1.4698,-1.4917,-1.4709,-1.4675,-1.4534,-1.4313,-1.4266,-1.4606,0.0,0.0,0.0213,0.03,0.0,0.0,0.0,0.0,0.0,0.0,0.0,0.0,0.0,0.0,0.0,0.0,0.0,0.0,0.0,0.0,0.0,0.0,0.0,0.0,0.0,0.0,0.0,0.0,-1.0123,0.0,0.0,-0.9491,-0.9043,-0.8528,-0.836,-0.8115,-0.7787,-0.7775,-0.7569,-0.7198,-0.7251,-0.7078,-0.6714,-0.6932,-0.7257,-0.7603,-0.7834,-0.8638,-0.9869,-1.0182,-1.1062,-1.2268,-1.3003,-1.2856,-1.2231,-1.2489,-1.1972,-1.1043,-1.0406,-1.0293,-1.0481,-1.0856,-1.1031,-1.1105,-1.1105,-1.1217,-1.1403,-1.1403,-1.1552,-1.1774,-1.212,-1.212,-1.2046,-1.2157,-1.1935,-1.1626,-1.1453,-1.1217,-1.1105,-1.1105,-1.1105,-1.1105,-1.1105,-1.1378,-1.1626,-1.1774,-1.2046,-1.2268,-1.2489,-1.2709,-1.2929,-1.309,-1.3461,-1.3807,-1.4093,-1.4401,-1.4645,-1.4781,-1.448,-1.4208,-1.3993,-1.3939,-1.3795,-1.3575,-1.4131,-1.4313,-1.4164,-1.416,-1.4134,-1.403,-1.3821,-1.4261,0.0381,0.0416,0.0,0.0487,0.0406,0.0,0.0214,0.0,0.0,0.0,0.0,0.0,0.0,0.0,0.0,0.0,0.0,0.0,0.0,-0.688,0.0,0.0,0.0,0.0,0.0,0.0,-0.9891,-1.009,-1.0462,0.0,0.0,0.0,-0.9462,-0.8712,-0.8374,-0.7986,-0.751,-0.7354,-0.7147,-0.6821,-0.6871,-0.6669,-0.6226,-0.6705,-0.71,-0.747,-0.7976,-0.886,-0.9972,-1.036,-1.115,-1.2157,-1.2452,-1.2157,-1.1663,-1.2402,-1.1811,-1.0594,-1.0519,-1.0556,-1.0669,-1.1005,-1.1143,-1.118,-1.1105,-1.1217,-1.1403,-1.1292,-1.1477,-1.175,-1.1922,-1.2157,-1.2268,-1.212,-1.2009,-1.1824,-1.149,-1.1217,-1.1105,-1.1105,-1.1105,-1.1105,-1.118,-1.1477,-1.17,-1.1787,-1.2231,-1.2599,-1.2783,-1.3053,-1.3236,-1.3309,-1.3746,-1.4063,-1.421,-1.4201,-1.4264,-1.4454,-1.4205,-1.395,-1.3763,-1.367,-1.3545,-1.3357,-1.3687,-1.3966,-1.4161,-1.3926,-1.3872,-1.403,-1.373,-1.4201]},{"header":{"parameterUnit":"m.s-1","parameterCategory":1,"la1":30.6,"la2":29.2853,"lo1":-89.7004,"lo2":-87.6739,"dy":0.0162,"dx":0.0183,"nx":112,"ny":82,"refTime":"2026-05-24T00:00:00:Z","depth":0,"parameterNumber":3,"parameterNumberName":"V-component_of_WINDS"},"data":[0.0,0.0,0.0,0.0,0.0,0.0,0.0,0.0,0.0,0.0,0.0,0.0,0.0,0.0,0.0,0.0,0.0,0.0,0.0,0.0,0.0,0.0,0.0,0.0,0.0,0.0,0.0,0.0,0.0,0.0,0.0,0.0,0.0,0.0,0.0,0.0,0.0,0.0,0.0,0.0,0.0,0.0,0.0,0.0,0.0,0.0,0.0,0.0,0.0,0.0,0.0,0.0,0.0,0.0,0.0,0.0,0.0,0.0,0.0,0.0,0.0,0.0,0.0,0.0,0.0,0.0,0.0,0.0,0.0,0.0,0.0,0.0,0.0,0.0,0.0,0.0,0.0,0.0,0.0,0.0,0.0,0.0,0.0,0.0,0.0,0.0,0.0,0.0,0.0,0.0,2.2584,2.4541,2.7561,2.9414,2.9373,2.9491,2.8266,2.5287,0.0,0.0,0.0,0.0,0.0,0.0,0.0,0.0,0.0,0.0,0.0,0.0,0.0,0.0,0.0,0.0,0.0,0.0,0.0,0.0,0.0,0.0,0.0,0.0,0.0,0.0,0.0,0.0,0.0,0.0,0.0,0.0,0.0,0.0,0.0,0.0,0.0,0.0,0.0,0.0,0.0,0.0,0.0,0.0,0.0,0.0,0.0,0.0,0.0,0.0,0.0,0.0,0.0,0.0,0.0,0.0,0.0,0.0,0.0,0.0,0.0,0.0,0.0,0.0,0.0,0.0,0.0,0.0,0.0,0.0,0.0,0.0,0.0,0.0,0.0,0.0,0.0,0.0,0.0,0.0,0.0,0.0,0.0,0.0,0.0,0.0,0.0,0.0,0.0,0.0,0.0,0.0,0.0,0.0,0.0,0.0,0.0,0.0,0.0,0.0,0.0,0.0,0.0,0.0,2.4019,2.8033,2.8936,2.9275,2.9322,2.9343,2.7867,2.4408,0.0,0.0,0.0,0.0,0.0,0.0,0.0,0.0,0.0,0.0,0.0,0.0,0.0,0.0,0.0,0.0,0.0,0.0,0.0,0.0,0.0,0.0,0.0,0.0,0.0,0.0,0.0,0.0,0.0,0.0,0.0,0.0,0.0,0.0,0.0,0.0,0.0,0.0,0.0,0.0,0.0,0.0,0.0,0.0,0.0,0.0,0.0,0.0,0.0,0.0,0.0,0.0,0.0,0.0,0.0,0.0,0.0,0.0,0.0,0.0,0.0,0.0,0.0,0.0,0.0,0.0,0.0,0.0,0.0,0.0,0.0,0.0,0.0,0.0,0.0,0.0,0.0,0.0,0.0,0.0,0.0,0.0,0.0,0.0,0.0,0.0,0.0,0.0,0.0,0.0,0.0,0.0,0.0,0.0,0.0,0.0,0.0,0.0,0.0,0.0,0.0,0.0,0.0,2.3327,2.6591,2.9536,3.0272,3.0402,2.9959,2.9933,2.8562,2.5356,2.3971,0.0,0.0,0.0,0.0,0.0,0.0,0.0,0.0,0.0,0.0,0.0,0.0,0.0,0.0,0.0,0.0,0.0,0.0,0.0,0.0,0.0,0.0,0.0,0.0,0.0,0.0,0.0,0.0,0.0,0.0,0.0,0.0,0.0,0.0,0.0,0.0,0.0,0.0,0.0,0.0,0.0,0.0,0.0,0.0,0.0,0.0,0.0,0.0,0.0,0.0,0.0,0.0,0.0,0.0,0.0,0.0,0.0,0.0,0.0,0.0,0.0,0.0,0.0,0.0,0.0,0.0,0.0,0.0,0.0,0.0,0.0,0.0,0.0,0.0,0.0,0.0,0.0,0.0,0.0,0.0,0.0,0.0,0.0,0.0,0.0,0.0,0.0,0.0,0.0,0.0,0.0,0.0,0.0,0.0,0.0,0.0,0.0,0.0,0.0,0.0,0.0,0.0,2.615,2.8524,3.0155,3.11,3.1369,3.0783,3.0331,2.8872,2.6035,2.4173,0.0,0.0,0.0,0.0,0.0,0.0,0.0,0.0,0.0,0.0,0.0,0.0,0.0,0.0,0.0,0.0,0.0,0.0,0.0,0.0,0.0,0.0,0.0,0.0,0.0,0.0,0.0,0.0,0.0,0.0,0.0,0.0,0.0,0.0,0.0,0.0,0.0,0.0,0.0,0.0,0.0,0.0,0.0,0.0,0.0,0.0,0.0,0.0,0.0,0.0,0.0,0.0,0.0,0.0,0.0,0.0,0.0,0.0,0.0,0.0,0.0,0.0,0.0,0.0,0.0,0.0,0.0,0.0,0.0,0.0,0.0,0.0,0.0,0.0,0.0,0.0,0.0,0.0,0.0,0.0,0.0,0.0,0.0,0.0,0.0,0.0,0.0,0.0,0.0,0.0,0.0,0.0,0.0,0.0,0.0,0.0,0.0,0.0,0.0,0.0,0.0,0.0,2.5869,2.8603,3.0201,3.0931,3.1359,3.1397,2.982,2.773,2.5234,2.2674,0.0,0.0,0.0,0.0,0.0,0.0,0.0,0.0,0.0,0.0,0.0,0.0,0.0,0.0,0.0,0.0,0.0,0.0,0.0,0.0,0.0,0.0,0.0,0.0,0.0,0.0,0.0,0.0,0.0,0.0,0.0,0.0,0.0,0.0,0.0,0.0,0.0,0.0,0.0,0.0,0.0,0.0,0.0,0.0,0.0,0.0,0.0,0.0,0.0,0.0,0.0,0.0,0.0,0.0,0.0,0.0,0.0,0.0,0.0,0.0,0.0,0.0,0.0,0.0,0.0,0.0,0.0,0.0,0.0,0.0,0.0,0.0,0.0,0.0,0.0,0.0,0.0,0.0,0.0,0.0,0.0,0.0,0.0,0.0,0.0,0.0,0.0,0.0,0.0,0.0,0.0,0.0,0.0,0.0,0.0,0.0,0.0,0.0,0.0,0.0,0.0,0.0,2.7579,3.0539,0.0,3.208,3.2627,3.2228,3.1051,2.8905,2.564,0.0,0.0,0.0,0.0,0.0,0.0,0.0,0.0,0.0,0.0,0.0,0.0,0.0,0.0,0.0,0.0,0.0,0.0,0.0,0.0,0.0,0.0,0.0,0.0,0.0,0.0,0.0,0.0,0.0,0.0,0.0,0.0,0.0,0.0,0.0,0.0,0.0,0.0,0.0,0.0,0.0,0.0,0.0,0.0,0.0,0.0,0.0,0.0,0.0,0.0,0.0,0.0,0.0,0.0,0.0,0.0,0.0,0.0,0.0,0.0,0.0,0.0,0.0,0.0,0.0,0.0,0.0,0.0,0.0,0.0,0.0,0.0,0.0,0.0,0.0,0.0,0.0,0.0,0.0,0.0,0.0,0.0,0.0,0.0,0.0,0.0,0.0,0.0,0.0,0.0,0.0,0.0,0.0,0.0,0.0,0.0,0.0,0.0,0.0,0.0,0.0,0.0,2.3968,2.8371,3.1402,0.0,3.2541,3.3209,3.2903,3.1608,2.9369,2.6019,0.0,0.0,0.0,0.0,0.0,0.0,0.0,0.0,0.0,0.0,0.0,0.0,0.0,0.0,0.0,0.0,0.0,0.0,0.0,0.0,0.0,0.0,0.0,0.0,0.0,0.0,0.0,0.0,0.0,0.0,0.0,0.0,0.0,0.0,0.0,0.0,0.0,0.0,0.0,0.0,0.0,0.0,0.0,0.0,0.0,0.0,0.0,0.0,0.0,0.0,0.0,0.0,0.0,0.0,0.0,0.0,0.0,0.0,0.0,0.0,0.0,0.0,0.0,0.0,0.0,0.0,0.0,0.0,0.0,0.0,0.0,0.0,0.0,0.0,0.0,0.0,0.0,0.0,0.0,0.0,0.0,0.0,0.0,0.0,0.0,0.0,0.0,0.0,0.0,0.0,0.0,0.0,0.0,0.0,0.0,0.0,0.0,0.0,0.0,0.0,0.0,0.0,2.3904,2.7921,3.0795,3.1259,3.2025,3.2776,3.3451,3.1238,2.8744,0.0,0.0,0.0,0.0,0.0,0.0,0.0,0.0,0.0,0.0,0.0,0.0,0.0,0.0,0.0,0.0,0.0,0.0,0.0,0.0,0.0,0.0,0.0,0.0,0.0,0.0,0.0,0.0,0.0,0.0,0.0,0.0,0.0,0.0,0.0,0.0,0.0,0.0,0.0,0.0,0.0,0.0,0.0,0.0,0.0,0.0,0.0,0.0,0.0,0.0,0.0,0.0,0.0,0.0,0.0,0.0,0.0,0.0,0.0,0.0,0.0,0.0,0.0,0.0,0.0,0.0,0.0,0.0,0.0,0.0,0.0,0.0,0.0,0.0,0.0,0.0,0.0,0.0,0.0,0.0,0.0,0.0,0.0,0.0,0.0,0.0,0.0,0.0,0.0,0.0,0.0,0.0,0.0,0.0,0.0,0.0,0.0,0.0,0.0,0.0,0.0,0.0,0.0,2.4049,2.8235,3.1164,3.1219,3.2374,3.2958,3.2603,3.1401,2.9626,2.7247,0.0,0.0,0.0,0.0,0.0,0.0,0.0,0.0,0.0,0.0,0.0,0.0,0.0,0.0,0.0,0.0,0.0,0.0,0.0,0.0,0.0,0.0,0.0,0.0,0.0,0.0,0.0,0.0,0.0,0.0,0.0,0.0,0.0,0.0,0.0,0.0,0.0,0.0,0.0,0.0,0.0,0.0,0.0,0.0,0.0,0.0,0.0,0.0,0.0,0.0,0.0,0.0,0.0,0.0,0.0,0.0,0.0,0.0,0.0,0.0,0.0,0.0,0.0,0.0,0.0,0.0,0.0,0.0,0.0,0.0,0.0,0.0,0.0,0.0,0.0,0.0,0.0,0.0,0.0,0.0,0.0,0.0,0.0,0.0,0.0,0.0,0.0,0.0,0.0,0.0,0.0,0.0,0.0,0.0,0.0,0.0,0.0,0.0,0.0,0.0,0.0,0.0,2.3989,2.8038,3.0941,3.1141,3.2154,3.2741,3.2567,3.1598,3.0133,2.8058,0.0,0.0,0.0,0.0,0.0,0.0,0.0,0.0,0.0,0.0,0.0,0.0,0.0,0.0,0.0,0.0,0.0,0.0,0.0,0.0,0.0,0.0,0.0,0.0,0.0,0.0,0.0,0.0,0.0,0.0,0.0,0.0,0.0,0.0,0.0,0.0,0.0,0.0,0.0,0.0,0.0,0.0,0.0,0.0,0.0,0.0,0.0,0.0,0.0,0.0,0.0,0.0,0.0,0.0,0.0,0.0,0.0,0.0,0.0,0.0,0.0,0.0,0.0,0.0,0.0,0.0,0.0,0.0,0.0,0.0,0.0,0.0,0.0,0.0,0.0,0.0,0.0,0.0,0.0,0.0,0.0,0.0,0.0,0.0,0.0,0.0,0.0,0.0,0.0,0.0,0.0,0.0,0.0,0.0,0.0,0.0,0.0,0.0,0.0,0.0,0.0,0.0,2.3873,2.7556,3.0354,3.1025,3.162,3.2262,3.2921,3.1802,3.0405,2.8817,0.0,0.0,0.0,0.0,0.0,0.0,0.0,0.0,0.0,0.0,0.0,0.0,0.0,0.0,0.0,0.0,0.0,0.0,0.0,0.0,0.0,0.0,0.0,0.0,0.0,0.0,0.0,0.0,0.0,0.0,0.0,0.0,0.0,0.0,0.0,0.0,0.0,0.0,0.0,0.0,0.0,0.0,0.0,0.0,0.0,0.0,0.0,0.0,0.0,0.0,0.0,0.0,0.0,0.0,0.0,0.0,0.0,0.0,0.0,0.0,2.2765,0.0,0.0,0.0,0.0,0.0,0.0,0.0,0.0,0.0,0.0,0.0,0.0,0.0,0.0,0.0,0.0,0.0,0.0,0.0,0.0,0.0,0.0,0.0,0.0,0.0,0.0,0.0,0.0,0.0,0.0,0.0,0.0,0.0,0.0,0.0,0.0,0.0,0.0,0.0,0.0,0.0,2.3821,2.7416,3.0189,3.0875,3.1433,3.1882,3.2203,3.1826,3.0988,2.9715,2.7937,0.0,0.0,0.0,0.0,0.0,0.0,0.0,0.0,0.0,0.0,0.0,0.0,0.0,0.0,0.0,0.0,0.0,0.0,0.0,0.0,0.0,0.0,0.0,0.0,0.0,0.0,0.0,0.0,0.0,0.0,0.0,0.0,0.0,0.0,0.0,0.0,0.0,0.0,0.0,0.0,0.0,0.0,0.0,0.0,0.0,0.0,0.0,0.0,0.0,0.0,0.0,0.0,0.0,0.0,0.0,0.0,0.0,0.0,0.0,0.0,2.4388,0.0,0.0,0.0,0.0,0.0,0.0,0.0,0.0,0.0,0.0,0.0,0.0,0.0,0.0,0.0,0.0,0.0,0.0,0.0,0.0,0.0,0.0,0.0,0.0,0.0,0.0,0.0,0.0,0.0,0.0,0.0,0.0,0.0,0.0,0.0,0.0,0.0,0.0,0.0,0.0,2.3795,2.7719,3.0585,3.0912,3.1763,3.2337,3.2419,3.2,3.1503,3.0884,2.9445,0.0,0.0,0.0,0.0,0.0,0.0,0.0,0.0,0.0,0.0,0.0,0.0,0.0,0.0,0.0,0.0,0.0,0.0,0.0,0.0,0.0,0.0,0.0,0.0,0.0,0.0,0.0,0.0,0.0,0.0,0.0,0.0,0.0,0.0,0.0,0.0,0.0,0.0,0.0,0.0,0.0,0.0,0.0,0.0,0.0,0.0,0.0,0.0,0.0,0.0,0.0,0.0,0.0,2.8936,2.9261,2.9369,2.9407,2.9042,2.8362,2.7705,2.7228,2.668,2.5009,0.0,0.0,0.0,0.0,0.0,0.0,0.0,0.0,0.0,0.0,0.0,0.0,0.0,0.0,0.0,0.0,0.0,0.0,0.0,0.0,0.0,0.0,0.0,0.0,2.4082,2.3982,0.0,0.0,0.0,0.0,0.0,0.0,0.0,0.0,0.0,0.0,0.0,0.0,2.4003,2.8094,3.0853,3.0767,3.1987,3.2782,3.2699,3.225,3.1918,3.175,3.0695,2.9415,0.0,0.0,0.0,0.0,0.0,0.0,0.0,0.0,0.0,0.0,0.0,0.0,0.0,0.0,0.0,0.0,0.0,0.0,0.0,0.0,0.0,0.0,0.0,0.0,0.0,0.0,0.0,0.0,0.0,0.0,0.0,0.0,2.2396,2.3922,0.0,0.0,0.0,0.0,0.0,0.0,0.0,0.0,0.0,0.0,0.0,0.0,0.0,2.7762,2.8396,2.9397,2.9908,2.9908,3.0049,3.0145,3.0158,3.0157,3.0118,2.9985,2.999,0.0,2.759,2.594,0.0,0.0,0.0,0.0,0.0,0.0,0.0,0.0,0.0,0.0,0.0,0.0,0.0,0.0,0.0,0.0,0.0,0.0,0.0,0.0,0.0,0.0,2.4124,2.5106,2.5407,2.5351,0.0,2.4302,2.397,2.4613,2.2991,0.0,0.0,0.0,0.0,0.0,0.0,0.0,2.4855,2.7972,3.0044,2.9814,3.1081,3.1954,3.1954,3.2429,3.2261,3.1117,3.08,3.0012,2.8529,2.8761,0.0,0.0,0.0,0.0,0.0,0.0,0.0,0.0,0.0,0.0,0.0,0.0,0.0,0.0,0.0,0.0,0.0,0.0,0.0,0.0,0.0,0.0,0.0,0.0,0.0,0.0,0.0,0.0,0.0,2.2241,2.3065,2.4716,2.418,2.3828,0.0,0.0,0.0,0.0,0.0,0.0,0.0,0.0,0.0,2.8401,2.852,2.8904,2.9673,3.0126,3.0299,3.0188,3.0246,3.0253,3.026,3.0299,3.0324,3.0349,3.0447,2.9996,2.9033,2.7907,2.7423,2.7187,0.0,0.0,0.0,0.0,2.1941,2.2031,2.2539,2.3002,0.0,2.342,0.0,0.0,0.0,0.0,0.0,0.0,0.0,0.0,0.0,0.0,2.5278,2.6114,2.6295,2.6507,2.7429,2.6583,2.5592,0.0,2.5262,2.4835,2.3973,0.0,0.0,0.0,0.0,2.5652,2.5926,2.876,3.068,3.0469,3.1369,3.2131,3.2455,3.1913,3.1684,3.1959,3.0633,2.9819,2.9714,2.8995,2.7743,0.0,0.0,0.0,0.0,0.0,0.0,0.0,0.0,0.0,0.0,0.0,0.0,0.0,0.0,0.0,0.0,0.0,0.0,0.0,0.0,0.0,0.0,0.0,0.0,0.0,0.0,0.0,0.0,2.3384,2.4225,2.5878,2.5526,2.5205,0.0,0.0,0.0,0.0,0.0,0.0,2.7516,2.8142,2.8807,2.9326,2.9376,2.9684,3.0292,3.0491,3.049,3.0219,3.0418,3.0411,3.0168,3.0273,3.0318,3.0343,3.0425,3.034,3.008,2.9358,2.8939,2.8582,2.6462,2.5223,2.4591,2.4225,2.4096,2.4219,2.5117,2.5699,2.6042,2.6046,2.5426,2.4726,2.4724,0.0,0.0,0.0,0.0,2.3798,2.3994,2.5148,2.6407,2.6951,2.709,2.7457,2.8629,2.8052,2.7146,0.0,2.7002,2.7132,2.5968,0.0,0.0,0.0,0.0,2.6797,2.6927,2.9342,3.0963,3.0807,3.159,3.2292,3.2701,3.1765,3.1515,3.2401,3.071,2.991,3.0431,2.9261,2.8131,2.7127,0.0,0.0,0.0,0.0,0.0,0.0,0.0,0.0,0.0,0.0,0.0,0.0,0.0,0.0,0.0,0.0,0.0,0.0,0.0,0.0,0.0,0.0,0.0,0.0,0.0,0.0,0.0,0.0,0.0,2.7745,2.7829,0.0,0.0,0.0,0.0,2.8888,2.9075,2.9429,3.0155,3.0238,3.0304,3.034,3.0278,3.0253,3.0292,3.1064,3.103,3.0192,3.103,3.097,3.0097,3.0241,3.0254,3.0206,3.0336,3.0367,3.0227,2.9473,2.8577,2.7599,2.6905,2.6191,2.5656,2.6489,2.6788,2.6914,2.781,2.7572,2.6945,2.6947,2.6325,2.5624,2.5625,2.4998,0.0,0.0,2.5451,2.5644,2.6437,2.7294,2.7958,2.7961,2.7939,2.7958,2.8024,2.853,2.8967,0.0,2.772,2.6858,2.7464,0.0,2.6342,2.7153,2.7056,2.7157,2.7847,2.9273,3.0149,2.9883,3.1256,3.2177,3.2067,3.2573,3.2474,3.1544,3.1306,3.0837,3.0069,2.9475,2.9212,2.9327,2.803,0.0,0.0,0.0,0.0,0.0,0.0,0.0,0.0,0.0,0.0,0.0,0.0,0.0,0.0,0.0,0.0,0.0,0.0,0.0,0.0,0.0,0.0,0.0,0.0,0.0,0.0,0.0,0.0,2.7702,2.7943,0.0,2.8296,2.8522,2.8802,2.9126,2.9644,3.0094,3.0364,3.0386,3.0375,3.0322,3.0861,3.1149,3.1142,3.1859,3.1798,3.1023,3.1211,3.0898,3.0154,3.0161,3.0202,3.026,3.0346,3.0379,3.0286,3.0106,2.9829,2.9384,2.8672,2.8275,2.8167,2.8478,2.8269,2.7968,2.8828,2.8552,2.7843,2.7846,2.7617,2.7185,2.6632,2.665,2.6768,2.6508,2.6782,2.7246,2.752,2.7811,2.8147,2.8646,2.8782,2.8917,2.9384,2.9275,2.9258,2.973,2.9366,2.8886,2.8606,2.9053,2.9361,2.9041,2.923,2.9257,2.8893,2.9673,3.0173,2.9939,3.0826,3.1556,3.187,3.1495,3.1107,3.0776,3.011,2.946,2.8797,2.8671,2.843,2.8098,2.7471,2.6441,0.0,0.0,0.0,0.0,0.0,0.0,0.0,0.0,0.0,0.0,0.0,0.0,0.0,0.0,0.0,0.0,0.0,0.0,0.0,0.0,0.0,0.0,0.0,0.0,0.0,0.0,2.6699,2.8071,2.8555,2.8703,2.8635,2.9184,2.9509,2.9494,3.0027,3.0373,3.0385,3.0408,3.0358,3.031,3.0842,3.1269,3.1503,3.2218,3.2216,3.1401,3.1542,3.1102,3.0178,3.0133,3.0202,3.0322,3.0392,3.0403,3.0419,3.0525,3.0582,3.0453,2.9342,2.88,2.8647,2.8639,2.831,2.8007,2.8867,2.8981,2.8704,2.8392,2.8242,2.808,2.752,2.7716,2.8046,2.7414,2.7838,2.8496,2.8409,2.8593,2.8927,2.9468,2.9561,2.9621,2.9825,2.9665,2.9544,2.9742,2.9609,2.9436,2.9404,2.9968,3.0303,2.9967,3.0207,3.0139,2.938,2.9621,2.9904,3.0002,3.0585,3.108,3.1381,3.0772,3.0214,2.9839,2.9268,2.8664,2.7947,2.8101,2.7879,2.7232,2.6818,2.5993,2.4753,0.0,0.0,0.0,0.0,0.0,0.0,0.0,0.0,0.0,0.0,0.0,0.0,0.0,0.0,0.0,0.0,0.0,0.0,0.0,0.0,0.0,0.0,0.0,2.5447,2.6846,2.8163,2.9021,2.9756,3.0246,3.0286,3.0292,3.0305,3.0304,3.0304,3.0355,3.0423,3.0423,3.0373,3.0343,3.0343,3.0692,3.1333,3.2238,3.218,3.1269,3.2108,3.1656,3.0083,3.0154,3.026,3.039,3.0479,3.0545,3.06,3.068,3.0711,3.0535,2.8837,2.7726,2.702,2.7086,2.7102,2.7226,2.8082,2.894,2.9488,2.8666,2.832,2.8275,2.8257,2.8223,2.8168,2.8128,2.8685,2.9294,2.9168,2.9753,3.0331,3.0273,3.0286,3.0088,2.9213,2.9659,2.9972,2.9174,2.8375,2.8325,2.9947,2.9405,2.9049,2.9885,2.9773,0.0,2.9343,2.9145,2.927,2.9916,3.0545,3.0836,3.0693,3.0591,3.0011,2.8751,2.8921,2.8649,2.7627,2.7861,2.7704,2.7076,2.6239,2.5331,2.439,0.0,0.0,0.0,0.0,0.0,0.0,0.0,0.0,0.0,0.0,0.0,0.0,0.0,0.0,0.0,0.0,0.0,0.0,0.0,0.0,0.0,2.512,2.6387,2.7054,2.8021,2.8989,2.978,3.0107,3.0266,3.0246,3.0273,3.0305,3.0304,3.0304,3.063,3.1308,3.0713,3.0611,3.1232,3.1704,3.2058,3.2248,3.3524,3.3516,3.2155,3.2184,3.1465,3.0122,3.0075,3.0136,3.0322,3.043,3.0525,3.0545,3.0608,3.0637,3.0572,3.0139,2.9877,2.9727,2.9753,2.9776,2.9794,3.0077,3.0311,3.0423,3.0192,3.0056,2.9886,2.9204,2.9405,2.958,2.8354,2.8618,2.9065,2.8362,2.8802,2.9421,2.9328,2.9774,3.0163,2.99,3.0028,3.0112,2.9913,2.9187,2.8925,3.0003,2.9987,2.9817,2.9891,2.9779,0.0,2.9316,2.9189,2.9305,2.9853,3.0505,3.0872,3.07,3.0919,3.0285,2.8458,2.8744,2.8388,2.7126,2.7614,2.7459,2.6457,2.5687,2.4795,0.0,0.0,0.0,0.0,0.0,0.0,0.0,0.0,0.0,0.0,0.0,0.0,0.0,0.0,0.0,0.0,0.0,0.0,0.0,0.0,0.0,0.0,2.5985,2.733,2.818,2.8696,2.9288,3.0115,3.0226,3.024,3.0213,3.0246,3.0279,3.0279,3.0644,3.0931,3.1103,3.0931,3.0887,3.096,3.1684,3.2208,3.2458,3.3668,3.3639,3.2391,3.2184,3.1365,2.9961,2.9977,3.0095,3.0253,3.0479,3.054,3.0554,3.0617,3.0645,0.0,0.0,0.0,0.0,0.0,2.9909,3.0243,3.0301,3.0491,3.0749,3.0753,3.0711,3.0549,2.9981,3.0126,3.0248,2.9258,2.9297,2.9521,2.893,2.9174,2.9532,2.9445,2.9782,3.0063,2.9684,2.9897,3.007,2.9726,2.9522,0.0,3.007,2.983,2.9627,2.9826,2.9717,2.9541,2.9312,2.9392,2.9612,2.9849,3.0518,3.0784,3.0234,3.0089,0.0,0.0,0.0,2.7613,2.6821,2.6802,0.0,0.0,0.0,0.0,0.0,0.0,0.0,0.0,2.4616,2.4138,0.0,0.0,0.0,0.0,0.0,0.0,0.0,0.0,0.0,0.0,0.0,0.0,0.0,0.0,0.0,0.0,2.69,2.8192,2.8912,2.9047,2.9344,3.0115,3.0192,3.0192,3.0192,3.0219,3.0253,3.0292,3.1098,3.1271,3.0502,0.0,0.0,0.0,0.0,3.1746,3.2449,3.327,3.3241,3.2352,3.22,3.1346,2.9944,2.9953,3.0052,3.0196,3.0463,3.055,3.0591,3.0625,3.0645,3.0576,2.9734,2.9474,2.9433,2.8674,2.89,2.9622,2.9652,0.0,0.0,3.0667,3.0652,3.0556,3.0509,3.0423,3.0325,3.0189,3.0145,3.0107,2.9952,2.9963,2.9997,2.9962,3.0007,2.987,2.9102,2.955,2.9899,2.9171,2.9608,3.0082,3.0075,2.9414,2.9077,2.9703,2.9645,2.9424,2.9238,2.9731,3.0013,2.9834,0.0,0.0,2.9637,2.8851,2.7964,2.6935,2.6789,2.6732,2.6648,2.5932,2.545,2.5379,2.5908,2.6102,2.5965,2.665,2.6942,2.6859,2.6485,2.6199,0.0,0.0,0.0,0.0,0.0,0.0,0.0,0.0,0.0,0.0,0.0,0.0,0.0,0.0,0.0,2.6236,2.7725,2.8835,2.9057,2.964,3.0055,3.0199,3.0192,3.0199,3.0181,3.026,3.0292,3.0292,3.1104,3.1533,3.1347,3.1395,3.1653,3.2095,3.2112,3.2505,3.3337,3.4007,3.3955,3.3228,0.0,0.0,3.0743,3.0127,2.9921,3.0052,3.0221,3.0358,3.0428,3.0392,3.0342,3.0296,3.0274,3.0298,3.0268,3.0086,3.0206,3.0487,3.0481,3.0532,3.0626,3.0576,3.0518,3.0505,3.0396,3.0279,0.0,2.9378,2.9147,2.8914,2.82,2.8501,2.8981,2.8896,2.9474,2.9977,2.9739,2.9893,3.0044,2.9899,2.9975,3.0068,3.0038,2.9855,2.9761,2.9787,2.9673,2.9481,2.9243,2.9672,2.9988,2.9986,3.0568,3.0658,2.9958,2.9358,2.8706,2.7972,2.7402,2.7084,2.7021,2.6789,2.6594,2.6415,2.6519,2.6521,2.637,2.659,2.6691,2.6725,2.6061,2.5768,0.0,0.0,0.0,0.0,0.0,0.0,0.0,0.0,0.0,0.0,0.0,2.3536,2.4339,0.0,2.6304,2.7604,2.8514,2.9199,2.9651,3.0043,3.0279,3.0246,3.024,3.0246,3.026,3.0299,3.0286,3.0304,3.1111,3.1604,3.1584,3.1843,3.2156,3.2501,3.276,3.3118,3.3543,3.4271,3.4212,3.3504,3.2625,3.1721,3.0875,3.0156,2.9864,2.9875,3.0044,3.017,3.0233,3.0308,3.0284,3.0273,3.0392,3.0418,3.0425,3.0487,3.0534,3.0617,3.0622,3.0641,3.0586,3.0496,3.0425,3.0385,3.0336,3.0195,3.0013,2.9636,2.9443,2.9224,2.8768,2.8963,2.9242,2.9192,2.959,2.9959,2.9999,3.0061,3.0106,3.0082,3.0113,3.0076,2.9983,2.988,2.9805,2.971,2.9569,2.9332,2.9089,2.9648,3.0051,2.9899,3.0339,3.0451,2.9986,2.908,2.8308,2.7801,2.7341,2.7087,2.7055,2.6925,2.6792,2.6657,2.6657,2.6589,2.6502,2.6537,2.6572,2.6657,2.6236,2.6167,0.0,0.0,0.0,0.0,0.0,0.0,0.0,0.0,2.3074,2.314,2.3835,2.4635,2.5279,2.6326,2.7472,2.8772,2.9187,2.9562,3.0221,3.0305,3.0286,3.0305,3.0299,3.0292,3.0299,3.0286,3.0381,3.0547,3.1373,3.1846,3.1799,3.2439,3.2775,3.2654,3.3195,3.3514,3.3541,3.4302,3.4199,3.3279,3.2561,3.175,3.0809,3.013,2.9784,2.9801,2.9977,3.0109,3.0129,3.0272,3.0296,3.0298,3.0364,3.0379,3.0318,3.0425,3.0485,3.052,3.0559,3.067,3.0791,3.0667,3.0579,3.0548,3.0503,3.024,3.0046,3.0098,3.0007,2.9868,2.9799,2.9773,2.9764,2.979,2.9834,2.9901,3.0022,3.0053,3.0076,3.0098,3.0076,3.0022,2.9888,2.9761,2.9636,2.9579,2.9414,2.9228,2.8975,2.9672,3.0052,2.9719,3.01,3.0136,2.9668,2.8595,2.7789,2.7376,2.7154,2.699,2.7008,2.6825,2.6674,2.6589,2.6589,2.6537,2.6433,2.6433,2.6485,2.6589,2.6502,2.6589,1.7567,1.8625,2.0184,2.1148,2.2025,2.2839,0.0,0.0,2.4052,2.4711,2.5467,2.6053,2.6162,2.7523,2.8702,2.8893,2.964,3.0184,3.0299,3.026,3.0273,3.0361,3.0324,3.0305,3.0298,3.0311,3.0669,3.1494,3.2255,3.2644,3.26,3.3202,3.3534,3.3479,3.3486,3.3571,3.3667,3.4323,3.3867,3.2421,3.2149,3.1652,3.095,2.9926,2.969,3.006,3.0286,3.0273,3.0215,3.034,3.0328,3.0228,3.0355,3.0367,3.0304,3.0316,3.0392,3.051,3.043,3.0948,3.1542,3.1405,3.1384,3.1329,3.1148,3.0616,3.003,2.983,2.9767,2.9813,2.9719,2.9683,2.9636,2.969,2.9744,2.9834,2.9893,2.9967,3.0014,3.0022,2.9945,2.988,2.9834,2.9636,2.954,2.9521,2.9394,2.9249,2.91,2.9744,2.9965,2.9333,2.9781,2.9721,2.8665,2.8336,2.7947,2.7511,2.7247,2.7071,2.7008,2.6825,2.6657,2.6502,2.6502,2.6415,2.6221,2.6221,2.6328,2.6502,2.6382,2.6366,2.0245,2.1053,2.1985,2.3323,2.4331,2.4917,2.4748,2.5088,2.5384,2.5204,2.5411,2.5968,2.6937,2.7721,2.8536,0.0,3.0017,3.0279,3.026,3.0241,3.026,3.0299,3.0273,3.0286,3.0361,3.0304,3.0663,3.1526,3.1788,3.2309,3.3227,3.3533,3.3828,3.4263,3.4262,3.431,3.4415,3.4569,3.4083,3.2937,3.2427,3.1713,3.0857,3.0048,2.977,2.9923,3.0181,3.0254,3.0203,3.0352,3.0386,3.0381,3.0469,3.0783,3.1102,3.0568,3.0369,3.0381,3.0408,3.0899,3.1578,3.1546,3.1499,3.1429,3.1475,3.0776,2.9969,2.9883,2.9822,2.9728,2.9617,2.9608,2.9683,2.9692,2.9755,2.9825,2.9893,2.9959,2.9999,2.9929,2.9913,2.9864,2.9816,2.9692,2.9598,2.956,2.939,2.9222,2.91,2.9455,2.9573,2.9306,2.9395,2.9235,2.851,2.8313,2.8025,2.7587,2.7388,2.7215,2.7071,2.6941,2.6742,2.6502,2.6502,2.6398,2.6185,2.6185,2.6257,2.6382,2.6347,2.6312,2.2489,2.301,2.3495,2.4904,2.5887,2.6294,2.5498,2.5932,2.6249,2.5379,2.534,2.5918,2.7402,2.7841,2.847,2.9899,3.0185,3.0219,3.014,3.0174,3.0195,3.0154,3.0154,3.0226,3.0311,3.0248,3.0668,3.1742,3.1676,3.2302,3.3903,3.3951,3.4216,3.4773,3.4821,3.4737,3.4614,3.4665,3.4179,3.3105,3.2495,3.1761,3.0903,3.0544,3.0326,3.0232,3.0535,3.0506,3.0337,3.0428,3.0516,3.0577,3.0862,3.1299,3.1741,3.1256,3.105,3.1008,3.1028,3.1544,3.2185,3.2255,3.2008,3.1752,3.1903,3.1011,2.9937,2.9907,2.9813,2.9664,2.955,2.9579,2.9692,2.9682,2.9746,2.9863,3.015,3.0086,3.0035,3.0175,3.0023,2.9855,2.9808,2.9737,2.9673,2.9617,2.9431,2.9254,2.9178,2.9243,2.9323,2.9302,2.9215,2.8975,2.8538,2.8344,2.8059,2.7632,2.7481,2.731,2.7101,2.7039,2.6859,2.6537,2.6537,2.6415,2.6185,2.6185,2.6239,2.6279,2.6294,2.6259,2.3411,2.3814,2.4159,2.5011,2.5861,2.6294,2.5498,2.5916,2.6265,2.5379,2.5723,2.6446,2.7425,2.8205,2.8935,2.9753,3.0022,3.0068,3.0022,2.9937,2.9945,2.9992,3.0045,3.0098,3.0128,3.0061,3.0753,3.2539,3.24,3.2996,3.4679,3.4755,3.4773,3.4798,3.4849,3.4538,3.3843,3.4403,3.3908,3.2345,3.2091,3.1721,3.1184,3.1501,3.1507,3.1279,3.162,3.1293,3.0579,3.0675,3.0685,3.0785,3.1545,3.1823,3.1895,3.2582,3.2814,3.2795,3.2682,3.3181,3.3938,3.3938,3.331,3.2561,3.2576,3.1371,2.9954,2.9741,2.9717,2.9672,2.9522,2.955,2.9608,2.9681,2.9735,2.9996,3.0789,3.0418,3.0103,3.0844,3.038,2.9859,2.9726,2.9708,2.969,2.9711,2.9579,2.9434,2.9322,2.9359,2.9376,2.9312,2.9222,2.9044,2.8626,2.8461,2.8156,2.7632,2.7481,2.731,2.7101,2.7039,2.6893,2.6606,2.6606,2.6468,2.6185,2.6185,2.6239,2.6279,2.6239,2.6257,2.3583,2.3913,2.4197,2.5047,2.5899,2.6282,2.545,2.5876,2.6179,2.5309,2.5317,2.5741,2.658,2.7355,2.8154,2.9064,2.9665,3.0014,2.9929,2.9905,2.9897,2.9951,2.9951,0.0,3.0038,3.003,0.0,3.1613,3.2077,3.276,3.3815,3.4388,3.4699,3.4788,3.4878,3.4785,3.4519,3.4679,3.393,3.2222,3.1073,3.0749,3.1192,3.0944,3.0763,3.0688,3.1448,3.1715,3.1517,3.1527,3.1877,3.2403,3.1988,3.2474,3.3409,3.352,3.3892,3.4189,3.305,3.3203,3.396,3.4044,3.386,3.3501,3.2945,3.1888,3.0738,3.004,2.9735,2.9617,2.954,2.955,2.9636,2.9673,3.0142,3.0659,3.0932,3.1233,3.1525,3.1854,3.1222,3.0638,3.0679,3.0174,2.9735,2.9728,2.9626,2.9521,2.9373,2.9401,2.937,2.9312,2.9222,2.9067,2.8712,2.8487,2.821,2.7745,2.7617,2.7419,2.7101,2.7104,2.6925,2.6623,2.6606,2.6537,2.6398,2.6294,2.6277,2.6279,2.6239,2.6203,2.4148,2.4596,2.5032,2.5608,2.6332,2.6706,2.5815,2.6014,2.6117,2.5215,2.5037,2.5379,2.6502,2.7091,2.7828,2.9042,2.9657,2.9943,2.9855,2.9847,2.9839,2.9859,2.9859,2.9876,0.0,0.0,0.0,3.1143,3.1589,3.2298,3.3371,3.3943,3.4388,3.4819,3.4868,3.487,3.4908,3.4821,3.4061,3.2645,3.1407,3.1084,3.1648,3.1098,3.0849,3.0849,3.1536,3.1915,3.2044,3.2008,3.2508,3.331,3.2897,3.3326,3.4193,3.4282,3.4632,3.4858,3.387,3.3873,3.441,3.4534,3.4148,3.3548,3.3064,3.2123,3.114,3.0498,3.0196,3.0018,2.9942,2.9766,2.9655,2.9728,3.0386,3.1111,3.1449,3.1911,3.2279,3.2391,3.1701,3.102,3.0776,3.0225,2.9825,2.9761,2.9719,2.9617,2.9471,2.9394,2.939,2.9344,2.9232,2.9067,2.8737,2.85,2.821,2.7745,2.7632,2.7434,2.7101,2.7085,2.694,2.664,2.6589,2.6554,2.645,2.6312,2.6259,2.6259,2.6152,2.6132,2.5141,2.5811,2.6507,2.6533,2.7089,2.7415,2.6638,2.6365,2.6045,2.5136,2.4988,2.5504,2.7055,0.0,2.7985,2.9582,2.9885,2.9859,2.9816,2.9799,2.9799,0.0,0.0,0.0,0.0,0.0,0.0,3.1261,0.0,3.1836,3.342,3.3533,3.394,3.4793,3.4819,3.4811,3.4832,3.4733,3.4275,3.3559,3.2931,3.2559,3.2501,3.1975,3.1742,3.1674,3.1878,3.2029,3.2182,3.215,3.2695,3.3579,3.4142,3.4357,3.4327,3.4878,3.5028,3.4927,3.5034,3.5149,3.5207,3.5285,3.4215,3.2884,3.2833,3.2063,3.1176,3.108,3.0903,3.075,3.0652,3.0199,2.9735,2.9868,3.0496,3.1346,3.2289,3.2446,3.2458,3.2464,3.1838,3.0996,3.0065,2.991,2.9893,2.9885,2.9842,2.9737,2.955,2.9471,2.9411,2.9407,2.9265,2.9078,2.8713,2.8513,2.8169,2.7647,2.7542,2.7388,2.7101,2.7085,2.6956,2.6691,2.6623,2.6486,2.6329,2.6257,2.6203,2.6203,2.6063,2.6026,2.5831,2.62,2.6599,2.7211,2.7046,2.6829,2.7158,2.6692,2.6129,2.5786,2.6253,2.6638,2.6404,2.7401,0.0,2.8981,2.9452,0.0,2.9859,2.9737,0.0,3.0612,0.0,3.0958,3.1665,3.1873,0.0,0.0,3.2619,3.31,3.3408,3.4049,3.421,3.3805,3.4439,3.4536,3.3998,3.4036,3.4244,3.466,3.3315,3.2684,3.2661,3.2646,3.2024,3.0931,3.2305,3.294,3.3076,3.2961,3.3835,3.5139,3.449,3.4571,3.5028,3.5009,3.4973,3.4927,3.5037,3.5098,3.5034,3.448,3.4088,3.3602,3.2262,3.1599,3.1094,3.0339,3.0047,2.9983,2.9964,2.9888,2.9784,2.9872,3.1033,3.2196,3.2429,3.3383,3.4027,3.3548,3.233,3.1089,3.0159,2.9983,2.9967,2.9926,2.9851,2.9746,2.9589,2.955,2.9491,2.9417,2.9334,2.9134,2.8785,2.8576,2.8237,2.7701,2.7572,2.7357,2.7023,2.6992,2.6825,2.6623,2.6571,2.6502,2.6468,2.6329,2.6277,2.6277,2.6203,2.6081,2.6117,2.6358,2.6568,2.7458,2.6981,2.6446,2.6795,2.6221,2.5664,2.5904,2.6371,2.6712,2.6607,2.7385,2.8172,0.0,0.0,0.0,2.9744,2.9692,2.9964,0.0,3.1035,0.0,3.2251,3.2599,3.2806,0.0,3.294,3.3118,3.3418,3.3888,3.3936,3.3486,3.3958,3.4084,3.3793,3.4222,3.4699,3.516,3.3988,3.3191,3.2801,3.2601,3.1835,3.0711,0.0,3.2607,3.3393,3.3317,3.4302,3.579,3.5102,3.5068,3.5328,3.5115,3.4955,3.4879,3.4983,3.4782,3.4433,3.409,3.3769,3.3216,3.1914,3.1424,3.1146,3.0548,3.0309,3.0255,3.0283,3.0098,2.9997,3.0479,3.1559,3.2653,3.3102,3.4106,3.4566,3.3519,3.1981,3.067,3.0122,3.0007,2.9921,2.9918,2.9868,2.9782,2.9608,2.956,2.9501,2.9417,2.9323,2.9134,2.8821,2.8576,2.8237,2.7745,2.7552,2.7341,2.7024,2.6975,2.6859,2.6657,2.6589,2.6502,2.6399,2.6347,2.6243,2.6188,2.6081,2.6026,2.6136,2.6327,2.6515,2.7359,2.6913,2.6287,2.6269,2.5574,2.5145,2.5777,0.0,2.6516,2.7188,2.746,2.7821,2.8532,0.0,2.8746,2.9589,2.9626,2.9973,3.0976,3.1035,3.1384,3.2364,3.3039,3.3508,3.3702,3.2994,3.2881,3.3599,3.3627,3.3628,3.3639,3.3583,3.3599,3.3753,3.478,3.5276,3.5165,3.4697,3.4019,3.3158,3.252,3.1746,3.0876,3.0885,3.174,3.3202,3.334,3.4328,3.5697,3.5706,3.556,3.5364,3.5166,3.4973,3.4812,3.4774,3.4358,3.3843,3.3991,3.3288,3.224,3.1718,3.1325,3.1029,3.0944,3.09,3.0873,3.0882,3.0541,3.0419,3.1291,3.2126,3.2978,3.3899,3.4402,3.4285,3.2943,3.1272,3.0083,3.0122,2.9999,2.988,2.9893,2.9868,2.979,2.9598,2.954,2.9481,2.9407,2.9265,2.91,2.8797,2.8551,2.821,2.7716,2.7587,2.7341,2.7024,2.6992,2.6875,2.6674,2.6606,2.6486,2.6279,2.6312,2.6206,2.6008,2.5936,2.5936,2.5998,2.6284,2.6495,2.7366,2.6847,2.6298,2.6964,2.6403,0.0,0.0,2.7018,2.7884,2.7332,2.8336,2.9323,2.9382,2.9392,2.9411,2.9579,2.9664,2.9974,0.0,3.0998,3.1657,3.3138,3.342,0.0,0.0,3.4538,3.4381,3.4501,3.4699,3.4498,3.3785,3.3824,3.3593,3.3101,3.4622,3.5059,3.4498,3.5121,3.501,3.4144,3.4156,3.3258,3.1705,3.1747,0.0,3.2313,3.3026,3.3894,3.4796,3.5384,3.5546,3.5398,3.5182,3.5046,3.4879,3.415,3.4178,3.4469,3.3983,3.2843,3.1538,3.134,3.076,3.0173,3.0129,3.0103,3.012,3.0235,3.0708,3.1224,3.1499,3.2718,3.386,3.405,3.3586,3.3012,3.2768,3.1287,3.0106,3.0083,2.9999,2.988,2.9893,2.9819,2.9664,2.954,2.955,2.9501,2.9344,2.9302,2.91,2.8663,2.8525,2.8224,2.7662,2.7542,2.7341,2.7024,2.6959,2.6826,2.6606,2.6554,2.6468,2.6279,2.6224,2.6134,2.6008,2.599,2.5954,2.665,2.6257,2.578,2.6614,2.6087,2.5469,2.5844,0.0,0.0,0.0,2.6577,2.7215,2.7244,2.7876,0.0,2.8913,2.8933,2.9035,2.9467,2.9608,0.0,3.0752,3.1298,3.2128,0.0,3.3486,3.3695,3.4308,3.4372,3.4508,3.4811,3.4538,3.4211,3.3862,3.3968,3.3876,3.3625,3.4952,3.5431,3.5108,3.5521,3.5297,3.4447,3.4015,3.3145,3.1958,3.1958,0.0,3.2148,3.3448,3.4205,3.4648,3.5364,3.5543,3.5371,3.5231,3.5115,3.4969,3.4035,3.3951,3.4169,3.3845,3.2867,3.175,3.1328,3.0604,2.9893,2.9851,2.9842,2.9885,3.0061,3.0745,3.1537,3.214,3.3513,3.4703,3.468,3.3647,3.2691,3.2638,3.1272,3.0091,3.0046,2.9967,2.9893,2.9851,2.9746,2.9655,2.9481,2.9471,2.9411,2.9243,2.9204,2.8998,2.8626,2.8461,2.8191,2.7632,2.7542,2.7341,2.7024,2.6975,2.6876,2.6657,2.6623,2.6503,2.6279,2.6345,2.6239,2.6008,2.6008,2.6008,2.7008,2.6041,2.4978,2.5635,2.5219,2.4682,2.4883,2.4746,0.0,0.0,2.5946,2.6199,2.6884,2.7249,2.7648,0.0,2.8418,2.8706,2.9399,2.955,2.9841,0.0,3.1304,0.0,3.3118,3.3373,0.0,3.3755,3.3937,3.4343,3.4952,3.4384,3.401,3.3952,3.4239,3.4313,3.4084,3.5232,3.5706,3.5512,3.5729,3.5442,3.4727,3.3817,3.3055,3.2509,3.2272,0.0,0.0,3.391,3.4484,3.4383,3.5357,3.5604,3.5419,3.5308,3.5106,3.4764,3.3787,3.3419,3.3399,3.3175,3.2591,3.1949,3.1808,3.0961,3.0045,3.0063,3.0063,3.0115,3.0274,3.1005,3.1981,3.313,3.4373,3.5269,3.519,3.3875,3.2668,3.2615,3.1234,3.0038,2.9999,2.9918,2.9834,2.9782,2.9701,2.9579,2.9411,2.9301,2.9217,2.9145,2.9044,2.8881,2.8576,2.8406,2.8095,2.7617,2.7511,2.7326,2.7024,2.7008,2.6892,2.6708,2.6691,2.6573,2.6347,2.6399,2.6294,2.6008,2.6026,2.6081,2.6109,2.5391,2.4666,2.4812,2.4634,2.4637,2.5416,0.0,2.4762,2.5617,2.5922,2.6024,2.6018,2.7238,2.8213,2.8231,0.0,2.9329,2.9474,2.955,2.9607,2.9605,0.0,0.0,3.2213,3.3157,3.3767,3.3975,3.4117,3.4511,3.5292,3.5192,3.4756,3.411,3.4995,3.477,3.3326,3.4964,3.5418,3.4644,3.5426,3.5714,3.5547,3.4675,3.423,3.4139,3.34,0.0,0.0,3.3828,3.4111,3.3491,3.5167,3.5694,3.556,3.5423,3.4803,3.3887,3.2885,3.2383,3.2117,3.1402,3.1204,3.1547,3.3013,3.2222,3.0819,3.0884,3.0893,3.092,3.1075,3.1821,3.2989,3.468,3.5154,3.519,3.519,3.3835,3.2605,3.2607,3.114,2.9905,2.9905,2.9805,2.9708,2.9729,2.9598,2.9471,2.9344,2.9189,2.9067,2.8952,2.8964,2.8846,2.8435,2.8313,2.8025,2.7542,2.7454,2.7297,2.7024,2.7008,2.6892,2.6708,2.6691,2.664,2.6485,2.6365,2.6224,2.6008,2.6132,2.6185,2.6518,2.5568,2.4425,2.4462,2.4355,2.4515,2.5375,0.0,2.4633,2.5548,2.5481,2.5359,2.5806,2.6808,2.7577,2.7549,2.826,2.882,2.8849,2.8914,2.9055,2.9329,3.0271,0.0,0.0,0.0,3.2995,3.3307,3.3878,3.4167,3.4025,3.4836,3.5215,3.4934,3.5271,3.5204,3.4642,3.5316,3.548,3.5103,3.551,3.5364,3.4787,3.445,3.4025,3.3578,3.3738,0.0,0.0,3.3753,3.3972,3.3328,3.4481,3.4918,3.4786,3.4606,3.3953,3.2969,3.1934,3.1808,3.2099,3.1788,3.1704,3.1883,3.2542,3.2182,3.1597,3.1646,3.1549,3.1519,3.1695,3.2502,3.3591,3.4886,3.5162,3.5145,3.5145,3.3786,3.258,3.2534,3.1154,2.9959,2.991,2.9779,2.969,2.9711,2.9531,2.9343,2.9312,2.916,2.8998,2.8917,2.8858,2.87,2.838,2.8219,2.7954,2.7526,2.7438,2.7282,2.7024,2.7008,2.6892,2.6708,2.6674,2.6572,2.6502,2.6365,2.6241,2.6132,2.6168,2.6221,2.6874,2.6024,2.4958,2.4986,2.4781,2.4752,0.0,2.5088,2.4616,2.553,2.5186,2.4869,2.5415,2.6396,2.705,2.6779,2.7669,2.8381,2.8408,2.8453,2.8698,0.0,0.0,3.0893,0.0,3.1807,3.2534,3.2844,3.3718,3.3901,3.3098,3.4352,3.5021,3.4815,3.4999,3.5046,3.4869,3.4904,3.485,3.4787,3.5096,3.4857,3.4186,3.4173,3.3872,3.3364,3.3954,0.0,0.0,3.3974,3.4011,3.2928,3.3993,3.4195,3.3919,3.4009,3.3242,3.2145,3.1578,3.1384,3.1383,3.1362,3.1471,3.1618,3.1603,3.196,3.2366,3.2366,3.228,3.2199,3.2432,3.3204,3.4131,3.4878,3.5066,3.5075,3.5092,3.3743,3.2539,3.2522,3.113,2.9951,2.9893,2.977,2.9681,2.9636,2.9444,2.9291,2.9237,2.9055,2.894,2.8858,2.8737,2.8562,2.8327,2.8122,2.7868,2.7526,2.7373,2.7234,2.7024,2.6992,2.6875,2.6691,2.6657,2.6606,2.6502,2.6399,2.6294,2.6185,2.6257,2.6328,2.6935,2.6673,2.6497,2.6632,2.5972,2.5554,2.6576,2.5551,2.467,2.5591,2.5211,2.4674,2.4634,2.6039,2.6906,2.6068,2.7268,2.8325,2.8398,2.8417,2.8708,0.0,0.0,3.0913,3.097,3.196,3.2653,3.2809,3.3724,0.0,3.3059,3.3911,3.4027,3.317,3.4042,3.4109,3.3212,3.3239,3.3197,3.3117,3.3948,3.425,3.4113,3.4186,3.4147,3.412,0.0,0.0,0.0,3.4628,3.421,3.2097,3.3756,3.3824,3.3109,3.382,3.2935,3.1401,3.2041,3.1092,2.9491,2.9365,2.9879,3.0509,3.0442,3.1727,3.3176,3.3036,3.3001,3.3071,3.3306,3.4071,3.4803,3.4898,3.4945,3.5039,3.5084,3.3691,3.2415,3.2505,3.108,2.9885,2.9885,2.977,2.9654,2.9503,2.9424,2.928,2.9033,2.894,2.8858,2.8724,2.86,2.8458,2.8313,2.7989,2.7716,2.7511,2.7228,2.7087,2.7008,2.6942,2.6825,2.6691,2.6691,2.664,2.6502,2.6502,2.6398,2.6203,2.6398,2.6502,2.6563,2.6576,2.6469,2.6607,2.5993,2.5618,2.6578,2.5551,2.4677,2.562,2.5203,2.469,2.466,2.6075,2.6973,2.6121,2.7353,2.8246,2.7674,0.0,0.0,2.9369,3.017,3.0774,0.0,0.0,3.1713,3.1893,3.2852,3.3064,3.222,3.363,3.4059,3.3197,3.3359,3.3345,3.3079,3.3014,3.3246,3.3776,3.4096,3.4193,3.4113,3.4789,3.4462,0.0,0.0,0.0,0.0,3.2676,3.2542,3.1869,3.2435,3.2342,3.2001,3.2182,3.1386,3.0229,3.0387,2.9979,2.9471,3.0054,3.0373,3.0605,3.1288,3.224,3.3136,3.3562,3.3648,3.3673,3.3948,3.4259,3.4604,3.4849,3.4936,3.4936,3.4955,3.4092,3.3126,3.2538,3.1535,3.0583,2.9956,2.9744,2.9654,2.9503,2.9401,2.9254,2.9078,2.8929,2.8785,2.865,2.8562,2.8445,2.8259,2.8053,2.7824,2.7526,2.7373,2.7215,2.7087,2.699,2.6942,2.6825,2.6691,2.6589,2.6571,2.652,2.6433,2.6277,2.6329,2.6365,2.6009,2.6313,2.6501,2.6618,2.6033,2.5613,2.6256,2.5383,2.4608,2.5244,2.5032,2.4698,2.47,2.5874,2.6629,2.6109,2.7156,2.7968,0.0,0.0,0.0,2.9292,0.0,0.0,0.0,3.0891,3.1222,3.1393,3.2365,3.26,3.1818,3.2885,3.3132,3.2295,3.2826,3.2969,3.265,3.2232,3.2453,3.3224,3.3577,3.3872,3.4113,3.4712,3.443,0.0,0.0,0.0,0.0,3.2169,3.1947,3.1404,3.1666,3.1465,3.1051,3.1271,3.065,2.9738,2.9973,2.978,2.9518,3.0341,3.0761,3.1102,3.2124,3.2687,3.3128,3.3858,3.4067,3.4043,3.43,3.4439,3.4561,3.4778,3.484,3.4908,3.4908,3.4263,3.3543,3.3013,3.2237,3.1369,3.042,3.0207,2.9992,2.9481,2.9349,2.9248,2.9044,2.8893,2.8761,2.865,2.8562,2.8419,2.8178,2.8053,2.7853,2.7526,2.7373,2.7263,2.7133,2.7023,2.6942,2.6893,2.6725,2.6606,2.6571,2.6433,2.638,2.6279,2.6279,2.6279,0.0,2.5962,2.6644,2.671,2.6122,2.5579,2.5707,2.5118,0.0,2.4682,2.4698,2.4751,2.4782,2.5468,2.6034,2.6186,2.6879,2.76,0.0,2.8466,0.0,0.0,2.9748,0.0,2.9615,3.0461,3.108,3.1218,3.2168,3.2417,3.1747,3.1831,3.159,3.0881,3.2388,3.2789,3.19,3.1096,3.106,3.1785,3.2623,3.3378,3.412,3.4231,3.4244,0.0,0.0,0.0,0.0,3.2629,3.2028,3.0766,3.1424,3.1089,3.0258,3.0936,3.0548,2.9795,3.0478,3.0203,2.9705,3.0389,3.1091,3.1821,3.281,3.3025,3.3104,3.3956,3.424,3.4264,3.4393,3.455,3.4716,3.4727,3.4801,3.4908,3.4908,3.4301,3.3771,3.3695,3.3043,3.2165,3.1166,3.0923,3.0525,2.9465,2.9307,2.9178,2.894,2.8846,2.8773,2.8712,2.8587,2.8393,2.813,2.8025,2.7853,2.7511,2.7307,2.7213,2.7197,2.7006,2.6909,2.6909,2.6775,2.664,2.6502,2.6292,2.6257,2.6279,2.6279,2.6294,2.4561,0.0,2.6703,2.6879,2.6357,2.5813,0.0,2.5268,2.4676,2.476,2.4798,2.4979,2.5657,2.5937,2.6291,2.6979,2.7716,2.7846,2.6731,0.0,0.0,3.0343,3.1036,3.1226,3.0629,3.0273,3.0191,3.0455,3.0751,3.1155,3.1675,3.1785,3.2053,3.2589,3.2402,3.1858,3.0952,3.1363,3.162,3.173,3.259,3.3415,3.4218,3.4892,3.4475,0.0,0.0,0.0,3.0931,3.1042,3.0935,3.0703,3.1468,3.1109,3.0219,3.0912,3.0505,2.9597,2.9842,3.0129,3.0501,3.1431,3.1825,3.2173,3.3132,3.3189,3.3199,3.4169,3.4404,3.4393,3.4517,3.4615,3.4737,3.4819,3.4898,3.4908,3.4908,3.4756,3.4406,3.3762,3.3479,3.2827,3.1186,3.0913,3.0525,2.9465,2.9307,2.9226,2.8998,2.887,2.8749,2.8637,2.8562,2.838,2.8039,2.8074,2.7882,2.7454,2.7419,2.7388,2.7282,2.7089,2.6992,2.6992,2.6725,2.6589,2.6502,2.6347,2.6294,2.6312,2.6119,2.6378,2.4357,2.4959,2.5634,2.5808,2.5589,2.5294,2.5364,2.5022,2.4707,0.0,0.0,2.4949,2.5424,2.5823,2.6254,2.673,2.7484,0.0,0.0,0.0,2.9842,3.0158,3.0974,3.1211,0.0,3.0394,3.0368,3.018,3.024,3.0561,3.1062,3.1168,3.1468,3.1999,3.1983,3.178,3.1284,3.1326,3.1666,3.2362,3.2778,3.3613,3.4796,3.5264,3.5008,0.0,0.0,0.0,3.1741,3.091,3.0561,3.0643,3.1002,3.0708,3.0083,3.0422,3.0385,3.0085,2.9767,3.0355,3.1447,3.2465,3.3022,3.3416,3.396,3.3973,3.3939,3.4454,3.4594,3.4594,3.4716,3.4798,3.4868,3.4898,3.4908,3.4945,3.4945,3.4908,3.4756,3.4311,3.3837,3.3069,3.1682,3.1097,3.0435,2.9429,2.9254,2.9167,2.8975,2.8858,2.8761,2.8662,2.8587,2.8419,2.8067,2.8095,2.7954,2.7531,2.7526,2.7496,2.7407,2.7168,2.6957,2.6826,2.6572,2.6434,2.6399,2.6241,2.6137,2.617,2.6026,2.6348,2.4417,2.4355,2.4348,2.4522,2.4596,2.4621,2.4621,0.0,0.0,0.0,0.0,0.0,2.5341,2.5861,0.0,0.0,0.0,0.0,2.8658,2.9414,2.9846,2.9804,3.0622,0.0,2.9898,3.0665,3.0902,3.0159,3.0226,3.0318,3.039,3.0453,3.0549,3.0602,3.1371,3.1831,3.1914,3.1229,3.1573,3.2934,3.2986,3.383,3.5348,3.545,3.5393,3.5046,0.0,0.0,3.2671,3.1202,3.057,3.0582,3.0596,3.0343,3.0023,3.0015,3.03,3.0659,3.0151,3.0941,3.2344,3.3469,3.4254,3.4781,3.4927,3.4917,3.4822,3.4763,3.4791,3.4839,3.4888,3.4965,3.4973,3.4927,3.4945,3.4973,3.4973,3.4936,3.4906,3.4906,3.4069,3.3118,3.2241,3.1314,3.0368,2.9333,2.92,2.9134,2.8929,2.8846,2.8773,2.8724,2.8637,2.8471,2.8164,2.8164,2.8039,2.7692,2.7632,2.7557,2.7465,2.7231,2.6941,2.6623,2.6417,2.6329,2.6294,2.6099,2.6008,2.6008,2.5917,2.6288,2.4551,2.4488,2.4428,2.4707,2.4776,2.4783,2.4783,2.4791,0.0,0.0,0.0,0.0,0.0,2.7506,2.7403,0.0,0.0,2.7903,0.0,0.0,3.0054,3.0631,0.0,3.1694,3.0857,3.1004,3.0848,3.024,3.0213,3.026,3.0381,3.0463,3.052,3.0591,3.0781,3.0918,3.1003,3.1517,3.1906,3.2107,3.2805,3.3674,3.4592,3.5288,3.4818,3.3434,0.0,3.2236,3.097,3.0725,3.0586,3.0593,3.1168,3.0861,3.0144,3.0812,3.0566,3.0076,3.1346,3.209,3.2707,3.4323,3.4958,3.5072,3.5212,3.5162,3.5048,3.4964,3.4945,3.4955,3.4993,3.4973,3.4982,3.4973,3.4945,3.4917,3.4917,3.4917,3.4859,3.4819,3.4038,3.3108,3.2179,3.1283,3.0368,2.9333,2.92,2.9134,2.8929,2.8846,2.8773,2.8724,2.86,2.8471,2.8353,2.8205,2.8053,2.794,2.7721,2.7496,2.7244,2.7104,2.6859,2.6623,2.652,2.6398,2.6221,2.6063,2.6008,2.6008,2.5811,2.6436,2.4693,2.4654,2.4759,2.5421,2.5151,2.4768,2.4805,2.4813,0.0,0.0,0.0,0.0,0.0,0.0,2.8404,2.9368,0.0,2.8389,2.9066,2.9565,3.0153,0.0,0.0,3.1986,3.1202,3.1538,3.139,3.0293,3.0233,0.0,3.0392,3.0495,3.0554,3.0613,3.0676,3.072,3.0753,3.114,3.1551,3.1972,3.2779,3.3587,3.4365,3.5201,3.4907,3.3716,0.0,3.2362,3.1206,3.0789,3.0568,3.0549,3.0843,3.0606,3.0264,3.1028,3.069,3.0148,3.1808,3.2213,3.2187,3.3448,3.4152,3.4534,3.4588,3.483,3.5072,3.5001,3.4982,3.4982,3.4982,3.5057,3.5092,3.5066,3.5039,3.4982,3.4955,3.4927,3.4896,3.4809,3.3679,3.2552,3.2094,3.0878,2.9805,2.9296,2.92,2.9112,2.8881,2.8822,2.8761,2.8662,2.86,2.851,2.8393,2.8246,2.8067,2.7832,2.7662,2.7481,2.7326,2.7104,2.6875,2.6657,2.6521,2.6347,2.6185,2.6008,2.5917,2.583,2.6105,2.6834,2.4804,2.4811,2.5007,2.5797,2.5404,2.4918,2.5354,2.5293,0.0,0.0,0.0,0.0,0.0,2.8312,0.0,2.9969,2.968,2.927,2.8955,2.9628,3.0414,3.1051,3.2023,3.2362,3.1555,3.2289,3.2154,3.0605,0.0,0.0,3.0458,3.0525,3.0621,3.0633,3.0687,3.0685,3.0703,3.0745,3.1171,3.202,3.2579,3.33,3.4076,3.4742,3.456,3.3732,3.3102,3.2338,3.1487,3.0853,3.054,3.0458,3.0396,3.0305,3.0254,3.083,3.0632,3.0304,3.1751,3.1897,3.1611,3.269,3.3477,3.3983,3.3983,3.4396,3.4789,3.4495,3.4583,3.4773,3.4944,3.5075,3.5119,3.5084,3.5066,3.5048,3.5002,3.4917,3.4876,3.4788,3.346,3.2296,3.2046,3.0708,2.9588,2.9248,2.9178,2.9078,2.8834,2.8798,2.8749,2.8612,2.86,2.8536,2.8406,2.8259,2.8081,2.7774,2.7587,2.745,2.7419,2.7168,2.7043,2.7013,2.6657,2.6484,2.654,2.6143,2.5917,2.5844,2.63,2.6932,2.4926,2.4877,2.4843,2.5036,2.5082,2.5482,2.7055,2.6782,0.0,2.8108,0.0,0.0,0.0,3.051,3.0929,3.004,3.0606,3.079,2.9939,0.0,3.1051,3.1087,3.2524,3.3214,3.2391,3.3153,3.3075,0.0,0.0,0.0,3.0617,3.0593,3.063,3.0696,3.0694,3.0685,3.0703,3.0706,3.1134,3.1987,3.2124,3.258,3.3386,3.3365,3.2926,3.2144,3.2042,3.1502,3.0675,3.0636,3.0539,3.039,3.0322,3.0248,3.0216,3.0182,3.0136,3.0213,3.0945,3.1244,3.1576,3.3184,3.3845,3.4014,3.3983,3.4052,3.3884,3.3024,3.3295,3.4048,3.4802,3.503,3.4992,3.503,3.4955,3.4908,3.4898,3.4839,3.4788,3.4727,3.3918,3.2959,3.212,3.1155,3.0219,2.9322,2.9145,2.9021,2.8822,2.8798,2.8749,2.8612,2.86,2.8536,2.8406,2.8205,2.8053,2.7968,2.7637,2.7438,2.7496,2.7247,2.7347,2.7896,2.7097,2.6927,2.7508,2.6607,2.6168,2.615,2.602,2.6321,2.5057,2.5488,2.6002,2.653,2.6308,0.0,0.0,2.6947,2.7224,2.7892,2.8394,0.0,0.0,0.0,3.0538,3.0742,3.0614,3.053,3.0621,3.0889,3.1494,3.2524,3.3204,3.3497,3.3296,3.3612,0.0,0.0,0.0,0.0,3.0593,3.0617,3.0661,3.0694,3.073,3.0751,3.0756,3.0764,3.1187,3.2026,3.2561,3.27,3.2524,3.3537,3.3244,3.1948,3.1864,3.1328,3.053,3.0559,3.0474,3.0452,3.0962,3.0803,3.0401,3.1381,3.1141,3.0375,3.1028,3.1071,3.0874,3.1355,3.2345,3.3275,3.2642,3.3187,3.3785,3.2866,3.3164,3.3825,3.4147,3.4668,3.5057,3.503,3.4973,3.4936,3.4888,3.4896,3.4819,3.4727,3.3955,3.3184,3.2831,3.1975,3.1036,3.0098,2.9871,2.9572,2.8895,2.8761,2.8894,2.9313,2.9337,2.9285,2.9152,2.8504,2.8266,2.8641,2.7866,2.7615,2.8097,2.7904,2.8083,2.866,2.83,2.7973,2.7593,2.7126,2.6598,2.6096,2.6395,2.6686,2.5518,2.5847,2.6262,2.7084,0.0,0.0,2.6778,2.7158,2.7778,2.8634,2.9222,0.0,3.0777,0.0,0.0,0.0,3.0544,3.0528,3.1049,3.1351,3.205,3.345,3.3885,3.4083,0.0,0.0,0.0,0.0,0.0,0.0,0.0,3.0661,3.0701,3.0682,3.0751,3.08,3.0751,3.0759,3.1176,3.1961,3.2551,3.2544,3.2046,3.3157,3.2895,3.1495,3.1429,3.1043,3.0451,3.0485,3.0607,3.0825,3.1468,3.1283,3.0849,3.2279,3.1896,3.0746,3.147,3.1386,3.1005,3.1173,3.1943,3.269,3.2053,3.252,3.3056,3.2111,3.2382,3.301,3.3285,3.4176,3.502,3.4983,3.4983,3.4927,3.4849,3.4839,3.4819,3.4706,3.4122,3.3596,3.3269,3.2624,3.1855,3.0912,3.0708,3.0295,2.9296,2.9138,2.9294,2.9761,3.0038,3.0143,3.0049,2.9311,2.9055,2.9529,2.8662,2.8359,2.883,2.8697,2.8905,2.9513,2.922,2.8859,2.8425,2.7736,2.7072,2.6501,2.6619,2.6714,2.6235,2.5829,2.5316,2.6206,0.0,0.0,2.7642,2.7617,2.8335,3.0883,3.1355,3.1024,3.0094,0.0,0.0,2.9857,3.0548,3.1176,3.1118,3.1863,3.2749,3.3619,3.4461,0.0,0.0,0.0,0.0,0.0,0.0,0.0,0.0,3.0683,3.0707,3.07,3.0759,3.0751,3.0714,3.0714,3.1082,3.1895,3.1917,3.1934,3.2007,3.1915,3.1425,3.0586,3.0604,3.0501,3.0398,3.0469,3.0926,3.1604,3.168,3.1636,3.1618,3.2505,3.2134,3.1311,3.2129,3.2241,3.2194,3.3308,3.3115,3.2433,3.263,3.2164,3.1405,3.0449,3.0731,3.1483,3.2196,3.362,3.4878,3.4916,3.4907,3.487,3.4747,3.4758,3.4758,3.4653,3.4539,3.4222,3.3343,3.3025,3.2612,3.1727,3.1507,3.109,3.0148,3.0013,2.9963,2.9834,3.0545,3.1016,3.1016,3.0715,3.049,3.0511,3.0066,2.9725,2.9626,2.9558,2.9798,3.0388,2.9637,2.9533,3.019,2.8477,2.7626,2.7593,2.6643,2.6219,2.551,2.6259,2.6988,2.7255,0.0,0.0,0.0,2.9851,0.0,0.0,3.0868,3.0454,3.0755,0.0,0.0,2.9837,3.0048,3.0705,3.1832,3.2228,3.2937,0.0,0.0,0.0,0.0,0.0,0.0,0.0,0.0,0.0,0.0,3.0711,3.0739,3.0759,3.0769,3.0764,3.0694,3.0682,3.1086,3.1903,3.2538,3.2495,3.193,3.1926,3.1409,3.0582,3.0568,3.0515,3.0502,3.1032,3.1399,3.1724,3.2916,3.2973,3.2565,3.3968,3.3134,3.1439,3.274,3.2419,3.1584,3.243,3.2678,3.2638,3.2675,3.2123,3.1388,3.1123,3.1119,3.1391,3.2127,3.2647,3.3317,3.4594,3.4859,3.4819,3.4727,3.4727,3.4706,3.455,3.4484,3.433,3.3964,3.382,3.3414,3.2514,3.2292,3.1884,3.0886,3.075,3.0979,3.1451,3.1197,3.122,3.1799,3.1117,3.085,3.1356,3.0975,3.0627,3.0474,3.0282,3.0464,3.1011,3.0806,3.0496,3.0146,2.9522,2.8654,2.7593,2.7196,2.6721,2.6047,2.6721,0.0,2.8058,2.8549,2.9317,3.1085,0.0,0.0,0.0,3.0898,3.0704,3.1509,3.0644,0.0,3.0234,3.006,3.0347,3.1698,3.1914,3.2593,0.0,0.0,0.0,0.0,0.0,0.0,0.0,0.0,0.0,0.0,3.0711,3.073,3.0745,3.0736,3.0682,3.0662,3.0633,3.1227,3.2365,3.2546,3.273,3.289,3.2912,3.2245,3.1046,3.0631,3.0469,3.0475,3.0925,3.1289,3.1691,3.3088,3.3067,3.2498,3.4456,3.3663,3.1838,3.3383,3.3228,3.238,3.3032,3.31,3.2928,3.2737,3.2079,3.1338,3.0973,3.105,3.1281,3.1713,3.1996,3.2655,3.4421,3.4562,3.436,3.4588,3.4604,3.4583,3.4484,3.4393,3.4274,3.4191,3.408,3.3819,3.3263,3.2805,3.2334,3.17,3.1574,3.1751,3.2176,3.2025,3.2133,3.2632,3.2017,3.1795,3.2215,3.18,3.1498,3.1306,3.111,3.1133,3.137,3.137,3.1108,3.0571,3.0133,2.9431,2.852,2.7751,2.7141,2.727,2.7176,2.7,2.8625,2.9104,0.0,3.1071,3.2079,3.2454,3.1584,0.0,3.1446,3.2156,3.0987,3.0167,3.0988,3.0505,3.0301,0.0,0.0,0.0,0.0,0.0,0.0,0.0,0.0,0.0,0.0,0.0,0.0,0.0,3.0694,3.0701,3.0714,3.0618,3.0582,3.0574,3.0539,3.1323,3.2937,3.2251,3.2803,3.4394,3.4289,3.3301,3.1636,3.0772,3.0414,3.0373,3.0387,3.0836,3.1587,3.2537,3.2304,3.1806,3.4124,3.3733,3.235,3.4009,3.4225,3.3918,3.448,3.4045,3.323,3.2901,3.2149,3.1218,3.0502,3.0744,3.1188,3.1279,3.1742,3.2558,3.4196,3.3932,3.3535,3.4142,3.4334,3.4349,3.4292,3.4225,3.4204,3.4154,3.4005,3.3913,3.3913,3.3146,3.2601,3.252,3.2402,3.2296,3.2321,3.2828,3.3232,3.3378,3.3168,3.2997,3.2882,3.2539,3.2266,3.2126,3.191,3.1707,3.15,3.1481,3.1443,3.1312,3.0441,2.9974,2.9854,2.8323,2.7578,2.6577,2.7188,0.0,2.8821,3.0075,3.1109,3.1346,3.2057,3.2623,3.2378,3.1773,3.1501,3.2239,3.1504,3.1091,3.1902,3.1353,0.0,0.0,0.0,0.0,0.0,0.0,0.0,0.0,0.0,0.0,0.0,0.0,0.0,3.0746,3.0697,3.0701,3.0714,3.0618,3.0552,3.0438,3.0467,3.0984,0.0,3.2529,3.3383,3.4355,3.2996,3.1757,3.0689,3.0546,3.0414,3.0388,3.0989,3.1325,3.1575,3.2474,3.2615,3.2483,3.3539,3.3129,3.2241,3.3818,3.3841,3.3349,3.4237,3.403,3.3401,3.36,3.2512,3.1328,3.177,3.1462,3.1252,3.2445,3.2403,3.2291,3.3275,3.2933,3.2418,3.2516,3.2985,3.3377,3.3308,3.3758,3.4105,3.3967,3.3952,3.39,3.3834,3.366,3.3483,3.3346,3.2785,3.257,3.3082,3.2727,3.2661,3.3268,3.3183,3.3024,3.2898,3.2606,3.2353,3.2196,3.1946,3.1744,3.156,3.1519,3.1443,3.1312,3.106,3.0572,2.9888,2.947,2.892,2.6892,0.0,0.0,2.94,0.0,3.1686,3.2008,3.2669,3.3393,3.3783,3.2771,3.2205,3.3373,3.2552,3.1939,3.2779,0.0,0.0,0.0,0.0,0.0,0.0,0.0,0.0,0.0,0.0,0.0,0.0,0.0,3.1123,3.0661,3.0653,3.0645,3.0629,3.0496,3.043,3.0398,3.0375,3.0769,3.1546,3.2104,3.2662,3.3158,3.2601,3.1901,3.1095,3.0698,3.0442,3.0375,3.081,3.0944,3.0956,3.184,3.2073,3.2074,3.3155,3.3097,3.2627,3.3746,3.3784,3.3475,3.4151,3.3863,3.3283,3.3247,3.2277,3.1244,3.1678,3.1619,3.1614,3.2376,3.2579,3.2552,3.2545,3.2269,3.1976,3.1955,3.2214,3.2544,3.288,3.3179,3.3473,3.38,3.3834,3.378,3.3712,3.3726,3.3698,3.3559,3.3166,3.3051,3.3371,3.3002,3.29,3.3298,3.3168,3.3008,3.293,3.2688,3.249,3.2301,3.2072,3.1855,3.1598,3.1538,3.1443,3.1312,3.1249,3.0968,3.0504,2.9681,2.9211,2.7282,0.0,2.8505,3.0006,3.0899,0.0,3.26,3.3242,3.3955,3.4966,3.3811,3.3042,3.4462,3.3412,3.2562,3.3271,0.0,0.0,0.0,0.0,0.0,0.0,0.0,0.0,0.0,0.0,0.0,0.0,0.0,3.0665,3.0604,3.0586,3.0516,3.0456,3.0349,3.0279,3.0318,3.0226,3.0626,3.144,3.17,3.1811,3.1786,3.2486,3.2369,3.1613,3.0839,3.0463,3.0385,3.0414,3.0343,3.0282,3.0978,3.1219,3.1354,3.2732,3.3146,3.3087,3.3721,3.3873,3.3847,3.4055,3.3692,3.3061,3.2562,3.1776,3.1089,3.1213,3.1599,3.2024,3.2203,3.2799,3.3108,3.2187,3.2012,3.1983,3.1719,3.1556,3.1723,3.2489,3.2747,3.301,3.3683,3.3726,3.3657,3.3601,3.3643,3.3629,3.3524,3.3509,3.3481,3.3393,3.337,3.3355,3.3364,3.3168,3.3028,3.2997,3.2737,3.2522,3.2423,3.2214,3.1948,3.1635,3.1538,3.1443,3.1312,3.1249,3.119,3.1157,2.9671,2.9283,2.6623,0.0,2.9268,0.0,3.0494,3.0937,0.0,0.0,3.3139,0.0,3.4234,3.3544,3.3892,3.3089,3.2419,0.0,0.0,0.0,0.0,0.0,0.0,0.0,0.0,0.0,0.0,0.0,0.0,0.0,3.1235,3.0684,3.06,3.0496,3.0397,3.0337,3.0208,3.006,2.9961,3.0053,3.0487,3.1248,3.2268,3.2332,3.1646,3.1852,3.1477,3.0612,3.0518,3.0447,3.0385,3.039,3.0349,3.0305,3.0302,3.0622,3.122,3.1986,3.2596,3.3078,3.3759,3.3913,3.382,3.3926,3.3525,3.2887,3.2264,3.1541,3.1045,3.1679,3.1843,3.2124,3.3377,3.3808,3.3697,3.2859,3.2674,3.2292,3.098,3.0567,3.0708,3.1532,3.2706,3.3602,3.3675,3.3657,3.3601,3.3587,3.3601,3.3609,3.3524,3.3509,3.3481,3.3393,3.3378,3.3349,3.3325,3.3183,3.3024,3.2898,3.2721,3.2522,3.2423,3.2267,3.2072,3.1781,3.1576,3.1443,3.1312,3.1249,3.119,3.119,3.0152,2.9995,2.7108,2.829,2.9401,0.0,3.0385,3.0834,3.248,0.0,3.311,3.486,3.477,3.4396,3.4405,3.3722,3.3182,0.0,0.0,0.0,0.0,0.0,0.0,0.0,0.0,0.0,0.0,0.0,0.0,0.0,3.1137,3.0621,3.0515,3.0386,3.0319,3.0235,3.009,2.9953,2.9897,2.9905,3.0127,3.0546,3.1546,3.1628,3.0873,3.1455,3.1228,3.0441,3.0495,3.0469,3.0408,3.039,3.0311,3.0223,3.0563,3.1083,3.176,3.2408,3.3033,3.3599,3.3792,3.3834,3.3766,3.3926,3.35,3.2962,3.2739,3.2115,3.1659,3.237,3.2458,3.2588,3.3683,3.3954,3.3893,3.3522,3.3067,3.2564,3.1887,3.0978,3.0514,3.1237,3.2601,3.3629,3.3629,3.3615,3.3609,3.3567,3.3595,3.3545,3.3452,3.3437,3.3437,3.3393,3.3393,3.3364,3.331,3.3183,3.3055,3.2981,3.2821,3.2641,3.2456,3.2353,3.2179,3.1857,3.167,3.1466,3.1312,3.1137,3.1092,3.1058,2.9777,2.9629,2.7279,2.8102,2.8795,2.983,3.0088,3.0583,0.0,0.0,3.3211,0.0,3.5141,3.5001,3.4955,3.4129,0.0,0.0,0.0,0.0,0.0,0.0,0.0,0.0,0.0,0.0,0.0,0.0,0.0,0.0,3.1004,3.0595,3.0403,3.0358,3.0241,3.014,2.9953,2.9839,2.9813,2.9799,2.9834,2.9959,3.0622,3.0685,3.0215,3.0918,3.0912,3.0442,3.0469,3.0458,3.0369,3.0367,3.0375,3.0434,3.0915,3.1638,3.2398,3.2888,3.3449,3.3978,3.3873,3.3766,3.3712,3.3952,3.35,3.2941,3.3142,3.2601,3.2104,3.2778,3.2883,3.297,3.3731,3.3941,3.4004,3.3952,3.3447,3.2869,3.2452,3.1605,3.1029,3.1554,3.272,3.3615,3.3615,3.3601,3.3595,3.3524,3.3553,3.3553,3.3437,3.3408,3.3393,3.3422,3.3408,3.3364,3.331,3.3183,3.3055,3.3013,3.2854,3.2691,3.2506,3.2405,3.2214,3.1912,3.1747,3.1542,3.1351,3.1098,3.0911,3.0676,2.9264,2.9012,2.6552,2.6799,2.7202,2.8872,2.9275,0.0,0.0,0.0,0.0,3.4948,3.5207,3.5098,3.5092,3.3717,0.0,0.0,0.0,0.0,0.0,0.0,0.0,0.0,0.0,0.0,0.0,0.0,0.0,0.0,3.0638,3.0539,3.0403,3.0349,3.0219,3.0022,2.9813,2.9672,2.9636,2.9692,2.9728,2.9816,2.9939,2.9943,2.9921,3.0082,3.0199,3.0213,3.0343,3.0379,3.0304,3.0248,3.0598,3.1132,3.0958,3.1784,3.3026,3.3025,3.3377,3.3913,3.3913,3.3766,3.3643,3.3926,3.3412,3.2772,3.3027,3.2515,3.1975,3.2781,3.2883,3.2982,3.3795,3.4016,3.3979,3.4016,3.3928,3.3384,3.1813,3.2008,3.2472,3.2546,3.3153,3.3684,3.3684,3.3629,3.3595,3.3524,3.3509,3.3509,3.3509,3.3437,3.3422,3.3495,3.3437,3.3364,3.331,3.3183,3.3055,3.3013,3.2753,3.2606,3.2606,3.2335,3.2109,3.1877,3.1855,3.1688,3.1481,3.1171,3.0662,2.9921,2.8896,2.837,2.6553,2.6741,0.0,2.8106,2.8376,2.8879,3.0796,3.1623,3.2464,3.4165,3.491,3.5229,3.5187,3.3734,0.0,0.0,0.0,0.0,0.0,0.0,0.0,0.0,0.0,0.0,0.0,0.0,0.0,0.0,0.0,3.1076,3.0292,3.0248,3.0154,3.0014,2.9808,2.9664,2.9616,2.9579,2.9636,2.9726,2.9787,2.9839,2.9897,2.9961,3.003,3.015,3.0199,3.0202,3.0266,3.072,3.102,3.1235,3.2069,3.266,3.3087,3.3451,3.3681,3.3834,3.3739,3.3587,3.3538,3.39,3.3679,3.338,3.3661,3.35,3.3241,3.3461,3.3471,3.3519,3.3813,3.3887,3.3887,3.3887,3.386,3.3663,3.3086,3.3185,3.3272,3.2706,3.323,3.3766,3.3766,3.3712,3.3629,3.3559,3.3545,3.3553,3.3452,3.3408,3.3408,3.3437,3.3408,3.3364,3.331,3.328,3.3183,3.3055,3.2882,3.2753,3.2653,3.2489,3.2319,3.2091,3.1497,3.0951,3.0613,3.033,2.9805,2.8973,2.7954,2.7676,2.6246,2.6395,0.0,0.0,0.0,2.8086,3.0257,0.0,3.1642,3.3363,3.4088,3.4527,3.4732,3.3576,0.0,0.0,0.0,0.0,0.0,0.0,0.0,0.0,0.0,0.0,0.0,0.0,0.0,0.0,0.0,0.0,3.074,3.0381,3.0126,2.9951,2.9737,2.9608,2.9616,2.954,2.9589,2.9681,2.9746,2.9782,2.9787,2.983,2.9905,2.9984,3.0053,3.0097,3.0188,3.0944,3.1281,3.1487,3.2681,3.3199,3.3315,3.3705,3.382,3.3726,3.3615,3.3538,3.3509,3.3887,3.3873,3.3753,3.4067,3.408,3.3928,3.39,3.386,3.3847,3.3873,3.3873,3.3873,3.3847,3.3847,3.3834,3.3807,3.3847,3.3713,3.3109,3.344,3.3807,3.3807,3.3766,3.3698,3.3601,3.3559,3.3553,3.3452,3.3364,3.3334,3.3393,3.3334,3.3274,3.3198,3.3183,3.3152,3.3024,3.2882,3.277,3.2653,3.2489,3.2213,3.183,3.1394,3.0729,2.978,2.9589,2.9015,2.8181,2.7325,2.703,0.0,0.0,0.0,0.0,0.0,0.0,3.0787,0.0,3.0739,3.2494,3.2839,3.3032,3.3777,3.3209,0.0,0.0,0.0,0.0,0.0,0.0,0.0,0.0,0.0,0.0,0.0,0.0,0.0,0.0,3.1033,3.0865,3.1634,3.0727,3.0082,2.9808,2.958,2.954,2.9616,2.954,2.9569,2.9701,2.9701,2.9673,2.9626,2.9737,2.9799,2.9816,3.0,3.0076,3.0075,3.0844,3.1431,3.196,3.2741,3.334,3.3807,3.3807,3.3712,3.3587,3.3573,3.3567,3.3567,3.39,3.3873,3.3766,3.4117,3.408,3.3926,3.3991,3.3965,3.3926,3.3991,3.3979,3.3991,3.3889,3.3913,3.39,3.382,3.3807,3.3807,3.3807,3.3807,3.3807,3.3807,3.3807,3.3766,3.3615,3.3567,3.3509,3.3509,3.3253,3.3162,3.3364,3.3208,3.307,3.3028,3.3013,3.2997,3.2898,3.2721,3.2622,3.2622,3.2335,3.1882,3.1148,3.1602,3.099,2.9211,2.8939,2.8385,2.7575,2.7024,2.641,2.5657,0.0,0.0,0.0,0.0,0.0,0.0,0.0,0.0,3.1429,3.2328,3.2965,3.3808,3.3683,0.0,0.0,0.0,0.0,0.0,0.0,0.0,0.0,0.0,0.0,0.0,0.0,0.0,0.0,3.2171,3.1394,3.1492,3.054,2.9897,2.971,2.9589,2.954,2.9616,2.954,2.9569,2.9701,2.9664,2.9655,2.9683,2.9729,2.9746,2.9816,3.0014,3.0388,3.0915,3.1672,3.1929,3.2034,3.3312,3.3782,3.3793,3.3753,3.3629,3.3538,3.3481,3.3408,3.3422,3.3873,3.3807,3.3629,3.4055,3.4042,3.3834,3.386,3.386,3.3847,3.386,3.3873,3.3873,3.3913,3.3913,3.3913,3.3887,3.3887,3.3873,3.382,3.3847,3.3873,3.382,3.3807,3.378,3.3684,3.3601,3.3553,3.3437,3.3364,3.3289,3.3178,3.3229,3.3198,3.307,3.3168,3.3168,3.3039,3.293,3.285,3.2818,3.2574,3.2265,3.19,3.0906,3.0024,2.9263,2.9066,2.8388,2.7356,2.64,2.5862,2.5786,0.0,0.0,0.0,0.0,0.0,2.6877,2.7478,0.0,0.0,3.1082,3.1874,3.2768,0.0,0.0,0.0,0.0,0.0,0.0,0.0,0.0,0.0,0.0,0.0,0.0,3.3799,3.3407,3.3685,3.2093,3.1046,3.0889,3.0235,2.9859,2.9766,2.9608,2.9569,2.9655,2.9569,2.9569,2.9673,2.9636,2.9626,2.9608,2.9683,2.9728,2.9842,3.0356,3.0852,3.1336,3.2444,3.2693,3.2519,3.3599,3.3913,3.3712,3.3629,3.3567,3.3452,3.3408,3.3452,3.353,3.3834,3.3834,3.3766,3.4018,3.3991,3.3807,3.3807,3.3807,3.3807,3.3807,3.3834,3.386,3.39,3.3939,3.3928,3.3928,3.3928,3.3926,3.3834,3.3834,3.386,3.382,3.3807,3.378,3.3712,3.3615,3.3538,3.3452,3.3349,3.3244,3.3117,3.3137,3.3106,3.3008,3.306,3.3075,3.3008,3.2898,3.2802,3.277,3.2574,3.223,3.1742,3.0766,2.9781,2.8801,2.8338,2.7649,2.6689,2.6022,2.5638,2.5935,2.5603,0.0,0.0,0.0,0.0,2.7277,2.7566,2.7775,0.0,0.0,3.0097,3.0973,0.0,0.0,0.0,0.0,0.0,0.0,0.0,0.0,0.0,0.0,0.0,3.3053,3.2254,3.2171,3.3053,3.1532,3.04,3.0099,2.9943,2.9851,2.979,2.9655,2.9683,2.9814,2.9683,2.9654,2.9729,2.9654,2.956,2.954,2.9636,2.9755,2.9847,3.079,3.1264,3.1553,3.2995,3.3364,3.3153,3.3722,3.3793,3.3573,3.3538,3.3452,3.3393,3.3393,3.3595,3.3807,3.382,3.3913,3.3979,3.4042,3.3902,3.3807,3.3807,3.382,3.382,3.3807,3.386,3.3913,3.3926,3.3941,3.3992,3.3992,3.3992,3.3954,3.386,3.3834,3.3834,3.382,3.382,3.3793,3.3726,3.3587,3.3524,3.3509,3.3283,3.3132,3.3086,3.2977,3.2918,3.2902,3.2838,3.2821,3.2902,3.2705,3.2606,3.2606,3.2473,3.2055,3.1253,3.0906,2.9885,2.8118,2.7419,2.6689,2.5899,2.5961,2.561,2.5949,2.5191,2.4818,2.5646,0.0,0.0,2.5665,2.5837,2.62,0.0,2.8026,2.8356,2.9227,0.0,0.0,0.0,0.0,0.0,0.0,0.0,0.0,0.0,0.0,0.0,3.2942,3.2202,3.2312,3.3763,3.279,3.1469,2.9944,2.9834,2.9782,2.9738,2.9655,2.9945,3.0668,2.9906,2.9887,3.0562,2.9926,2.9636,2.9645,2.9737,2.9816,2.9893,3.0243,3.1157,3.2352,3.264,3.2893,3.3164,3.3821,3.3887,3.3573,3.3538,3.3452,3.3393,3.3393,3.3595,3.382,3.3939,3.4004,3.4018,3.4179,3.4018,3.3807,3.3807,3.3847,3.3873,3.382,3.386,3.3926,3.3991,3.4018,3.4068,3.4068,3.4068,3.408,3.3991,3.3978,3.3928,3.39,3.3887,3.3873,3.3793,3.3712,3.3615,3.3524,3.3466,3.3334,3.306,3.3013,3.295,3.2821,3.2805,3.2805,3.2821,3.2672,3.2606,3.2606,3.2473,3.2249,3.1969,3.0474,2.9214,2.8253,2.8281,2.7481,2.5972,2.6357,2.5999,2.5532,2.4733,2.4475,2.4849,0.0,0.0,0.0,2.5031,2.5159,2.6831,2.6756,2.6657,2.7485,0.0,0.0,0.0,0.0,0.0,0.0,0.0,0.0,0.0,0.0,0.0,3.2192,3.1834,3.1936,3.2687,3.2615,3.1746,2.9964,2.9799,2.9746,2.9711,2.9664,2.9852,3.0302,2.9833,2.9823,3.0264,2.9851,2.9664,2.9737,2.9737,3.0086,3.0662,3.0662,3.1676,3.3247,3.3135,3.3327,3.3738,3.3957,3.386,3.3553,3.3481,3.3422,3.3408,3.353,3.3753,3.3954,3.413,3.4154,3.4228,3.4264,3.4105,3.39,3.3834,3.386,3.3913,3.3873,3.3887,3.3939,3.4042,3.4092,3.4093,3.413,3.413,3.4117,3.413,3.408,3.4092,3.3991,3.3902,3.3913,3.3913,3.3793,3.3698,3.3698,3.3601,3.3313,3.2711,3.2541,3.2435,3.2295,3.222,3.2188,3.2232,3.2429,3.2381,3.2075,3.2211,3.2092,3.1672,3.03,2.9178,2.8336,2.8407,2.7703,2.6328,2.6691,2.6302,0.0,0.0,0.0,0.0,0.0,2.34,0.0,0.0,0.0,2.5587,0.0,0.0,0.0,0.0,0.0,0.0,0.0,0.0,0.0,0.0,0.0,0.0,0.0,0.0,3.0904,3.1195,3.1279,3.1097,3.1762,3.1462,2.9883,2.9735,2.969,2.9711,2.9681,2.9757,2.9927,2.9776,2.9776,2.9927,2.9955,3.0,3.0034,3.0178,3.0658,3.1325,3.1256,3.2124,3.3565,3.3481,3.3757,3.4227,3.4055,3.3793,3.3481,3.3452,3.3422,3.3466,3.3739,3.3991,3.4179,3.4239,3.4347,3.437,3.4228,3.408,3.4004,3.3873,3.3873,3.3926,3.39,3.3913,3.3965,3.403,3.4068,3.4105,3.4204,3.4179,3.4179,3.4179,3.4179,3.4179,3.4005,3.3991,3.3928,3.3978,3.386,3.3793,3.3887,3.3726,3.3354,3.2615,3.2148,3.1921,3.1995,3.1706,3.1608,3.1856,3.2221,3.2139,3.1476,3.1809,3.1794,3.1357,3.047,2.9588,2.8676,2.8559,2.7844,2.6623,2.695,2.6625,0.0,0.0,0.0,0.0,2.4785,0.0,0.0,0.0,2.3053,2.3201,0.0,0.0,0.0,0.0,0.0,0.0,0.0,0.0,0.0,0.0,0.0,0.0,0.0,0.0,0.0,3.0127,3.063,2.995,3.0575,3.0535,2.9519,2.9682,2.9755,2.9711,2.9681,3.0057,3.0743,2.9992,2.9992,3.0781,3.0885,3.0893,3.0911,3.1782,3.1817,3.1147,3.1316,3.18,3.2477,3.2484,3.3139,3.4093,3.4018,3.3766,3.3422,3.3553,3.3553,3.3553,3.3873,3.4093,3.43,3.4311,3.4323,3.43,3.4068,3.403,3.4043,3.3939,3.3952,3.3978,3.386,3.3913,3.3979,3.4029,3.408,3.4105,3.4204,3.4179,3.4179,3.4179,3.4179,3.4179,3.4005,3.403,3.4005,3.386,3.3913,3.3952,3.3834,3.3739,3.3592,3.3378,3.2415,3.2082,3.2719,3.201,3.1792,3.2462,3.2487,3.2155,3.136,3.1332,3.1616,3.2248,3.1323,3.0471,2.9655,2.9351,2.834,2.6708,2.7206,2.6921,0.0,0.0,0.0,0.0,0.0,0.0,2.4656,0.0,2.1707,0.0,0.0,0.0,0.0,0.0,0.0,0.0,2.0909,0.0,0.0,0.0,0.0,0.0,0.0,0.0,0.0,0.0,0.0,0.0,2.9792,2.9837,2.9522,2.9636,2.9701,2.9746,2.9799,2.995,3.0264,3.0395,3.0413,3.0318,3.1342,3.1348,3.0457,3.1333,3.1556,3.1255,3.0766,3.1505,3.3062,3.2439,3.2916,3.4042,3.39,3.3615,3.3334,3.3452,3.3553,3.3657,3.3979,3.4216,3.4323,3.4358,3.4323,3.424,3.4117,3.4093,3.4055,3.3952,3.3939,3.3952,3.3887,3.3887,3.3926,3.4018,3.403,3.4055,3.4191,3.4179,3.4179,3.4179,3.4179,3.4154,3.4055,3.4068,3.4055,3.4004,3.3978,3.3952,3.3926,3.3834,3.3542,3.2972,3.2393,3.2118,3.2343,3.1845,3.1631,3.2014,3.1495,3.1154,3.116,3.1226,3.1435,3.1752,3.1369,3.0987,3.0605,2.9582,2.8655,2.7872,2.7724,2.7173,2.9099,0.0,0.0,0.0,0.0,0.0,0.0,0.0,0.0,0.0,0.0,0.0,0.0,0.0,0.0,0.0,0.0,2.0706,0.0,0.0,0.0,0.0,0.0,0.0,0.0,0.0,0.0,0.0,0.0,2.912,2.9456,2.9598,2.9673,2.9764,2.9842,2.9973,3.0147,3.0578,3.0612,3.028,3.1522,3.148,3.0364,3.1222,3.1521,3.1302,3.0566,3.138,3.3138,3.2357,3.2776,3.3913,3.3698,3.3553,3.3408,3.3509,3.3629,3.3847,3.4228,3.4358,3.437,3.4381,3.4274,3.4179,3.4179,3.4142,3.4068,3.3967,3.3952,3.3902,3.3913,3.3873,3.3873,3.3992,3.4005,3.4018,3.4167,3.4204,3.4179,3.4179,3.4179,3.4166,3.4155,3.4093,3.4105,3.403,3.3941,3.3926,3.3952,3.3834,3.3506,3.288,3.2405,3.2206,3.229,3.182,3.1521,3.1537,3.0459,3.012,3.0844,3.075,3.0779,3.1039,3.1219,3.117,3.0896,2.9772,2.9078,2.8711,2.7996,2.7284,0.0,0.0,0.0,2.8437,0.0,0.0,0.0,0.0,2.1403,0.0,0.0,0.0,0.0,0.0,0.0,0.0,0.0,0.0,0.0,0.0,0.0,0.0,0.0,0.0,0.0,0.0,0.0,0.0,2.7321,0.0,2.9163,2.9522,2.9681,2.9711,2.9816,3.0275,3.1062,3.0313,3.0356,3.1147,3.1284,3.1316,3.1309,3.2148,3.2069,3.1193,3.1156,3.1469,3.1955,3.1864,3.2551,3.3684,3.3495,3.3538,3.3698,3.3847,3.3952,3.408,3.4517,3.4594,3.4473,3.4358,3.4276,3.4179,3.4179,3.4142,3.408,3.408,3.4067,3.3967,3.3926,3.3913,3.3913,3.3913,3.3928,3.4005,3.4105,3.4142,3.4179,3.4179,3.4179,3.4179,3.4216,3.413,3.408,3.3939,3.3913,3.3887,3.382,3.3684,3.3587,3.355,3.2618,3.2268,3.2993,3.2168,3.1521,3.1306,2.9772,2.9297,3.0289,2.9444,2.9394,3.0305,3.0988,3.0926,3.0159,3.0088,2.9636,2.8786,2.7848,2.7184,0.0,0.0,3.2499,3.0506,0.0,0.0,0.0,0.0,0.0,0.0,0.0,0.0,0.0,0.0,0.0,0.0,0.0,0.0,0.0,0.0,0.0,0.0,0.0,0.0,0.0,0.0,0.0,0.0,2.5947,0.0,0.0,2.8994,2.9464,2.9617,3.0273,3.0825,3.1231,3.1476,3.1526,3.1332,3.1881,3.16,3.06,3.1432,3.1278,3.0351,3.0292,3.0885,3.1907,3.1808,3.2588,3.382,3.3545,3.3601,3.3834,3.3739,3.3926,3.424,3.4439,3.4473,3.4416,3.43,3.4203,3.4179,3.4179,3.4142,3.408,3.408,3.403,3.3954,3.3873,3.3873,3.39,3.386,3.3939,3.4005,3.4105,3.4142,3.4179,3.4179,3.4179,3.4179,3.4179,3.413,3.4005,3.3954,3.39,3.382,3.3739,3.3657,3.3573,3.3553,3.311,3.2925,3.3101,3.2157,3.1229,3.0558,2.9444,2.8969,2.942,2.9142,2.9168,2.9615,3.0305,3.0521,3.0289,2.9687,2.9222,2.8925,2.8027,2.7322,3.4881,3.4685,0.0,3.1871,3.1052,0.0,2.7968,0.0,0.0,0.0,0.0,0.0,0.0,0.0,0.0,0.0,0.0,0.0,0.0,1.9361,0.0,0.0,0.0,0.0,0.0,0.0,2.2747,2.3555,2.5179,0.0,0.0,0.0,2.9783,3.0011,3.0715,3.1302,3.1741,3.1697,3.1584,3.1416,3.1645,3.1209,3.0265,3.0722,3.0753,3.0384,3.0296,3.1025,3.2366,3.2244,3.2847,3.386,3.3753,3.386,3.3992,3.373,3.3941,3.4381,3.4404,3.4393,3.4358,3.4252,3.4166,3.4154,3.4179,3.4142,3.408,3.4117,3.4055,3.4004,3.3902,3.386,3.382,3.3873,3.3913,3.3978,3.4092,3.4142,3.4179,3.4179,3.4179,3.4179,3.4154,3.4055,3.3979,3.3991,3.3834,3.3698,3.3629,3.3567,3.3495,3.3466,3.3289,3.3029,3.2583,3.1433,3.0415,2.9718,2.8884,2.8443,2.8534,2.8579,2.8638,2.8726,2.952,2.9865,2.9773,2.9279,2.9002,2.8925,2.8072,2.7353]}]]